<?xml version="1.0" encoding="UTF-8" standalone="no" ?>
<gpx xmlns="http://www.topografix.com/GPX/1/1" xmlns:xsi="http://www.w3.org/2001/XMLSchema-instance" xsi:schemaLocation="http://www.topografix.com/GPX/1/1 http://www.topografix.com/GPX/1/1/gpx.xsd" version="1.1" creator="VisuGPX - https://www.visugpx.com">
  <metadata>
    <name>CAMINO PRIMITIVO&quot; FERREIRA - MELIDE&quot;</name>
    <desc><![CDATA[Etape très facile, que l'on apprécie car quelques problèmes physique commencent à apparaitre. Mélide est également la fin du Camino Primitivo ou nous retrouvons le Camino Frances avec sa horde de pélerins qui n'en sont pas vraiment, se contentant de faire les derniers km de l'étape pour faire tamponner leur crédencial. Ils se déplacent la plupart sans sac ni eau, et remplissent les albergues publiques énormes, plus de 100 places. C'est également à partir d'ici que l'on se méfiera des punaises de lits que nous avons rencontrées pour la 1ere fois a Santiago.]]></desc>
  </metadata>
  <trk>
    <name><![CDATA[2016-07-17-01]]></name>
    <trkseg>
      <trkpt lat="42.94737" lon="-7.8165">
        <ele>569.8</ele>
        <time>2016-07-17T04:23:49Z</time>
      </trkpt>
      <trkpt lat="42.94733" lon="-7.81649">
        <ele>566</ele>
        <time>2016-07-17T04:23:51Z</time>
      </trkpt>
      <trkpt lat="42.94721" lon="-7.81649">
        <ele>545</ele>
        <time>2016-07-17T04:24:03Z</time>
      </trkpt>
      <trkpt lat="42.94712" lon="-7.81647">
        <ele>535</ele>
        <time>2016-07-17T04:24:15Z</time>
      </trkpt>
      <trkpt lat="42.94702" lon="-7.81647">
        <ele>532.2</ele>
        <time>2016-07-17T04:24:25Z</time>
      </trkpt>
      <trkpt lat="42.94692" lon="-7.81646">
        <ele>530</ele>
        <time>2016-07-17T04:24:34Z</time>
      </trkpt>
      <trkpt lat="42.94682" lon="-7.81642">
        <ele>528.2</ele>
        <time>2016-07-17T04:24:42Z</time>
      </trkpt>
      <trkpt lat="42.94673" lon="-7.81646">
        <ele>526.5</ele>
        <time>2016-07-17T04:24:51Z</time>
      </trkpt>
      <trkpt lat="42.94664" lon="-7.81654">
        <ele>524.9</ele>
        <time>2016-07-17T04:25:00Z</time>
      </trkpt>
      <trkpt lat="42.94658" lon="-7.81663">
        <ele>523.2</ele>
        <time>2016-07-17T04:25:10Z</time>
      </trkpt>
      <trkpt lat="42.9465" lon="-7.81669">
        <ele>521.9</ele>
        <time>2016-07-17T04:25:18Z</time>
      </trkpt>
      <trkpt lat="42.94641" lon="-7.81675">
        <ele>520.7</ele>
        <time>2016-07-17T04:25:26Z</time>
      </trkpt>
      <trkpt lat="42.94632" lon="-7.8168">
        <ele>519.5</ele>
        <time>2016-07-17T04:25:36Z</time>
      </trkpt>
      <trkpt lat="42.94626" lon="-7.8169">
        <ele>518.2</ele>
        <time>2016-07-17T04:25:48Z</time>
      </trkpt>
      <trkpt lat="42.94618" lon="-7.81697">
        <ele>517.1</ele>
        <time>2016-07-17T04:26:00Z</time>
      </trkpt>
      <trkpt lat="42.94611" lon="-7.81706">
        <ele>516.2</ele>
        <time>2016-07-17T04:26:21Z</time>
      </trkpt>
      <trkpt lat="42.94606" lon="-7.81716">
        <ele>515.8</ele>
        <time>2016-07-17T04:26:40Z</time>
      </trkpt>
      <trkpt lat="42.94606" lon="-7.81729">
        <ele>515.5</ele>
        <time>2016-07-17T04:26:54Z</time>
      </trkpt>
      <trkpt lat="42.94609" lon="-7.81741">
        <ele>515.4</ele>
        <time>2016-07-17T04:27:05Z</time>
      </trkpt>
      <trkpt lat="42.94612" lon="-7.81753">
        <ele>515.3</ele>
        <time>2016-07-17T04:27:17Z</time>
      </trkpt>
      <trkpt lat="42.94614" lon="-7.81765">
        <ele>515.4</ele>
        <time>2016-07-17T04:27:27Z</time>
      </trkpt>
      <trkpt lat="42.94616" lon="-7.81778">
        <ele>516.1</ele>
        <time>2016-07-17T04:27:39Z</time>
      </trkpt>
      <trkpt lat="42.94618" lon="-7.81791">
        <ele>517.4</ele>
        <time>2016-07-17T04:27:58Z</time>
      </trkpt>
      <trkpt lat="42.94622" lon="-7.81803">
        <ele>518</ele>
        <time>2016-07-17T04:28:11Z</time>
      </trkpt>
      <trkpt lat="42.94626" lon="-7.81814">
        <ele>518.5</ele>
        <time>2016-07-17T04:28:22Z</time>
      </trkpt>
      <trkpt lat="42.94631" lon="-7.81825">
        <ele>519.8</ele>
        <time>2016-07-17T04:28:35Z</time>
      </trkpt>
      <trkpt lat="42.94636" lon="-7.81836">
        <ele>520.9</ele>
        <time>2016-07-17T04:28:45Z</time>
      </trkpt>
      <trkpt lat="42.94642" lon="-7.81846">
        <ele>521.7</ele>
        <time>2016-07-17T04:28:54Z</time>
      </trkpt>
      <trkpt lat="42.94645" lon="-7.81859">
        <ele>523.1</ele>
        <time>2016-07-17T04:29:05Z</time>
      </trkpt>
      <trkpt lat="42.9465" lon="-7.81871">
        <ele>524.4</ele>
        <time>2016-07-17T04:29:16Z</time>
      </trkpt>
      <trkpt lat="42.94652" lon="-7.81883">
        <ele>525.9</ele>
        <time>2016-07-17T04:29:25Z</time>
      </trkpt>
      <trkpt lat="42.94649" lon="-7.81896">
        <ele>527.4</ele>
        <time>2016-07-17T04:29:35Z</time>
      </trkpt>
      <trkpt lat="42.94643" lon="-7.81908">
        <ele>528</ele>
        <time>2016-07-17T04:29:44Z</time>
      </trkpt>
      <trkpt lat="42.9464" lon="-7.8192">
        <ele>528.7</ele>
        <time>2016-07-17T04:29:54Z</time>
      </trkpt>
      <trkpt lat="42.94636" lon="-7.81932">
        <ele>529</ele>
        <time>2016-07-17T04:30:03Z</time>
      </trkpt>
      <trkpt lat="42.94633" lon="-7.81943">
        <ele>529.6</ele>
        <time>2016-07-17T04:30:13Z</time>
      </trkpt>
      <trkpt lat="42.94631" lon="-7.81956">
        <ele>530.2</ele>
        <time>2016-07-17T04:30:22Z</time>
      </trkpt>
      <trkpt lat="42.94631" lon="-7.81969">
        <ele>530.6</ele>
        <time>2016-07-17T04:30:31Z</time>
      </trkpt>
      <trkpt lat="42.9463" lon="-7.81982">
        <ele>531</ele>
        <time>2016-07-17T04:30:41Z</time>
      </trkpt>
      <trkpt lat="42.9463" lon="-7.81995">
        <ele>531.9</ele>
        <time>2016-07-17T04:30:50Z</time>
      </trkpt>
      <trkpt lat="42.94628" lon="-7.82008">
        <ele>532.4</ele>
        <time>2016-07-17T04:30:58Z</time>
      </trkpt>
      <trkpt lat="42.94627" lon="-7.82021">
        <ele>533.3</ele>
        <time>2016-07-17T04:31:09Z</time>
      </trkpt>
      <trkpt lat="42.94626" lon="-7.82033">
        <ele>534.2</ele>
        <time>2016-07-17T04:31:19Z</time>
      </trkpt>
      <trkpt lat="42.94626" lon="-7.82046">
        <ele>534.7</ele>
        <time>2016-07-17T04:31:29Z</time>
      </trkpt>
      <trkpt lat="42.94625" lon="-7.82059">
        <ele>535.7</ele>
        <time>2016-07-17T04:31:38Z</time>
      </trkpt>
      <trkpt lat="42.94624" lon="-7.82072">
        <ele>536.6</ele>
        <time>2016-07-17T04:31:48Z</time>
      </trkpt>
      <trkpt lat="42.94624" lon="-7.82085">
        <ele>536.8</ele>
        <time>2016-07-17T04:31:57Z</time>
      </trkpt>
      <trkpt lat="42.94622" lon="-7.82098">
        <ele>537.2</ele>
        <time>2016-07-17T04:32:09Z</time>
      </trkpt>
      <trkpt lat="42.94621" lon="-7.82111">
        <ele>537.8</ele>
        <time>2016-07-17T04:32:20Z</time>
      </trkpt>
      <trkpt lat="42.9462" lon="-7.82124">
        <ele>538</ele>
        <time>2016-07-17T04:32:28Z</time>
      </trkpt>
      <trkpt lat="42.9462" lon="-7.82136">
        <ele>538.7</ele>
        <time>2016-07-17T04:32:37Z</time>
      </trkpt>
      <trkpt lat="42.94618" lon="-7.8215">
        <ele>538.8</ele>
        <time>2016-07-17T04:32:45Z</time>
      </trkpt>
      <trkpt lat="42.94616" lon="-7.82162">
        <ele>539.1</ele>
        <time>2016-07-17T04:32:54Z</time>
      </trkpt>
      <trkpt lat="42.94613" lon="-7.82175">
        <ele>539.4</ele>
        <time>2016-07-17T04:33:03Z</time>
      </trkpt>
      <trkpt lat="42.9461" lon="-7.82188">
        <ele>539.7</ele>
        <time>2016-07-17T04:33:12Z</time>
      </trkpt>
      <trkpt lat="42.94606" lon="-7.82199">
        <ele>540.2</ele>
        <time>2016-07-17T04:33:20Z</time>
      </trkpt>
      <trkpt lat="42.946" lon="-7.82208">
        <ele>540.9</ele>
        <time>2016-07-17T04:33:30Z</time>
      </trkpt>
      <trkpt lat="42.94594" lon="-7.82218">
        <ele>541.4</ele>
        <time>2016-07-17T04:33:40Z</time>
      </trkpt>
      <trkpt lat="42.94588" lon="-7.82228">
        <ele>542.3</ele>
        <time>2016-07-17T04:33:50Z</time>
      </trkpt>
      <trkpt lat="42.94583" lon="-7.82238">
        <ele>542.8</ele>
        <time>2016-07-17T04:34:00Z</time>
      </trkpt>
      <trkpt lat="42.94578" lon="-7.8225">
        <ele>543.6</ele>
        <time>2016-07-17T04:34:08Z</time>
      </trkpt>
      <trkpt lat="42.94572" lon="-7.82261">
        <ele>544.2</ele>
        <time>2016-07-17T04:34:17Z</time>
      </trkpt>
      <trkpt lat="42.94568" lon="-7.82272">
        <ele>544.6</ele>
        <time>2016-07-17T04:34:25Z</time>
      </trkpt>
      <trkpt lat="42.94564" lon="-7.82284">
        <ele>545.8</ele>
        <time>2016-07-17T04:34:34Z</time>
      </trkpt>
      <trkpt lat="42.94558" lon="-7.82295">
        <ele>546.6</ele>
        <time>2016-07-17T04:34:44Z</time>
      </trkpt>
      <trkpt lat="42.94552" lon="-7.82304">
        <ele>547.2</ele>
        <time>2016-07-17T04:34:53Z</time>
      </trkpt>
      <trkpt lat="42.94548" lon="-7.82316">
        <ele>548</ele>
        <time>2016-07-17T04:35:05Z</time>
      </trkpt>
      <trkpt lat="42.94545" lon="-7.82329">
        <ele>548.7</ele>
        <time>2016-07-17T04:35:17Z</time>
      </trkpt>
      <trkpt lat="42.94544" lon="-7.82343">
        <ele>549.4</ele>
        <time>2016-07-17T04:35:27Z</time>
      </trkpt>
      <trkpt lat="42.9454" lon="-7.82355">
        <ele>550.4</ele>
        <time>2016-07-17T04:35:35Z</time>
      </trkpt>
      <trkpt lat="42.94537" lon="-7.82368">
        <ele>550.9</ele>
        <time>2016-07-17T04:35:43Z</time>
      </trkpt>
      <trkpt lat="42.94538" lon="-7.82381">
        <ele>551.7</ele>
        <time>2016-07-17T04:35:52Z</time>
      </trkpt>
      <trkpt lat="42.94539" lon="-7.82393">
        <ele>552.1</ele>
        <time>2016-07-17T04:36:00Z</time>
      </trkpt>
      <trkpt lat="42.94539" lon="-7.82406">
        <ele>552.4</ele>
        <time>2016-07-17T04:36:08Z</time>
      </trkpt>
      <trkpt lat="42.9454" lon="-7.82419">
        <ele>552.5</ele>
        <time>2016-07-17T04:36:17Z</time>
      </trkpt>
      <trkpt lat="42.94541" lon="-7.82432">
        <ele>552.8</ele>
        <time>2016-07-17T04:36:27Z</time>
      </trkpt>
      <trkpt lat="42.94539" lon="-7.82445">
        <ele>553.6</ele>
        <time>2016-07-17T04:36:38Z</time>
      </trkpt>
      <trkpt lat="42.94538" lon="-7.82458">
        <ele>553.8</ele>
        <time>2016-07-17T04:36:48Z</time>
      </trkpt>
      <trkpt lat="42.94539" lon="-7.82471">
        <ele>553.9</ele>
        <time>2016-07-17T04:36:55Z</time>
      </trkpt>
      <trkpt lat="42.94538" lon="-7.82484">
        <ele>553.9</ele>
        <time>2016-07-17T04:37:03Z</time>
      </trkpt>
      <trkpt lat="42.9454" lon="-7.82497">
        <ele>554</ele>
        <time>2016-07-17T04:37:11Z</time>
      </trkpt>
      <trkpt lat="42.9454" lon="-7.8251">
        <ele>554</ele>
        <time>2016-07-17T04:37:21Z</time>
      </trkpt>
      <trkpt lat="42.94541" lon="-7.82523">
        <ele>554</ele>
        <time>2016-07-17T04:37:28Z</time>
      </trkpt>
      <trkpt lat="42.94542" lon="-7.82535">
        <ele>554</ele>
        <time>2016-07-17T04:37:36Z</time>
      </trkpt>
      <trkpt lat="42.94544" lon="-7.82548">
        <ele>554.1</ele>
        <time>2016-07-17T04:37:43Z</time>
      </trkpt>
      <trkpt lat="42.94547" lon="-7.82562">
        <ele>554.4</ele>
        <time>2016-07-17T04:37:50Z</time>
      </trkpt>
      <trkpt lat="42.94549" lon="-7.82575">
        <ele>554.6</ele>
        <time>2016-07-17T04:37:59Z</time>
      </trkpt>
      <trkpt lat="42.94548" lon="-7.82589">
        <ele>554.8</ele>
        <time>2016-07-17T04:38:08Z</time>
      </trkpt>
      <trkpt lat="42.94546" lon="-7.82601">
        <ele>555.3</ele>
        <time>2016-07-17T04:38:17Z</time>
      </trkpt>
      <trkpt lat="42.94546" lon="-7.82615">
        <ele>555.3</ele>
        <time>2016-07-17T04:38:25Z</time>
      </trkpt>
      <trkpt lat="42.94547" lon="-7.82628">
        <ele>555.2</ele>
        <time>2016-07-17T04:38:35Z</time>
      </trkpt>
      <trkpt lat="42.94543" lon="-7.82639">
        <ele>555.1</ele>
        <time>2016-07-17T04:38:44Z</time>
      </trkpt>
      <trkpt lat="42.94544" lon="-7.82652">
        <ele>555.1</ele>
        <time>2016-07-17T04:38:52Z</time>
      </trkpt>
      <trkpt lat="42.94545" lon="-7.82665">
        <ele>554.9</ele>
        <time>2016-07-17T04:39:00Z</time>
      </trkpt>
      <trkpt lat="42.94544" lon="-7.82678">
        <ele>554.7</ele>
        <time>2016-07-17T04:39:12Z</time>
      </trkpt>
      <trkpt lat="42.94542" lon="-7.82691">
        <ele>554.4</ele>
        <time>2016-07-17T04:39:21Z</time>
      </trkpt>
      <trkpt lat="42.94542" lon="-7.82703">
        <ele>554.2</ele>
        <time>2016-07-17T04:39:28Z</time>
      </trkpt>
      <trkpt lat="42.94541" lon="-7.82716">
        <ele>554.1</ele>
        <time>2016-07-17T04:39:34Z</time>
      </trkpt>
      <trkpt lat="42.94544" lon="-7.82729">
        <ele>554</ele>
        <time>2016-07-17T04:39:41Z</time>
      </trkpt>
      <trkpt lat="42.94543" lon="-7.82743">
        <ele>553.9</ele>
        <time>2016-07-17T04:39:49Z</time>
      </trkpt>
      <trkpt lat="42.94544" lon="-7.82755">
        <ele>554.6</ele>
        <time>2016-07-17T04:39:58Z</time>
      </trkpt>
      <trkpt lat="42.94542" lon="-7.82768">
        <ele>555.5</ele>
        <time>2016-07-17T04:40:08Z</time>
      </trkpt>
      <trkpt lat="42.94544" lon="-7.8278">
        <ele>556</ele>
        <time>2016-07-17T04:40:15Z</time>
      </trkpt>
      <trkpt lat="42.94548" lon="-7.82793">
        <ele>556.6</ele>
        <time>2016-07-17T04:40:22Z</time>
      </trkpt>
      <trkpt lat="42.9455" lon="-7.82807">
        <ele>557.1</ele>
        <time>2016-07-17T04:40:31Z</time>
      </trkpt>
      <trkpt lat="42.94554" lon="-7.82819">
        <ele>557.4</ele>
        <time>2016-07-17T04:40:40Z</time>
      </trkpt>
      <trkpt lat="42.94557" lon="-7.82831">
        <ele>557.8</ele>
        <time>2016-07-17T04:40:48Z</time>
      </trkpt>
      <trkpt lat="42.94562" lon="-7.82843">
        <ele>558.6</ele>
        <time>2016-07-17T04:40:58Z</time>
      </trkpt>
      <trkpt lat="42.94566" lon="-7.82855">
        <ele>559.2</ele>
        <time>2016-07-17T04:41:07Z</time>
      </trkpt>
      <trkpt lat="42.94567" lon="-7.82867">
        <ele>559.7</ele>
        <time>2016-07-17T04:41:15Z</time>
      </trkpt>
      <trkpt lat="42.94569" lon="-7.8288">
        <ele>560.2</ele>
        <time>2016-07-17T04:41:23Z</time>
      </trkpt>
      <trkpt lat="42.94572" lon="-7.82893">
        <ele>560.6</ele>
        <time>2016-07-17T04:41:30Z</time>
      </trkpt>
      <trkpt lat="42.94576" lon="-7.82904">
        <ele>561</ele>
        <time>2016-07-17T04:41:37Z</time>
      </trkpt>
      <trkpt lat="42.94576" lon="-7.82917">
        <ele>561.4</ele>
        <time>2016-07-17T04:41:45Z</time>
      </trkpt>
      <trkpt lat="42.94575" lon="-7.82929">
        <ele>561.8</ele>
        <time>2016-07-17T04:41:53Z</time>
      </trkpt>
      <trkpt lat="42.94577" lon="-7.82941">
        <ele>562.7</ele>
        <time>2016-07-17T04:42:00Z</time>
      </trkpt>
      <trkpt lat="42.94577" lon="-7.82955">
        <ele>563.5</ele>
        <time>2016-07-17T04:42:09Z</time>
      </trkpt>
      <trkpt lat="42.94578" lon="-7.82968">
        <ele>563.9</ele>
        <time>2016-07-17T04:42:18Z</time>
      </trkpt>
      <trkpt lat="42.94582" lon="-7.8298">
        <ele>564.3</ele>
        <time>2016-07-17T04:42:26Z</time>
      </trkpt>
      <trkpt lat="42.94584" lon="-7.82992">
        <ele>564.8</ele>
        <time>2016-07-17T04:42:36Z</time>
      </trkpt>
      <trkpt lat="42.94586" lon="-7.83004">
        <ele>565.6</ele>
        <time>2016-07-17T04:42:46Z</time>
      </trkpt>
      <trkpt lat="42.94589" lon="-7.83017">
        <ele>566.3</ele>
        <time>2016-07-17T04:42:55Z</time>
      </trkpt>
      <trkpt lat="42.94592" lon="-7.8303">
        <ele>566.7</ele>
        <time>2016-07-17T04:43:04Z</time>
      </trkpt>
      <trkpt lat="42.94594" lon="-7.83043">
        <ele>566.9</ele>
        <time>2016-07-17T04:43:12Z</time>
      </trkpt>
      <trkpt lat="42.94594" lon="-7.83056">
        <ele>567.2</ele>
        <time>2016-07-17T04:43:21Z</time>
      </trkpt>
      <trkpt lat="42.94592" lon="-7.83069">
        <ele>567.8</ele>
        <time>2016-07-17T04:43:31Z</time>
      </trkpt>
      <trkpt lat="42.94596" lon="-7.83082">
        <ele>568.6</ele>
        <time>2016-07-17T04:43:41Z</time>
      </trkpt>
      <trkpt lat="42.94598" lon="-7.83094">
        <ele>569</ele>
        <time>2016-07-17T04:43:50Z</time>
      </trkpt>
      <trkpt lat="42.94601" lon="-7.83107">
        <ele>569.9</ele>
        <time>2016-07-17T04:44:00Z</time>
      </trkpt>
      <trkpt lat="42.94604" lon="-7.8312">
        <ele>570.7</ele>
        <time>2016-07-17T04:44:09Z</time>
      </trkpt>
      <trkpt lat="42.94606" lon="-7.83134">
        <ele>571.2</ele>
        <time>2016-07-17T04:44:18Z</time>
      </trkpt>
      <trkpt lat="42.94608" lon="-7.83147">
        <ele>571.7</ele>
        <time>2016-07-17T04:44:28Z</time>
      </trkpt>
      <trkpt lat="42.9461" lon="-7.8316">
        <ele>572</ele>
        <time>2016-07-17T04:44:36Z</time>
      </trkpt>
      <trkpt lat="42.94612" lon="-7.83173">
        <ele>572.1</ele>
        <time>2016-07-17T04:44:45Z</time>
      </trkpt>
      <trkpt lat="42.94615" lon="-7.83185">
        <ele>572.3</ele>
        <time>2016-07-17T04:44:55Z</time>
      </trkpt>
      <trkpt lat="42.94617" lon="-7.83198">
        <ele>572.6</ele>
        <time>2016-07-17T04:45:05Z</time>
      </trkpt>
      <trkpt lat="42.94616" lon="-7.8321">
        <ele>573.2</ele>
        <time>2016-07-17T04:45:13Z</time>
      </trkpt>
      <trkpt lat="42.94618" lon="-7.83224">
        <ele>573.6</ele>
        <time>2016-07-17T04:45:21Z</time>
      </trkpt>
      <trkpt lat="42.94621" lon="-7.83236">
        <ele>573.9</ele>
        <time>2016-07-17T04:45:28Z</time>
      </trkpt>
      <trkpt lat="42.94624" lon="-7.83248">
        <ele>574.1</ele>
        <time>2016-07-17T04:45:35Z</time>
      </trkpt>
      <trkpt lat="42.94628" lon="-7.8326">
        <ele>574.3</ele>
        <time>2016-07-17T04:45:43Z</time>
      </trkpt>
      <trkpt lat="42.94631" lon="-7.83272">
        <ele>574.5</ele>
        <time>2016-07-17T04:45:52Z</time>
      </trkpt>
      <trkpt lat="42.94633" lon="-7.83284">
        <ele>574.8</ele>
        <time>2016-07-17T04:46:00Z</time>
      </trkpt>
      <trkpt lat="42.94634" lon="-7.83297">
        <ele>574.8</ele>
        <time>2016-07-17T04:46:08Z</time>
      </trkpt>
      <trkpt lat="42.94638" lon="-7.83309">
        <ele>574.8</ele>
        <time>2016-07-17T04:46:16Z</time>
      </trkpt>
      <trkpt lat="42.94641" lon="-7.83321">
        <ele>575.3</ele>
        <time>2016-07-17T04:46:24Z</time>
      </trkpt>
      <trkpt lat="42.94642" lon="-7.83334">
        <ele>575.5</ele>
        <time>2016-07-17T04:46:33Z</time>
      </trkpt>
      <trkpt lat="42.94645" lon="-7.83346">
        <ele>575.7</ele>
        <time>2016-07-17T04:46:42Z</time>
      </trkpt>
      <trkpt lat="42.94647" lon="-7.83358">
        <ele>575.8</ele>
        <time>2016-07-17T04:46:50Z</time>
      </trkpt>
      <trkpt lat="42.94649" lon="-7.83371">
        <ele>576</ele>
        <time>2016-07-17T04:46:58Z</time>
      </trkpt>
      <trkpt lat="42.94652" lon="-7.83384">
        <ele>576.3</ele>
        <time>2016-07-17T04:47:07Z</time>
      </trkpt>
      <trkpt lat="42.94654" lon="-7.83397">
        <ele>576.6</ele>
        <time>2016-07-17T04:47:16Z</time>
      </trkpt>
      <trkpt lat="42.94655" lon="-7.83409">
        <ele>576.8</ele>
        <time>2016-07-17T04:47:24Z</time>
      </trkpt>
      <trkpt lat="42.94657" lon="-7.83421">
        <ele>577.4</ele>
        <time>2016-07-17T04:47:32Z</time>
      </trkpt>
      <trkpt lat="42.94659" lon="-7.83434">
        <ele>578.4</ele>
        <time>2016-07-17T04:47:41Z</time>
      </trkpt>
      <trkpt lat="42.94661" lon="-7.83446">
        <ele>578.9</ele>
        <time>2016-07-17T04:47:50Z</time>
      </trkpt>
      <trkpt lat="42.94664" lon="-7.83459">
        <ele>579.6</ele>
        <time>2016-07-17T04:47:59Z</time>
      </trkpt>
      <trkpt lat="42.94667" lon="-7.83472">
        <ele>580.4</ele>
        <time>2016-07-17T04:48:08Z</time>
      </trkpt>
      <trkpt lat="42.94669" lon="-7.83484">
        <ele>581</ele>
        <time>2016-07-17T04:48:17Z</time>
      </trkpt>
      <trkpt lat="42.94671" lon="-7.83498">
        <ele>581.6</ele>
        <time>2016-07-17T04:48:26Z</time>
      </trkpt>
      <trkpt lat="42.94672" lon="-7.83512">
        <ele>582.2</ele>
        <time>2016-07-17T04:48:36Z</time>
      </trkpt>
      <trkpt lat="42.94673" lon="-7.83525">
        <ele>582.7</ele>
        <time>2016-07-17T04:48:45Z</time>
      </trkpt>
      <trkpt lat="42.94673" lon="-7.83539">
        <ele>583.2</ele>
        <time>2016-07-17T04:48:54Z</time>
      </trkpt>
      <trkpt lat="42.94673" lon="-7.83552">
        <ele>583.9</ele>
        <time>2016-07-17T04:49:04Z</time>
      </trkpt>
      <trkpt lat="42.94671" lon="-7.83566">
        <ele>584.8</ele>
        <time>2016-07-17T04:49:13Z</time>
      </trkpt>
      <trkpt lat="42.94669" lon="-7.83578">
        <ele>585.8</ele>
        <time>2016-07-17T04:49:21Z</time>
      </trkpt>
      <trkpt lat="42.94667" lon="-7.83591">
        <ele>586.9</ele>
        <time>2016-07-17T04:49:36Z</time>
      </trkpt>
      <trkpt lat="42.94661" lon="-7.83601">
        <ele>587.9</ele>
        <time>2016-07-17T04:50:00Z</time>
      </trkpt>
      <trkpt lat="42.94656" lon="-7.83611">
        <ele>588.1</ele>
        <time>2016-07-17T04:50:15Z</time>
      </trkpt>
      <trkpt lat="42.94655" lon="-7.83625">
        <ele>588.2</ele>
        <time>2016-07-17T04:50:28Z</time>
      </trkpt>
      <trkpt lat="42.94652" lon="-7.83637">
        <ele>588.4</ele>
        <time>2016-07-17T04:50:38Z</time>
      </trkpt>
      <trkpt lat="42.9465" lon="-7.83649">
        <ele>588.4</ele>
        <time>2016-07-17T04:50:47Z</time>
      </trkpt>
      <trkpt lat="42.94646" lon="-7.8366">
        <ele>588.6</ele>
        <time>2016-07-17T04:50:55Z</time>
      </trkpt>
      <trkpt lat="42.94641" lon="-7.83672">
        <ele>589.2</ele>
        <time>2016-07-17T04:51:03Z</time>
      </trkpt>
      <trkpt lat="42.94638" lon="-7.83683">
        <ele>589.7</ele>
        <time>2016-07-17T04:51:11Z</time>
      </trkpt>
      <trkpt lat="42.94635" lon="-7.83695">
        <ele>590.1</ele>
        <time>2016-07-17T04:51:19Z</time>
      </trkpt>
      <trkpt lat="42.94632" lon="-7.83707">
        <ele>590.3</ele>
        <time>2016-07-17T04:51:27Z</time>
      </trkpt>
      <trkpt lat="42.94629" lon="-7.83719">
        <ele>590.5</ele>
        <time>2016-07-17T04:51:35Z</time>
      </trkpt>
      <trkpt lat="42.94624" lon="-7.8373">
        <ele>590.8</ele>
        <time>2016-07-17T04:51:43Z</time>
      </trkpt>
      <trkpt lat="42.9462" lon="-7.83742">
        <ele>591.2</ele>
        <time>2016-07-17T04:51:51Z</time>
      </trkpt>
      <trkpt lat="42.94616" lon="-7.83754">
        <ele>591.5</ele>
        <time>2016-07-17T04:52:00Z</time>
      </trkpt>
      <trkpt lat="42.94613" lon="-7.83767">
        <ele>591.8</ele>
        <time>2016-07-17T04:52:09Z</time>
      </trkpt>
      <trkpt lat="42.9461" lon="-7.83779">
        <ele>591.9</ele>
        <time>2016-07-17T04:52:17Z</time>
      </trkpt>
      <trkpt lat="42.94607" lon="-7.83791">
        <ele>592.2</ele>
        <time>2016-07-17T04:52:26Z</time>
      </trkpt>
      <trkpt lat="42.94603" lon="-7.83803">
        <ele>592.6</ele>
        <time>2016-07-17T04:52:34Z</time>
      </trkpt>
      <trkpt lat="42.94599" lon="-7.83815">
        <ele>592.9</ele>
        <time>2016-07-17T04:52:42Z</time>
      </trkpt>
      <trkpt lat="42.94595" lon="-7.83826">
        <ele>593.3</ele>
        <time>2016-07-17T04:52:51Z</time>
      </trkpt>
      <trkpt lat="42.94593" lon="-7.83838">
        <ele>593.6</ele>
        <time>2016-07-17T04:53:00Z</time>
      </trkpt>
      <trkpt lat="42.94589" lon="-7.8385">
        <ele>593.8</ele>
        <time>2016-07-17T04:53:07Z</time>
      </trkpt>
      <trkpt lat="42.94584" lon="-7.83861">
        <ele>594</ele>
        <time>2016-07-17T04:53:15Z</time>
      </trkpt>
      <trkpt lat="42.94581" lon="-7.83873">
        <ele>594.3</ele>
        <time>2016-07-17T04:53:23Z</time>
      </trkpt>
      <trkpt lat="42.94578" lon="-7.83885">
        <ele>595</ele>
        <time>2016-07-17T04:53:31Z</time>
      </trkpt>
      <trkpt lat="42.94573" lon="-7.83896">
        <ele>595.4</ele>
        <time>2016-07-17T04:53:40Z</time>
      </trkpt>
      <trkpt lat="42.94567" lon="-7.83906">
        <ele>595.6</ele>
        <time>2016-07-17T04:53:48Z</time>
      </trkpt>
      <trkpt lat="42.94565" lon="-7.83919">
        <ele>595.8</ele>
        <time>2016-07-17T04:53:56Z</time>
      </trkpt>
      <trkpt lat="42.94563" lon="-7.83932">
        <ele>596.2</ele>
        <time>2016-07-17T04:54:04Z</time>
      </trkpt>
      <trkpt lat="42.94561" lon="-7.83945">
        <ele>596.7</ele>
        <time>2016-07-17T04:54:12Z</time>
      </trkpt>
      <trkpt lat="42.94558" lon="-7.83958">
        <ele>597.5</ele>
        <time>2016-07-17T04:54:20Z</time>
      </trkpt>
      <trkpt lat="42.94555" lon="-7.83971">
        <ele>598.1</ele>
        <time>2016-07-17T04:54:28Z</time>
      </trkpt>
      <trkpt lat="42.94551" lon="-7.83983">
        <ele>598.6</ele>
        <time>2016-07-17T04:54:36Z</time>
      </trkpt>
      <trkpt lat="42.94547" lon="-7.83994">
        <ele>599.1</ele>
        <time>2016-07-17T04:54:45Z</time>
      </trkpt>
      <trkpt lat="42.94543" lon="-7.84007">
        <ele>599.9</ele>
        <time>2016-07-17T04:54:54Z</time>
      </trkpt>
      <trkpt lat="42.9454" lon="-7.84018">
        <ele>600.7</ele>
        <time>2016-07-17T04:55:02Z</time>
      </trkpt>
      <trkpt lat="42.94537" lon="-7.84031">
        <ele>601.3</ele>
        <time>2016-07-17T04:55:10Z</time>
      </trkpt>
      <trkpt lat="42.94534" lon="-7.84044">
        <ele>602</ele>
        <time>2016-07-17T04:55:20Z</time>
      </trkpt>
      <trkpt lat="42.94529" lon="-7.84055">
        <ele>602.5</ele>
        <time>2016-07-17T04:55:28Z</time>
      </trkpt>
      <trkpt lat="42.94526" lon="-7.84069">
        <ele>603.2</ele>
        <time>2016-07-17T04:55:36Z</time>
      </trkpt>
      <trkpt lat="42.94524" lon="-7.84081">
        <ele>603.9</ele>
        <time>2016-07-17T04:55:43Z</time>
      </trkpt>
      <trkpt lat="42.94521" lon="-7.84094">
        <ele>603.8</ele>
        <time>2016-07-17T04:55:52Z</time>
      </trkpt>
      <trkpt lat="42.94519" lon="-7.84106">
        <ele>604.3</ele>
        <time>2016-07-17T04:56:01Z</time>
      </trkpt>
      <trkpt lat="42.94514" lon="-7.84116">
        <ele>604.9</ele>
        <time>2016-07-17T04:56:10Z</time>
      </trkpt>
      <trkpt lat="42.94511" lon="-7.84128">
        <ele>606.1</ele>
        <time>2016-07-17T04:56:21Z</time>
      </trkpt>
      <trkpt lat="42.94504" lon="-7.84136">
        <ele>606.6</ele>
        <time>2016-07-17T04:56:30Z</time>
      </trkpt>
      <trkpt lat="42.94499" lon="-7.84147">
        <ele>606.5</ele>
        <time>2016-07-17T04:56:39Z</time>
      </trkpt>
      <trkpt lat="42.94495" lon="-7.84159">
        <ele>606.3</ele>
        <time>2016-07-17T04:56:49Z</time>
      </trkpt>
      <trkpt lat="42.94488" lon="-7.84169">
        <ele>597.8</ele>
        <time>2016-07-17T04:56:58Z</time>
      </trkpt>
      <trkpt lat="42.94482" lon="-7.8418">
        <ele>604.7</ele>
        <time>2016-07-17T04:57:06Z</time>
      </trkpt>
      <trkpt lat="42.94474" lon="-7.84189">
        <ele>606.3</ele>
        <time>2016-07-17T04:57:14Z</time>
      </trkpt>
      <trkpt lat="42.94465" lon="-7.84194">
        <ele>606.1</ele>
        <time>2016-07-17T04:57:21Z</time>
      </trkpt>
      <trkpt lat="42.94456" lon="-7.842">
        <ele>605.6</ele>
        <time>2016-07-17T04:57:29Z</time>
      </trkpt>
      <trkpt lat="42.94447" lon="-7.84204">
        <ele>604.8</ele>
        <time>2016-07-17T04:57:37Z</time>
      </trkpt>
      <trkpt lat="42.94438" lon="-7.8421">
        <ele>604.2</ele>
        <time>2016-07-17T04:57:46Z</time>
      </trkpt>
      <trkpt lat="42.94429" lon="-7.84215">
        <ele>603.8</ele>
        <time>2016-07-17T04:57:55Z</time>
      </trkpt>
      <trkpt lat="42.9442" lon="-7.84219">
        <ele>603.1</ele>
        <time>2016-07-17T04:58:03Z</time>
      </trkpt>
      <trkpt lat="42.94412" lon="-7.84225">
        <ele>602.4</ele>
        <time>2016-07-17T04:58:12Z</time>
      </trkpt>
      <trkpt lat="42.9441" lon="-7.84238">
        <ele>600.9</ele>
        <time>2016-07-17T04:58:24Z</time>
      </trkpt>
      <trkpt lat="42.94409" lon="-7.84251">
        <ele>600.2</ele>
        <time>2016-07-17T04:58:33Z</time>
      </trkpt>
      <trkpt lat="42.94406" lon="-7.84264">
        <ele>599.4</ele>
        <time>2016-07-17T04:58:42Z</time>
      </trkpt>
      <trkpt lat="42.94405" lon="-7.84276">
        <ele>598</ele>
        <time>2016-07-17T04:58:52Z</time>
      </trkpt>
      <trkpt lat="42.94403" lon="-7.8429">
        <ele>596.8</ele>
        <time>2016-07-17T04:59:02Z</time>
      </trkpt>
      <trkpt lat="42.94401" lon="-7.84302">
        <ele>595.6</ele>
        <time>2016-07-17T04:59:12Z</time>
      </trkpt>
      <trkpt lat="42.94397" lon="-7.84315">
        <ele>594.4</ele>
        <time>2016-07-17T04:59:20Z</time>
      </trkpt>
      <trkpt lat="42.94392" lon="-7.84326">
        <ele>593.5</ele>
        <time>2016-07-17T04:59:29Z</time>
      </trkpt>
      <trkpt lat="42.94387" lon="-7.84338">
        <ele>592.7</ele>
        <time>2016-07-17T04:59:39Z</time>
      </trkpt>
      <trkpt lat="42.94384" lon="-7.8435">
        <ele>592.1</ele>
        <time>2016-07-17T04:59:48Z</time>
      </trkpt>
      <trkpt lat="42.94382" lon="-7.84362">
        <ele>591.9</ele>
        <time>2016-07-17T04:59:56Z</time>
      </trkpt>
      <trkpt lat="42.94381" lon="-7.84376">
        <ele>591.6</ele>
        <time>2016-07-17T05:00:04Z</time>
      </trkpt>
      <trkpt lat="42.9438" lon="-7.84389">
        <ele>591.8</ele>
        <time>2016-07-17T05:00:13Z</time>
      </trkpt>
      <trkpt lat="42.9438" lon="-7.84403">
        <ele>592.1</ele>
        <time>2016-07-17T05:00:22Z</time>
      </trkpt>
      <trkpt lat="42.94378" lon="-7.84415">
        <ele>592.6</ele>
        <time>2016-07-17T05:00:30Z</time>
      </trkpt>
      <trkpt lat="42.94375" lon="-7.84428">
        <ele>593.2</ele>
        <time>2016-07-17T05:00:39Z</time>
      </trkpt>
      <trkpt lat="42.94376" lon="-7.84441">
        <ele>594.2</ele>
        <time>2016-07-17T05:00:48Z</time>
      </trkpt>
      <trkpt lat="42.94374" lon="-7.84453">
        <ele>595</ele>
        <time>2016-07-17T05:00:58Z</time>
      </trkpt>
      <trkpt lat="42.9438" lon="-7.84462">
        <ele>595.8</ele>
        <time>2016-07-17T05:01:07Z</time>
      </trkpt>
      <trkpt lat="42.94384" lon="-7.84475">
        <ele>596.3</ele>
        <time>2016-07-17T05:01:16Z</time>
      </trkpt>
      <trkpt lat="42.94386" lon="-7.84488">
        <ele>596.5</ele>
        <time>2016-07-17T05:01:24Z</time>
      </trkpt>
      <trkpt lat="42.94387" lon="-7.84501">
        <ele>597</ele>
        <time>2016-07-17T05:01:32Z</time>
      </trkpt>
      <trkpt lat="42.94386" lon="-7.84513">
        <ele>597.7</ele>
        <time>2016-07-17T05:01:41Z</time>
      </trkpt>
      <trkpt lat="42.94386" lon="-7.84527">
        <ele>598.5</ele>
        <time>2016-07-17T05:01:50Z</time>
      </trkpt>
      <trkpt lat="42.94387" lon="-7.84541">
        <ele>598.8</ele>
        <time>2016-07-17T05:01:59Z</time>
      </trkpt>
      <trkpt lat="42.94387" lon="-7.84553">
        <ele>599</ele>
        <time>2016-07-17T05:02:08Z</time>
      </trkpt>
      <trkpt lat="42.94386" lon="-7.84566">
        <ele>599.3</ele>
        <time>2016-07-17T05:02:18Z</time>
      </trkpt>
      <trkpt lat="42.94382" lon="-7.84577">
        <ele>599.6</ele>
        <time>2016-07-17T05:02:27Z</time>
      </trkpt>
      <trkpt lat="42.94382" lon="-7.8459">
        <ele>599.6</ele>
        <time>2016-07-17T05:02:39Z</time>
      </trkpt>
      <trkpt lat="42.94382" lon="-7.84603">
        <ele>599.5</ele>
        <time>2016-07-17T05:02:48Z</time>
      </trkpt>
      <trkpt lat="42.94386" lon="-7.84615">
        <ele>599.4</ele>
        <time>2016-07-17T05:02:55Z</time>
      </trkpt>
      <trkpt lat="42.94386" lon="-7.84627">
        <ele>599.5</ele>
        <time>2016-07-17T05:03:02Z</time>
      </trkpt>
      <trkpt lat="42.94383" lon="-7.8464">
        <ele>599.5</ele>
        <time>2016-07-17T05:03:11Z</time>
      </trkpt>
      <trkpt lat="42.94378" lon="-7.84652">
        <ele>599.6</ele>
        <time>2016-07-17T05:03:20Z</time>
      </trkpt>
      <trkpt lat="42.94375" lon="-7.84664">
        <ele>599.7</ele>
        <time>2016-07-17T05:03:30Z</time>
      </trkpt>
      <trkpt lat="42.94371" lon="-7.84677">
        <ele>600.1</ele>
        <time>2016-07-17T05:03:40Z</time>
      </trkpt>
      <trkpt lat="42.94371" lon="-7.8469">
        <ele>600.8</ele>
        <time>2016-07-17T05:03:48Z</time>
      </trkpt>
      <trkpt lat="42.94372" lon="-7.84703">
        <ele>600.4</ele>
        <time>2016-07-17T05:03:56Z</time>
      </trkpt>
      <trkpt lat="42.94373" lon="-7.84716">
        <ele>600.5</ele>
        <time>2016-07-17T05:04:04Z</time>
      </trkpt>
      <trkpt lat="42.94371" lon="-7.84729">
        <ele>600.5</ele>
        <time>2016-07-17T05:04:11Z</time>
      </trkpt>
      <trkpt lat="42.94371" lon="-7.84742">
        <ele>600.3</ele>
        <time>2016-07-17T05:04:18Z</time>
      </trkpt>
      <trkpt lat="42.94371" lon="-7.84754">
        <ele>599.6</ele>
        <time>2016-07-17T05:04:27Z</time>
      </trkpt>
      <trkpt lat="42.94372" lon="-7.84767">
        <ele>599.4</ele>
        <time>2016-07-17T05:04:36Z</time>
      </trkpt>
      <trkpt lat="42.94371" lon="-7.8478">
        <ele>599</ele>
        <time>2016-07-17T05:04:44Z</time>
      </trkpt>
      <trkpt lat="42.94369" lon="-7.84793">
        <ele>598.9</ele>
        <time>2016-07-17T05:04:52Z</time>
      </trkpt>
      <trkpt lat="42.94367" lon="-7.84806">
        <ele>598.4</ele>
        <time>2016-07-17T05:05:00Z</time>
      </trkpt>
      <trkpt lat="42.94364" lon="-7.84818">
        <ele>598.3</ele>
        <time>2016-07-17T05:05:09Z</time>
      </trkpt>
      <trkpt lat="42.94364" lon="-7.84831">
        <ele>598.2</ele>
        <time>2016-07-17T05:05:16Z</time>
      </trkpt>
      <trkpt lat="42.94366" lon="-7.84843">
        <ele>597.7</ele>
        <time>2016-07-17T05:05:23Z</time>
      </trkpt>
      <trkpt lat="42.94368" lon="-7.84856">
        <ele>597.7</ele>
        <time>2016-07-17T05:05:30Z</time>
      </trkpt>
      <trkpt lat="42.9437" lon="-7.8487">
        <ele>597.1</ele>
        <time>2016-07-17T05:05:38Z</time>
      </trkpt>
      <trkpt lat="42.94372" lon="-7.84882">
        <ele>596.8</ele>
        <time>2016-07-17T05:05:46Z</time>
      </trkpt>
      <trkpt lat="42.94371" lon="-7.84894">
        <ele>596.8</ele>
        <time>2016-07-17T05:05:54Z</time>
      </trkpt>
      <trkpt lat="42.94369" lon="-7.84907">
        <ele>596.9</ele>
        <time>2016-07-17T05:06:03Z</time>
      </trkpt>
      <trkpt lat="42.94365" lon="-7.84919">
        <ele>597.6</ele>
        <time>2016-07-17T05:06:13Z</time>
      </trkpt>
      <trkpt lat="42.94361" lon="-7.84931">
        <ele>597.4</ele>
        <time>2016-07-17T05:06:23Z</time>
      </trkpt>
      <trkpt lat="42.94359" lon="-7.84943">
        <ele>597.5</ele>
        <time>2016-07-17T05:06:34Z</time>
      </trkpt>
      <trkpt lat="42.94356" lon="-7.84956">
        <ele>597.4</ele>
        <time>2016-07-17T05:06:44Z</time>
      </trkpt>
      <trkpt lat="42.94351" lon="-7.84967">
        <ele>597.2</ele>
        <time>2016-07-17T05:06:53Z</time>
      </trkpt>
      <trkpt lat="42.94345" lon="-7.84976">
        <ele>597.6</ele>
        <time>2016-07-17T05:07:01Z</time>
      </trkpt>
      <trkpt lat="42.94337" lon="-7.84982">
        <ele>597.2</ele>
        <time>2016-07-17T05:07:10Z</time>
      </trkpt>
      <trkpt lat="42.94329" lon="-7.84989">
        <ele>597.1</ele>
        <time>2016-07-17T05:07:23Z</time>
      </trkpt>
      <trkpt lat="42.9432" lon="-7.84994">
        <ele>596.9</ele>
        <time>2016-07-17T05:07:32Z</time>
      </trkpt>
      <trkpt lat="42.94313" lon="-7.85002">
        <ele>596.6</ele>
        <time>2016-07-17T05:07:42Z</time>
      </trkpt>
      <trkpt lat="42.94307" lon="-7.85011">
        <ele>596.4</ele>
        <time>2016-07-17T05:07:52Z</time>
      </trkpt>
      <trkpt lat="42.94305" lon="-7.85023">
        <ele>595.9</ele>
        <time>2016-07-17T05:08:02Z</time>
      </trkpt>
      <trkpt lat="42.94301" lon="-7.85036">
        <ele>595.3</ele>
        <time>2016-07-17T05:08:12Z</time>
      </trkpt>
      <trkpt lat="42.94295" lon="-7.85046">
        <ele>595.2</ele>
        <time>2016-07-17T05:08:20Z</time>
      </trkpt>
      <trkpt lat="42.94293" lon="-7.85059">
        <ele>595.2</ele>
        <time>2016-07-17T05:08:28Z</time>
      </trkpt>
      <trkpt lat="42.9429" lon="-7.85071">
        <ele>594.2</ele>
        <time>2016-07-17T05:08:36Z</time>
      </trkpt>
      <trkpt lat="42.94293" lon="-7.85083">
        <ele>593.9</ele>
        <time>2016-07-17T05:08:46Z</time>
      </trkpt>
      <trkpt lat="42.94298" lon="-7.85094">
        <ele>593.7</ele>
        <time>2016-07-17T05:08:54Z</time>
      </trkpt>
      <trkpt lat="42.94301" lon="-7.85106">
        <ele>593.1</ele>
        <time>2016-07-17T05:09:01Z</time>
      </trkpt>
      <trkpt lat="42.94299" lon="-7.85119">
        <ele>591.9</ele>
        <time>2016-07-17T05:09:15Z</time>
      </trkpt>
      <trkpt lat="42.94294" lon="-7.8513">
        <ele>591</ele>
        <time>2016-07-17T05:09:28Z</time>
      </trkpt>
      <trkpt lat="42.9429" lon="-7.85142">
        <ele>590.2</ele>
        <time>2016-07-17T05:09:37Z</time>
      </trkpt>
      <trkpt lat="42.94285" lon="-7.85154">
        <ele>589.6</ele>
        <time>2016-07-17T05:09:47Z</time>
      </trkpt>
      <trkpt lat="42.94279" lon="-7.85165">
        <ele>588.7</ele>
        <time>2016-07-17T05:09:57Z</time>
      </trkpt>
      <trkpt lat="42.94272" lon="-7.85176">
        <ele>587.8</ele>
        <time>2016-07-17T05:10:06Z</time>
      </trkpt>
      <trkpt lat="42.94267" lon="-7.85185">
        <ele>586.8</ele>
        <time>2016-07-17T05:10:14Z</time>
      </trkpt>
      <trkpt lat="42.9426" lon="-7.85195">
        <ele>585.9</ele>
        <time>2016-07-17T05:10:23Z</time>
      </trkpt>
      <trkpt lat="42.94252" lon="-7.85204">
        <ele>585.3</ele>
        <time>2016-07-17T05:10:30Z</time>
      </trkpt>
      <trkpt lat="42.94245" lon="-7.85212">
        <ele>584.6</ele>
        <time>2016-07-17T05:10:37Z</time>
      </trkpt>
      <trkpt lat="42.94238" lon="-7.85223">
        <ele>584.1</ele>
        <time>2016-07-17T05:10:44Z</time>
      </trkpt>
      <trkpt lat="42.94231" lon="-7.85231">
        <ele>583.6</ele>
        <time>2016-07-17T05:10:51Z</time>
      </trkpt>
      <trkpt lat="42.94225" lon="-7.8524">
        <ele>582.7</ele>
        <time>2016-07-17T05:10:58Z</time>
      </trkpt>
      <trkpt lat="42.94219" lon="-7.85251">
        <ele>582.1</ele>
        <time>2016-07-17T05:11:05Z</time>
      </trkpt>
      <trkpt lat="42.94213" lon="-7.85262">
        <ele>581.4</ele>
        <time>2016-07-17T05:11:12Z</time>
      </trkpt>
      <trkpt lat="42.94208" lon="-7.85273">
        <ele>580.8</ele>
        <time>2016-07-17T05:11:19Z</time>
      </trkpt>
      <trkpt lat="42.94202" lon="-7.85284">
        <ele>580.1</ele>
        <time>2016-07-17T05:11:26Z</time>
      </trkpt>
      <trkpt lat="42.94198" lon="-7.85295">
        <ele>579.2</ele>
        <time>2016-07-17T05:11:36Z</time>
      </trkpt>
      <trkpt lat="42.94194" lon="-7.85306">
        <ele>578.2</ele>
        <time>2016-07-17T05:11:46Z</time>
      </trkpt>
      <trkpt lat="42.94188" lon="-7.85316">
        <ele>576.9</ele>
        <time>2016-07-17T05:11:56Z</time>
      </trkpt>
      <trkpt lat="42.94187" lon="-7.85329">
        <ele>573.8</ele>
        <time>2016-07-17T05:12:18Z</time>
      </trkpt>
      <trkpt lat="42.94184" lon="-7.8534">
        <ele>573.3</ele>
        <time>2016-07-17T05:12:43Z</time>
      </trkpt>
      <trkpt lat="42.94178" lon="-7.85352">
        <ele>573</ele>
        <time>2016-07-17T05:12:51Z</time>
      </trkpt>
      <trkpt lat="42.94175" lon="-7.85364">
        <ele>572.6</ele>
        <time>2016-07-17T05:12:57Z</time>
      </trkpt>
      <trkpt lat="42.94173" lon="-7.85376">
        <ele>572.2</ele>
        <time>2016-07-17T05:13:02Z</time>
      </trkpt>
      <trkpt lat="42.9417" lon="-7.85389">
        <ele>569.9</ele>
        <time>2016-07-17T05:13:11Z</time>
      </trkpt>
      <trkpt lat="42.94172" lon="-7.85403">
        <ele>567.8</ele>
        <time>2016-07-17T05:13:19Z</time>
      </trkpt>
      <trkpt lat="42.94174" lon="-7.85415">
        <ele>565.5</ele>
        <time>2016-07-17T05:13:36Z</time>
      </trkpt>
      <trkpt lat="42.94174" lon="-7.85428">
        <ele>564.3</ele>
        <time>2016-07-17T05:13:56Z</time>
      </trkpt>
      <trkpt lat="42.94178" lon="-7.8544">
        <ele>563.2</ele>
        <time>2016-07-17T05:14:17Z</time>
      </trkpt>
      <trkpt lat="42.94172" lon="-7.8545">
        <ele>562.5</ele>
        <time>2016-07-17T05:16:03Z</time>
      </trkpt>
      <trkpt lat="42.94165" lon="-7.85457">
        <ele>562.3</ele>
        <time>2016-07-17T05:16:13Z</time>
      </trkpt>
      <trkpt lat="42.94156" lon="-7.85461">
        <ele>562.6</ele>
        <time>2016-07-17T05:16:22Z</time>
      </trkpt>
      <trkpt lat="42.94147" lon="-7.85466">
        <ele>563.2</ele>
        <time>2016-07-17T05:16:31Z</time>
      </trkpt>
      <trkpt lat="42.94138" lon="-7.85471">
        <ele>563.4</ele>
        <time>2016-07-17T05:16:41Z</time>
      </trkpt>
      <trkpt lat="42.94129" lon="-7.85476">
        <ele>563.5</ele>
        <time>2016-07-17T05:16:51Z</time>
      </trkpt>
      <trkpt lat="42.94121" lon="-7.85483">
        <ele>564.2</ele>
        <time>2016-07-17T05:17:00Z</time>
      </trkpt>
      <trkpt lat="42.94114" lon="-7.85491">
        <ele>564.6</ele>
        <time>2016-07-17T05:17:08Z</time>
      </trkpt>
      <trkpt lat="42.9411" lon="-7.85502">
        <ele>564.8</ele>
        <time>2016-07-17T05:17:16Z</time>
      </trkpt>
      <trkpt lat="42.94107" lon="-7.85515">
        <ele>565</ele>
        <time>2016-07-17T05:17:24Z</time>
      </trkpt>
      <trkpt lat="42.94102" lon="-7.85526">
        <ele>565</ele>
        <time>2016-07-17T05:17:32Z</time>
      </trkpt>
      <trkpt lat="42.94098" lon="-7.85538">
        <ele>565.1</ele>
        <time>2016-07-17T05:17:40Z</time>
      </trkpt>
      <trkpt lat="42.94097" lon="-7.85551">
        <ele>565.2</ele>
        <time>2016-07-17T05:17:49Z</time>
      </trkpt>
      <trkpt lat="42.94097" lon="-7.85564">
        <ele>565.5</ele>
        <time>2016-07-17T05:17:57Z</time>
      </trkpt>
      <trkpt lat="42.941" lon="-7.85577">
        <ele>565.7</ele>
        <time>2016-07-17T05:18:05Z</time>
      </trkpt>
      <trkpt lat="42.94103" lon="-7.85589">
        <ele>565.9</ele>
        <time>2016-07-17T05:18:13Z</time>
      </trkpt>
      <trkpt lat="42.94108" lon="-7.85601">
        <ele>565.8</ele>
        <time>2016-07-17T05:18:21Z</time>
      </trkpt>
      <trkpt lat="42.94111" lon="-7.85613">
        <ele>565.6</ele>
        <time>2016-07-17T05:18:29Z</time>
      </trkpt>
      <trkpt lat="42.94115" lon="-7.85626">
        <ele>565.2</ele>
        <time>2016-07-17T05:18:39Z</time>
      </trkpt>
      <trkpt lat="42.9412" lon="-7.85638">
        <ele>565.3</ele>
        <time>2016-07-17T05:18:47Z</time>
      </trkpt>
      <trkpt lat="42.94124" lon="-7.85649">
        <ele>565.7</ele>
        <time>2016-07-17T05:18:55Z</time>
      </trkpt>
      <trkpt lat="42.94129" lon="-7.8566">
        <ele>566</ele>
        <time>2016-07-17T05:19:05Z</time>
      </trkpt>
      <trkpt lat="42.94132" lon="-7.85672">
        <ele>565.8</ele>
        <time>2016-07-17T05:19:14Z</time>
      </trkpt>
      <trkpt lat="42.94136" lon="-7.85683">
        <ele>565.7</ele>
        <time>2016-07-17T05:19:23Z</time>
      </trkpt>
      <trkpt lat="42.9414" lon="-7.85695">
        <ele>565.7</ele>
        <time>2016-07-17T05:19:33Z</time>
      </trkpt>
      <trkpt lat="42.94142" lon="-7.85708">
        <ele>566</ele>
        <time>2016-07-17T05:19:42Z</time>
      </trkpt>
      <trkpt lat="42.94144" lon="-7.8572">
        <ele>566.1</ele>
        <time>2016-07-17T05:19:50Z</time>
      </trkpt>
      <trkpt lat="42.94146" lon="-7.85732">
        <ele>566.4</ele>
        <time>2016-07-17T05:19:58Z</time>
      </trkpt>
      <trkpt lat="42.9415" lon="-7.85745">
        <ele>566.4</ele>
        <time>2016-07-17T05:20:07Z</time>
      </trkpt>
      <trkpt lat="42.94153" lon="-7.85758">
        <ele>566.6</ele>
        <time>2016-07-17T05:20:16Z</time>
      </trkpt>
      <trkpt lat="42.94156" lon="-7.85771">
        <ele>566.9</ele>
        <time>2016-07-17T05:20:25Z</time>
      </trkpt>
      <trkpt lat="42.94158" lon="-7.85783">
        <ele>567</ele>
        <time>2016-07-17T05:20:33Z</time>
      </trkpt>
      <trkpt lat="42.94161" lon="-7.85796">
        <ele>567</ele>
        <time>2016-07-17T05:20:42Z</time>
      </trkpt>
      <trkpt lat="42.94163" lon="-7.85808">
        <ele>567.1</ele>
        <time>2016-07-17T05:20:50Z</time>
      </trkpt>
      <trkpt lat="42.94165" lon="-7.85822">
        <ele>567.6</ele>
        <time>2016-07-17T05:20:59Z</time>
      </trkpt>
      <trkpt lat="42.94166" lon="-7.85835">
        <ele>567.8</ele>
        <time>2016-07-17T05:21:08Z</time>
      </trkpt>
      <trkpt lat="42.94169" lon="-7.85848">
        <ele>568.1</ele>
        <time>2016-07-17T05:21:16Z</time>
      </trkpt>
      <trkpt lat="42.94171" lon="-7.85861">
        <ele>568.3</ele>
        <time>2016-07-17T05:21:26Z</time>
      </trkpt>
      <trkpt lat="42.94168" lon="-7.85873">
        <ele>568.6</ele>
        <time>2016-07-17T05:21:35Z</time>
      </trkpt>
      <trkpt lat="42.94168" lon="-7.85886">
        <ele>569.5</ele>
        <time>2016-07-17T05:21:43Z</time>
      </trkpt>
      <trkpt lat="42.94169" lon="-7.85899">
        <ele>570.5</ele>
        <time>2016-07-17T05:21:52Z</time>
      </trkpt>
      <trkpt lat="42.94167" lon="-7.85912">
        <ele>571</ele>
        <time>2016-07-17T05:22:01Z</time>
      </trkpt>
      <trkpt lat="42.94166" lon="-7.85925">
        <ele>571.1</ele>
        <time>2016-07-17T05:22:10Z</time>
      </trkpt>
      <trkpt lat="42.94169" lon="-7.85938">
        <ele>571.1</ele>
        <time>2016-07-17T05:22:19Z</time>
      </trkpt>
      <trkpt lat="42.9417" lon="-7.8595">
        <ele>571.3</ele>
        <time>2016-07-17T05:22:26Z</time>
      </trkpt>
      <trkpt lat="42.94174" lon="-7.85962">
        <ele>571.7</ele>
        <time>2016-07-17T05:22:34Z</time>
      </trkpt>
      <trkpt lat="42.94177" lon="-7.85974">
        <ele>572</ele>
        <time>2016-07-17T05:22:42Z</time>
      </trkpt>
      <trkpt lat="42.94181" lon="-7.85987">
        <ele>572.2</ele>
        <time>2016-07-17T05:22:50Z</time>
      </trkpt>
      <trkpt lat="42.94184" lon="-7.86">
        <ele>572.4</ele>
        <time>2016-07-17T05:22:58Z</time>
      </trkpt>
      <trkpt lat="42.94185" lon="-7.86013">
        <ele>572.5</ele>
        <time>2016-07-17T05:23:07Z</time>
      </trkpt>
      <trkpt lat="42.94186" lon="-7.86026">
        <ele>572.6</ele>
        <time>2016-07-17T05:23:16Z</time>
      </trkpt>
      <trkpt lat="42.9419" lon="-7.86037">
        <ele>571.8</ele>
        <time>2016-07-17T05:23:54Z</time>
      </trkpt>
      <trkpt lat="42.94189" lon="-7.8605">
        <ele>572.7</ele>
        <time>2016-07-17T05:24:01Z</time>
      </trkpt>
      <trkpt lat="42.94187" lon="-7.86062">
        <ele>573</ele>
        <time>2016-07-17T05:24:10Z</time>
      </trkpt>
      <trkpt lat="42.94185" lon="-7.86074">
        <ele>573.7</ele>
        <time>2016-07-17T05:24:24Z</time>
      </trkpt>
      <trkpt lat="42.9418" lon="-7.86085">
        <ele>574.4</ele>
        <time>2016-07-17T05:24:33Z</time>
      </trkpt>
      <trkpt lat="42.94174" lon="-7.86095">
        <ele>574.3</ele>
        <time>2016-07-17T05:24:42Z</time>
      </trkpt>
      <trkpt lat="42.94168" lon="-7.86106">
        <ele>573.9</ele>
        <time>2016-07-17T05:24:51Z</time>
      </trkpt>
      <trkpt lat="42.94164" lon="-7.86117">
        <ele>573.4</ele>
        <time>2016-07-17T05:25:01Z</time>
      </trkpt>
      <trkpt lat="42.94157" lon="-7.86127">
        <ele>572.8</ele>
        <time>2016-07-17T05:25:10Z</time>
      </trkpt>
      <trkpt lat="42.94151" lon="-7.86135">
        <ele>571.6</ele>
        <time>2016-07-17T05:25:20Z</time>
      </trkpt>
      <trkpt lat="42.94147" lon="-7.86147">
        <ele>570.8</ele>
        <time>2016-07-17T05:25:30Z</time>
      </trkpt>
      <trkpt lat="42.94144" lon="-7.8616">
        <ele>569.7</ele>
        <time>2016-07-17T05:25:39Z</time>
      </trkpt>
      <trkpt lat="42.94141" lon="-7.86172">
        <ele>568.9</ele>
        <time>2016-07-17T05:25:48Z</time>
      </trkpt>
      <trkpt lat="42.9414" lon="-7.86185">
        <ele>568.2</ele>
        <time>2016-07-17T05:25:56Z</time>
      </trkpt>
      <trkpt lat="42.94137" lon="-7.86197">
        <ele>567.7</ele>
        <time>2016-07-17T05:26:05Z</time>
      </trkpt>
      <trkpt lat="42.94135" lon="-7.8621">
        <ele>566.6</ele>
        <time>2016-07-17T05:26:13Z</time>
      </trkpt>
      <trkpt lat="42.94133" lon="-7.86223">
        <ele>565.8</ele>
        <time>2016-07-17T05:26:21Z</time>
      </trkpt>
      <trkpt lat="42.94131" lon="-7.86236">
        <ele>565.5</ele>
        <time>2016-07-17T05:26:29Z</time>
      </trkpt>
      <trkpt lat="42.94131" lon="-7.86249">
        <ele>565.2</ele>
        <time>2016-07-17T05:26:37Z</time>
      </trkpt>
      <trkpt lat="42.94134" lon="-7.86261">
        <ele>565.1</ele>
        <time>2016-07-17T05:26:45Z</time>
      </trkpt>
      <trkpt lat="42.94135" lon="-7.86275">
        <ele>564.8</ele>
        <time>2016-07-17T05:26:53Z</time>
      </trkpt>
      <trkpt lat="42.94135" lon="-7.86289">
        <ele>564.7</ele>
        <time>2016-07-17T05:27:02Z</time>
      </trkpt>
      <trkpt lat="42.94136" lon="-7.86301">
        <ele>564.3</ele>
        <time>2016-07-17T05:27:11Z</time>
      </trkpt>
      <trkpt lat="42.94136" lon="-7.86315">
        <ele>560.9</ele>
        <time>2016-07-17T05:27:19Z</time>
      </trkpt>
      <trkpt lat="42.94137" lon="-7.86328">
        <ele>562</ele>
        <time>2016-07-17T05:27:27Z</time>
      </trkpt>
      <trkpt lat="42.9414" lon="-7.8634">
        <ele>564.2</ele>
        <time>2016-07-17T05:27:35Z</time>
      </trkpt>
      <trkpt lat="42.94142" lon="-7.86354">
        <ele>564.9</ele>
        <time>2016-07-17T05:27:43Z</time>
      </trkpt>
      <trkpt lat="42.94144" lon="-7.86367">
        <ele>564.6</ele>
        <time>2016-07-17T05:27:53Z</time>
      </trkpt>
      <trkpt lat="42.94145" lon="-7.8638">
        <ele>564.4</ele>
        <time>2016-07-17T05:28:03Z</time>
      </trkpt>
      <trkpt lat="42.94146" lon="-7.86393">
        <ele>564.5</ele>
        <time>2016-07-17T05:28:13Z</time>
      </trkpt>
      <trkpt lat="42.94147" lon="-7.86406">
        <ele>564.1</ele>
        <time>2016-07-17T05:28:24Z</time>
      </trkpt>
      <trkpt lat="42.94147" lon="-7.86419">
        <ele>563.2</ele>
        <time>2016-07-17T05:28:34Z</time>
      </trkpt>
      <trkpt lat="42.94148" lon="-7.86432">
        <ele>562.8</ele>
        <time>2016-07-17T05:28:43Z</time>
      </trkpt>
      <trkpt lat="42.94151" lon="-7.86445">
        <ele>562.3</ele>
        <time>2016-07-17T05:28:53Z</time>
      </trkpt>
      <trkpt lat="42.94153" lon="-7.86457">
        <ele>561.8</ele>
        <time>2016-07-17T05:29:01Z</time>
      </trkpt>
      <trkpt lat="42.94153" lon="-7.8647">
        <ele>561.4</ele>
        <time>2016-07-17T05:29:09Z</time>
      </trkpt>
      <trkpt lat="42.94154" lon="-7.86483">
        <ele>561.1</ele>
        <time>2016-07-17T05:29:17Z</time>
      </trkpt>
      <trkpt lat="42.94153" lon="-7.86496">
        <ele>560.9</ele>
        <time>2016-07-17T05:29:25Z</time>
      </trkpt>
      <trkpt lat="42.94153" lon="-7.86508">
        <ele>560.5</ele>
        <time>2016-07-17T05:29:33Z</time>
      </trkpt>
      <trkpt lat="42.94153" lon="-7.86521">
        <ele>560.5</ele>
        <time>2016-07-17T05:29:42Z</time>
      </trkpt>
      <trkpt lat="42.94152" lon="-7.86534">
        <ele>560.4</ele>
        <time>2016-07-17T05:29:51Z</time>
      </trkpt>
      <trkpt lat="42.94151" lon="-7.86547">
        <ele>560.4</ele>
        <time>2016-07-17T05:30:01Z</time>
      </trkpt>
      <trkpt lat="42.94154" lon="-7.86559">
        <ele>559.9</ele>
        <time>2016-07-17T05:30:09Z</time>
      </trkpt>
      <trkpt lat="42.94156" lon="-7.86571">
        <ele>559.5</ele>
        <time>2016-07-17T05:30:17Z</time>
      </trkpt>
      <trkpt lat="42.94159" lon="-7.86583">
        <ele>559.2</ele>
        <time>2016-07-17T05:30:25Z</time>
      </trkpt>
      <trkpt lat="42.94164" lon="-7.86595">
        <ele>558.8</ele>
        <time>2016-07-17T05:30:34Z</time>
      </trkpt>
      <trkpt lat="42.94168" lon="-7.86607">
        <ele>557.9</ele>
        <time>2016-07-17T05:30:43Z</time>
      </trkpt>
      <trkpt lat="42.94174" lon="-7.86618">
        <ele>556.9</ele>
        <time>2016-07-17T05:30:52Z</time>
      </trkpt>
      <trkpt lat="42.94179" lon="-7.86629">
        <ele>556.4</ele>
        <time>2016-07-17T05:31:00Z</time>
      </trkpt>
      <trkpt lat="42.9418" lon="-7.86642">
        <ele>556</ele>
        <time>2016-07-17T05:31:11Z</time>
      </trkpt>
      <trkpt lat="42.94184" lon="-7.86653">
        <ele>555.4</ele>
        <time>2016-07-17T05:31:18Z</time>
      </trkpt>
      <trkpt lat="42.94187" lon="-7.86666">
        <ele>554.6</ele>
        <time>2016-07-17T05:31:29Z</time>
      </trkpt>
      <trkpt lat="42.94192" lon="-7.86677">
        <ele>553.1</ele>
        <time>2016-07-17T05:31:39Z</time>
      </trkpt>
      <trkpt lat="42.94197" lon="-7.86687">
        <ele>551.8</ele>
        <time>2016-07-17T05:31:49Z</time>
      </trkpt>
      <trkpt lat="42.94203" lon="-7.86697">
        <ele>549.8</ele>
        <time>2016-07-17T05:31:59Z</time>
      </trkpt>
      <trkpt lat="42.94208" lon="-7.86708">
        <ele>548.1</ele>
        <time>2016-07-17T05:32:08Z</time>
      </trkpt>
      <trkpt lat="42.94212" lon="-7.8672">
        <ele>546.7</ele>
        <time>2016-07-17T05:32:17Z</time>
      </trkpt>
      <trkpt lat="42.94213" lon="-7.86733">
        <ele>545.5</ele>
        <time>2016-07-17T05:32:27Z</time>
      </trkpt>
      <trkpt lat="42.94213" lon="-7.86746">
        <ele>543.8</ele>
        <time>2016-07-17T05:32:37Z</time>
      </trkpt>
      <trkpt lat="42.94211" lon="-7.86759">
        <ele>542.5</ele>
        <time>2016-07-17T05:32:46Z</time>
      </trkpt>
      <trkpt lat="42.9421" lon="-7.86771">
        <ele>540.5</ele>
        <time>2016-07-17T05:32:57Z</time>
      </trkpt>
      <trkpt lat="42.94206" lon="-7.86783">
        <ele>539.2</ele>
        <time>2016-07-17T05:33:06Z</time>
      </trkpt>
      <trkpt lat="42.942" lon="-7.86793">
        <ele>538.1</ele>
        <time>2016-07-17T05:33:15Z</time>
      </trkpt>
      <trkpt lat="42.94195" lon="-7.86805">
        <ele>536.9</ele>
        <time>2016-07-17T05:33:24Z</time>
      </trkpt>
      <trkpt lat="42.94188" lon="-7.86815">
        <ele>536.2</ele>
        <time>2016-07-17T05:33:32Z</time>
      </trkpt>
      <trkpt lat="42.94183" lon="-7.86825">
        <ele>535.1</ele>
        <time>2016-07-17T05:33:41Z</time>
      </trkpt>
      <trkpt lat="42.94176" lon="-7.86834">
        <ele>534.1</ele>
        <time>2016-07-17T05:33:50Z</time>
      </trkpt>
      <trkpt lat="42.94171" lon="-7.86845">
        <ele>533.5</ele>
        <time>2016-07-17T05:33:58Z</time>
      </trkpt>
      <trkpt lat="42.94169" lon="-7.86857">
        <ele>532.8</ele>
        <time>2016-07-17T05:34:09Z</time>
      </trkpt>
      <trkpt lat="42.94172" lon="-7.86869">
        <ele>532.4</ele>
        <time>2016-07-17T05:34:19Z</time>
      </trkpt>
      <trkpt lat="42.94175" lon="-7.86881">
        <ele>532</ele>
        <time>2016-07-17T05:34:29Z</time>
      </trkpt>
      <trkpt lat="42.9418" lon="-7.86893">
        <ele>531.8</ele>
        <time>2016-07-17T05:34:39Z</time>
      </trkpt>
      <trkpt lat="42.94184" lon="-7.86904">
        <ele>531.7</ele>
        <time>2016-07-17T05:34:46Z</time>
      </trkpt>
      <trkpt lat="42.9419" lon="-7.86916">
        <ele>531.5</ele>
        <time>2016-07-17T05:34:53Z</time>
      </trkpt>
      <trkpt lat="42.94195" lon="-7.86927">
        <ele>531.3</ele>
        <time>2016-07-17T05:35:00Z</time>
      </trkpt>
      <trkpt lat="42.94199" lon="-7.86938">
        <ele>531.1</ele>
        <time>2016-07-17T05:35:08Z</time>
      </trkpt>
      <trkpt lat="42.94202" lon="-7.86951">
        <ele>531</ele>
        <time>2016-07-17T05:35:15Z</time>
      </trkpt>
      <trkpt lat="42.94203" lon="-7.86964">
        <ele>531</ele>
        <time>2016-07-17T05:35:23Z</time>
      </trkpt>
      <trkpt lat="42.94205" lon="-7.86977">
        <ele>530.6</ele>
        <time>2016-07-17T05:35:32Z</time>
      </trkpt>
      <trkpt lat="42.94207" lon="-7.86991">
        <ele>530.6</ele>
        <time>2016-07-17T05:35:40Z</time>
      </trkpt>
      <trkpt lat="42.94209" lon="-7.87004">
        <ele>530.7</ele>
        <time>2016-07-17T05:35:48Z</time>
      </trkpt>
      <trkpt lat="42.94209" lon="-7.87017">
        <ele>530.8</ele>
        <time>2016-07-17T05:35:55Z</time>
      </trkpt>
      <trkpt lat="42.94208" lon="-7.8703">
        <ele>531.3</ele>
        <time>2016-07-17T05:36:03Z</time>
      </trkpt>
      <trkpt lat="42.94206" lon="-7.87043">
        <ele>531.5</ele>
        <time>2016-07-17T05:36:11Z</time>
      </trkpt>
      <trkpt lat="42.94203" lon="-7.87056">
        <ele>531.9</ele>
        <time>2016-07-17T05:36:21Z</time>
      </trkpt>
      <trkpt lat="42.94204" lon="-7.8707">
        <ele>532.3</ele>
        <time>2016-07-17T05:36:31Z</time>
      </trkpt>
      <trkpt lat="42.94204" lon="-7.87082">
        <ele>533</ele>
        <time>2016-07-17T05:36:41Z</time>
      </trkpt>
      <trkpt lat="42.94204" lon="-7.87095">
        <ele>533.6</ele>
        <time>2016-07-17T05:36:49Z</time>
      </trkpt>
      <trkpt lat="42.94204" lon="-7.87108">
        <ele>534.1</ele>
        <time>2016-07-17T05:36:58Z</time>
      </trkpt>
      <trkpt lat="42.94205" lon="-7.87122">
        <ele>534.5</ele>
        <time>2016-07-17T05:37:06Z</time>
      </trkpt>
      <trkpt lat="42.94205" lon="-7.87134">
        <ele>534.8</ele>
        <time>2016-07-17T05:37:13Z</time>
      </trkpt>
      <trkpt lat="42.94204" lon="-7.87147">
        <ele>535.4</ele>
        <time>2016-07-17T05:37:21Z</time>
      </trkpt>
      <trkpt lat="42.94205" lon="-7.87161">
        <ele>536.1</ele>
        <time>2016-07-17T05:37:30Z</time>
      </trkpt>
      <trkpt lat="42.94203" lon="-7.87173">
        <ele>536.6</ele>
        <time>2016-07-17T05:37:39Z</time>
      </trkpt>
      <trkpt lat="42.94201" lon="-7.87186">
        <ele>536.9</ele>
        <time>2016-07-17T05:37:49Z</time>
      </trkpt>
      <trkpt lat="42.94201" lon="-7.87199">
        <ele>537.5</ele>
        <time>2016-07-17T05:37:59Z</time>
      </trkpt>
      <trkpt lat="42.94204" lon="-7.87211">
        <ele>538.1</ele>
        <time>2016-07-17T05:38:09Z</time>
      </trkpt>
      <trkpt lat="42.94207" lon="-7.87224">
        <ele>538.3</ele>
        <time>2016-07-17T05:38:17Z</time>
      </trkpt>
      <trkpt lat="42.94211" lon="-7.87236">
        <ele>538.8</ele>
        <time>2016-07-17T05:38:26Z</time>
      </trkpt>
      <trkpt lat="42.94216" lon="-7.87248">
        <ele>539.4</ele>
        <time>2016-07-17T05:38:35Z</time>
      </trkpt>
      <trkpt lat="42.94219" lon="-7.8726">
        <ele>540</ele>
        <time>2016-07-17T05:38:44Z</time>
      </trkpt>
      <trkpt lat="42.94223" lon="-7.87272">
        <ele>541.1</ele>
        <time>2016-07-17T05:39:19Z</time>
      </trkpt>
      <trkpt lat="42.94229" lon="-7.87281">
        <ele>541.3</ele>
        <time>2016-07-17T05:39:27Z</time>
      </trkpt>
      <trkpt lat="42.94237" lon="-7.87287">
        <ele>541.4</ele>
        <time>2016-07-17T05:39:36Z</time>
      </trkpt>
      <trkpt lat="42.94246" lon="-7.87293">
        <ele>542.2</ele>
        <time>2016-07-17T05:39:45Z</time>
      </trkpt>
      <trkpt lat="42.94253" lon="-7.87302">
        <ele>543</ele>
        <time>2016-07-17T05:39:53Z</time>
      </trkpt>
      <trkpt lat="42.94259" lon="-7.87311">
        <ele>543.8</ele>
        <time>2016-07-17T05:40:00Z</time>
      </trkpt>
      <trkpt lat="42.94266" lon="-7.87321">
        <ele>544.6</ele>
        <time>2016-07-17T05:40:07Z</time>
      </trkpt>
      <trkpt lat="42.94272" lon="-7.87331">
        <ele>545.5</ele>
        <time>2016-07-17T05:40:15Z</time>
      </trkpt>
      <trkpt lat="42.94277" lon="-7.87342">
        <ele>546.2</ele>
        <time>2016-07-17T05:40:22Z</time>
      </trkpt>
      <trkpt lat="42.94282" lon="-7.87353">
        <ele>546.9</ele>
        <time>2016-07-17T05:40:31Z</time>
      </trkpt>
      <trkpt lat="42.94287" lon="-7.87365">
        <ele>547.3</ele>
        <time>2016-07-17T05:40:40Z</time>
      </trkpt>
      <trkpt lat="42.94291" lon="-7.87376">
        <ele>547.8</ele>
        <time>2016-07-17T05:40:50Z</time>
      </trkpt>
      <trkpt lat="42.9429" lon="-7.87389">
        <ele>549.6</ele>
        <time>2016-07-17T05:41:00Z</time>
      </trkpt>
      <trkpt lat="42.9429" lon="-7.87402">
        <ele>550.6</ele>
        <time>2016-07-17T05:41:10Z</time>
      </trkpt>
      <trkpt lat="42.94288" lon="-7.87415">
        <ele>551.2</ele>
        <time>2016-07-17T05:41:20Z</time>
      </trkpt>
      <trkpt lat="42.94284" lon="-7.87427">
        <ele>551.7</ele>
        <time>2016-07-17T05:41:29Z</time>
      </trkpt>
      <trkpt lat="42.94279" lon="-7.87437">
        <ele>552.9</ele>
        <time>2016-07-17T05:41:39Z</time>
      </trkpt>
      <trkpt lat="42.94276" lon="-7.8745">
        <ele>553.8</ele>
        <time>2016-07-17T05:41:47Z</time>
      </trkpt>
      <trkpt lat="42.94271" lon="-7.87461">
        <ele>554.4</ele>
        <time>2016-07-17T05:41:56Z</time>
      </trkpt>
      <trkpt lat="42.94267" lon="-7.87473">
        <ele>554.9</ele>
        <time>2016-07-17T05:42:04Z</time>
      </trkpt>
      <trkpt lat="42.94263" lon="-7.87484">
        <ele>555.4</ele>
        <time>2016-07-17T05:42:13Z</time>
      </trkpt>
      <trkpt lat="42.94261" lon="-7.87497">
        <ele>555.8</ele>
        <time>2016-07-17T05:42:23Z</time>
      </trkpt>
      <trkpt lat="42.9426" lon="-7.8751">
        <ele>556.5</ele>
        <time>2016-07-17T05:42:32Z</time>
      </trkpt>
      <trkpt lat="42.9426" lon="-7.87523">
        <ele>557</ele>
        <time>2016-07-17T05:42:41Z</time>
      </trkpt>
      <trkpt lat="42.94258" lon="-7.87536">
        <ele>557.2</ele>
        <time>2016-07-17T05:42:50Z</time>
      </trkpt>
      <trkpt lat="42.94255" lon="-7.87549">
        <ele>557.6</ele>
        <time>2016-07-17T05:42:58Z</time>
      </trkpt>
      <trkpt lat="42.94252" lon="-7.8756">
        <ele>558.3</ele>
        <time>2016-07-17T05:43:06Z</time>
      </trkpt>
      <trkpt lat="42.94251" lon="-7.87573">
        <ele>558.8</ele>
        <time>2016-07-17T05:43:15Z</time>
      </trkpt>
      <trkpt lat="42.9425" lon="-7.87585">
        <ele>559.1</ele>
        <time>2016-07-17T05:43:25Z</time>
      </trkpt>
      <trkpt lat="42.94249" lon="-7.87597">
        <ele>559.4</ele>
        <time>2016-07-17T05:43:33Z</time>
      </trkpt>
      <trkpt lat="42.94249" lon="-7.8761">
        <ele>560</ele>
        <time>2016-07-17T05:43:42Z</time>
      </trkpt>
      <trkpt lat="42.94248" lon="-7.87623">
        <ele>560.7</ele>
        <time>2016-07-17T05:43:52Z</time>
      </trkpt>
      <trkpt lat="42.94247" lon="-7.87636">
        <ele>561.5</ele>
        <time>2016-07-17T05:44:04Z</time>
      </trkpt>
      <trkpt lat="42.94247" lon="-7.87649">
        <ele>562.5</ele>
        <time>2016-07-17T05:44:15Z</time>
      </trkpt>
      <trkpt lat="42.94246" lon="-7.87662">
        <ele>563.5</ele>
        <time>2016-07-17T05:44:25Z</time>
      </trkpt>
      <trkpt lat="42.94245" lon="-7.87675">
        <ele>564.5</ele>
        <time>2016-07-17T05:44:37Z</time>
      </trkpt>
      <trkpt lat="42.94244" lon="-7.87689">
        <ele>566.1</ele>
        <time>2016-07-17T05:44:50Z</time>
      </trkpt>
      <trkpt lat="42.94243" lon="-7.87702">
        <ele>566.7</ele>
        <time>2016-07-17T05:44:57Z</time>
      </trkpt>
      <trkpt lat="42.9424" lon="-7.87715">
        <ele>567.2</ele>
        <time>2016-07-17T05:45:04Z</time>
      </trkpt>
      <trkpt lat="42.94238" lon="-7.87727">
        <ele>568</ele>
        <time>2016-07-17T05:45:17Z</time>
      </trkpt>
      <trkpt lat="42.94239" lon="-7.87739">
        <ele>568.5</ele>
        <time>2016-07-17T05:46:49Z</time>
      </trkpt>
      <trkpt lat="42.9424" lon="-7.87751">
        <ele>568.1</ele>
        <time>2016-07-17T05:46:59Z</time>
      </trkpt>
      <trkpt lat="42.9424" lon="-7.87764">
        <ele>568.6</ele>
        <time>2016-07-17T05:47:22Z</time>
      </trkpt>
      <trkpt lat="42.94239" lon="-7.87776">
        <ele>568.8</ele>
        <time>2016-07-17T05:47:36Z</time>
      </trkpt>
      <trkpt lat="42.94237" lon="-7.87789">
        <ele>568.8</ele>
        <time>2016-07-17T05:47:46Z</time>
      </trkpt>
      <trkpt lat="42.94236" lon="-7.87802">
        <ele>569</ele>
        <time>2016-07-17T05:47:55Z</time>
      </trkpt>
      <trkpt lat="42.94234" lon="-7.87815">
        <ele>569.6</ele>
        <time>2016-07-17T05:48:07Z</time>
      </trkpt>
      <trkpt lat="42.94232" lon="-7.87827">
        <ele>570.1</ele>
        <time>2016-07-17T05:48:26Z</time>
      </trkpt>
      <trkpt lat="42.9423" lon="-7.8784">
        <ele>570.4</ele>
        <time>2016-07-17T05:48:38Z</time>
      </trkpt>
      <trkpt lat="42.94227" lon="-7.87853">
        <ele>570.7</ele>
        <time>2016-07-17T05:48:49Z</time>
      </trkpt>
      <trkpt lat="42.94225" lon="-7.87865">
        <ele>570.8</ele>
        <time>2016-07-17T05:48:59Z</time>
      </trkpt>
      <trkpt lat="42.94225" lon="-7.87879">
        <ele>570.5</ele>
        <time>2016-07-17T05:49:08Z</time>
      </trkpt>
      <trkpt lat="42.94224" lon="-7.87891">
        <ele>570.4</ele>
        <time>2016-07-17T05:49:16Z</time>
      </trkpt>
      <trkpt lat="42.94223" lon="-7.87904">
        <ele>570.3</ele>
        <time>2016-07-17T05:49:24Z</time>
      </trkpt>
      <trkpt lat="42.94223" lon="-7.87916">
        <ele>569.7</ele>
        <time>2016-07-17T05:49:32Z</time>
      </trkpt>
      <trkpt lat="42.94222" lon="-7.87929">
        <ele>569.3</ele>
        <time>2016-07-17T05:49:41Z</time>
      </trkpt>
      <trkpt lat="42.94223" lon="-7.87942">
        <ele>569.3</ele>
        <time>2016-07-17T05:49:49Z</time>
      </trkpt>
      <trkpt lat="42.94224" lon="-7.87955">
        <ele>569.3</ele>
        <time>2016-07-17T05:49:57Z</time>
      </trkpt>
      <trkpt lat="42.94225" lon="-7.87968">
        <ele>569.3</ele>
        <time>2016-07-17T05:50:06Z</time>
      </trkpt>
      <trkpt lat="42.94225" lon="-7.8798">
        <ele>569.3</ele>
        <time>2016-07-17T05:50:15Z</time>
      </trkpt>
      <trkpt lat="42.94226" lon="-7.87993">
        <ele>569.6</ele>
        <time>2016-07-17T05:50:23Z</time>
      </trkpt>
      <trkpt lat="42.94226" lon="-7.88005">
        <ele>569.8</ele>
        <time>2016-07-17T05:50:31Z</time>
      </trkpt>
      <trkpt lat="42.94225" lon="-7.88018">
        <ele>569.7</ele>
        <time>2016-07-17T05:50:39Z</time>
      </trkpt>
      <trkpt lat="42.94225" lon="-7.8803">
        <ele>569.7</ele>
        <time>2016-07-17T05:50:48Z</time>
      </trkpt>
      <trkpt lat="42.94223" lon="-7.88043">
        <ele>570.1</ele>
        <time>2016-07-17T05:50:56Z</time>
      </trkpt>
      <trkpt lat="42.94224" lon="-7.88056">
        <ele>570.5</ele>
        <time>2016-07-17T05:51:05Z</time>
      </trkpt>
      <trkpt lat="42.94223" lon="-7.88069">
        <ele>570.7</ele>
        <time>2016-07-17T05:51:14Z</time>
      </trkpt>
      <trkpt lat="42.94222" lon="-7.88082">
        <ele>570.7</ele>
        <time>2016-07-17T05:51:24Z</time>
      </trkpt>
      <trkpt lat="42.94224" lon="-7.88094">
        <ele>571.2</ele>
        <time>2016-07-17T05:51:32Z</time>
      </trkpt>
      <trkpt lat="42.94226" lon="-7.88107">
        <ele>571.3</ele>
        <time>2016-07-17T05:51:42Z</time>
      </trkpt>
      <trkpt lat="42.94229" lon="-7.88119">
        <ele>571.6</ele>
        <time>2016-07-17T05:51:49Z</time>
      </trkpt>
      <trkpt lat="42.94233" lon="-7.88132">
        <ele>572.4</ele>
        <time>2016-07-17T05:51:58Z</time>
      </trkpt>
      <trkpt lat="42.94237" lon="-7.88144">
        <ele>572.9</ele>
        <time>2016-07-17T05:52:07Z</time>
      </trkpt>
      <trkpt lat="42.94239" lon="-7.88156">
        <ele>572.6</ele>
        <time>2016-07-17T05:52:15Z</time>
      </trkpt>
      <trkpt lat="42.9424" lon="-7.88169">
        <ele>572.8</ele>
        <time>2016-07-17T05:52:23Z</time>
      </trkpt>
      <trkpt lat="42.94242" lon="-7.88182">
        <ele>573.9</ele>
        <time>2016-07-17T05:52:32Z</time>
      </trkpt>
      <trkpt lat="42.94246" lon="-7.88193">
        <ele>574.3</ele>
        <time>2016-07-17T05:52:40Z</time>
      </trkpt>
      <trkpt lat="42.94252" lon="-7.88204">
        <ele>574.4</ele>
        <time>2016-07-17T05:52:49Z</time>
      </trkpt>
      <trkpt lat="42.94258" lon="-7.88216">
        <ele>574.5</ele>
        <time>2016-07-17T05:52:58Z</time>
      </trkpt>
      <trkpt lat="42.94259" lon="-7.88228">
        <ele>574.6</ele>
        <time>2016-07-17T05:53:07Z</time>
      </trkpt>
      <trkpt lat="42.9426" lon="-7.8824">
        <ele>575.1</ele>
        <time>2016-07-17T05:53:16Z</time>
      </trkpt>
      <trkpt lat="42.94262" lon="-7.88253">
        <ele>575.7</ele>
        <time>2016-07-17T05:53:26Z</time>
      </trkpt>
      <trkpt lat="42.94262" lon="-7.88265">
        <ele>576.1</ele>
        <time>2016-07-17T05:53:37Z</time>
      </trkpt>
      <trkpt lat="42.94261" lon="-7.88278">
        <ele>576.7</ele>
        <time>2016-07-17T05:53:46Z</time>
      </trkpt>
      <trkpt lat="42.9426" lon="-7.88291">
        <ele>577.3</ele>
        <time>2016-07-17T05:53:55Z</time>
      </trkpt>
      <trkpt lat="42.9426" lon="-7.88304">
        <ele>577.6</ele>
        <time>2016-07-17T05:54:04Z</time>
      </trkpt>
      <trkpt lat="42.94261" lon="-7.88317">
        <ele>577.9</ele>
        <time>2016-07-17T05:54:14Z</time>
      </trkpt>
      <trkpt lat="42.94258" lon="-7.88329">
        <ele>578.3</ele>
        <time>2016-07-17T05:54:22Z</time>
      </trkpt>
      <trkpt lat="42.94256" lon="-7.88342">
        <ele>578.8</ele>
        <time>2016-07-17T05:54:32Z</time>
      </trkpt>
      <trkpt lat="42.94252" lon="-7.88354">
        <ele>579.2</ele>
        <time>2016-07-17T05:54:41Z</time>
      </trkpt>
      <trkpt lat="42.94251" lon="-7.88366">
        <ele>579.6</ele>
        <time>2016-07-17T05:54:50Z</time>
      </trkpt>
      <trkpt lat="42.94246" lon="-7.88378">
        <ele>579.7</ele>
        <time>2016-07-17T05:55:00Z</time>
      </trkpt>
      <trkpt lat="42.94243" lon="-7.8839">
        <ele>579.7</ele>
        <time>2016-07-17T05:55:09Z</time>
      </trkpt>
      <trkpt lat="42.94239" lon="-7.88402">
        <ele>579.8</ele>
        <time>2016-07-17T05:55:17Z</time>
      </trkpt>
      <trkpt lat="42.94237" lon="-7.88414">
        <ele>579.4</ele>
        <time>2016-07-17T05:55:25Z</time>
      </trkpt>
      <trkpt lat="42.94239" lon="-7.88428">
        <ele>579.1</ele>
        <time>2016-07-17T05:55:34Z</time>
      </trkpt>
      <trkpt lat="42.94241" lon="-7.88441">
        <ele>578.4</ele>
        <time>2016-07-17T05:55:43Z</time>
      </trkpt>
      <trkpt lat="42.94246" lon="-7.88451">
        <ele>577.7</ele>
        <time>2016-07-17T05:55:52Z</time>
      </trkpt>
      <trkpt lat="42.94252" lon="-7.88461">
        <ele>576.8</ele>
        <time>2016-07-17T05:56:04Z</time>
      </trkpt>
      <trkpt lat="42.94259" lon="-7.8847">
        <ele>575.4</ele>
        <time>2016-07-17T05:56:13Z</time>
      </trkpt>
      <trkpt lat="42.94266" lon="-7.8848">
        <ele>574.2</ele>
        <time>2016-07-17T05:56:22Z</time>
      </trkpt>
      <trkpt lat="42.9427" lon="-7.88492">
        <ele>573.3</ele>
        <time>2016-07-17T05:56:32Z</time>
      </trkpt>
      <trkpt lat="42.94274" lon="-7.88504">
        <ele>572.8</ele>
        <time>2016-07-17T05:56:40Z</time>
      </trkpt>
      <trkpt lat="42.94277" lon="-7.88517">
        <ele>572.2</ele>
        <time>2016-07-17T05:56:47Z</time>
      </trkpt>
      <trkpt lat="42.94282" lon="-7.8853">
        <ele>571.3</ele>
        <time>2016-07-17T05:56:55Z</time>
      </trkpt>
      <trkpt lat="42.94286" lon="-7.88541">
        <ele>570.5</ele>
        <time>2016-07-17T05:57:02Z</time>
      </trkpt>
      <trkpt lat="42.94291" lon="-7.88552">
        <ele>569.7</ele>
        <time>2016-07-17T05:57:10Z</time>
      </trkpt>
      <trkpt lat="42.94296" lon="-7.88564">
        <ele>568.9</ele>
        <time>2016-07-17T05:57:19Z</time>
      </trkpt>
      <trkpt lat="42.94298" lon="-7.88576">
        <ele>568.4</ele>
        <time>2016-07-17T05:57:27Z</time>
      </trkpt>
      <trkpt lat="42.943" lon="-7.88589">
        <ele>567.9</ele>
        <time>2016-07-17T05:57:35Z</time>
      </trkpt>
      <trkpt lat="42.94303" lon="-7.886">
        <ele>567.4</ele>
        <time>2016-07-17T05:57:43Z</time>
      </trkpt>
      <trkpt lat="42.94306" lon="-7.88612">
        <ele>566.8</ele>
        <time>2016-07-17T05:57:52Z</time>
      </trkpt>
      <trkpt lat="42.94309" lon="-7.88624">
        <ele>566.3</ele>
        <time>2016-07-17T05:58:02Z</time>
      </trkpt>
      <trkpt lat="42.94314" lon="-7.88635">
        <ele>566.4</ele>
        <time>2016-07-17T05:58:14Z</time>
      </trkpt>
      <trkpt lat="42.94322" lon="-7.88643">
        <ele>566.6</ele>
        <time>2016-07-17T05:58:25Z</time>
      </trkpt>
      <trkpt lat="42.94331" lon="-7.88649">
        <ele>567.7</ele>
        <time>2016-07-17T05:58:35Z</time>
      </trkpt>
      <trkpt lat="42.9434" lon="-7.88656">
        <ele>568.5</ele>
        <time>2016-07-17T05:58:45Z</time>
      </trkpt>
      <trkpt lat="42.94346" lon="-7.88666">
        <ele>569.5</ele>
        <time>2016-07-17T05:58:55Z</time>
      </trkpt>
      <trkpt lat="42.94346" lon="-7.88679">
        <ele>570.8</ele>
        <time>2016-07-17T05:59:06Z</time>
      </trkpt>
      <trkpt lat="42.94342" lon="-7.88691">
        <ele>572</ele>
        <time>2016-07-17T05:59:19Z</time>
      </trkpt>
      <trkpt lat="42.9434" lon="-7.88704">
        <ele>572.9</ele>
        <time>2016-07-17T05:59:28Z</time>
      </trkpt>
      <trkpt lat="42.94337" lon="-7.88715">
        <ele>573.7</ele>
        <time>2016-07-17T05:59:37Z</time>
      </trkpt>
      <trkpt lat="42.94338" lon="-7.88729">
        <ele>575.3</ele>
        <time>2016-07-17T05:59:47Z</time>
      </trkpt>
      <trkpt lat="42.94341" lon="-7.88741">
        <ele>576.5</ele>
        <time>2016-07-17T05:59:56Z</time>
      </trkpt>
      <trkpt lat="42.94345" lon="-7.88753">
        <ele>577.7</ele>
        <time>2016-07-17T06:00:11Z</time>
      </trkpt>
      <trkpt lat="42.9435" lon="-7.88763">
        <ele>578</ele>
        <time>2016-07-17T06:00:20Z</time>
      </trkpt>
      <trkpt lat="42.94358" lon="-7.88771">
        <ele>578.4</ele>
        <time>2016-07-17T06:00:29Z</time>
      </trkpt>
      <trkpt lat="42.94362" lon="-7.88782">
        <ele>578.8</ele>
        <time>2016-07-17T06:00:38Z</time>
      </trkpt>
      <trkpt lat="42.94368" lon="-7.88794">
        <ele>579.1</ele>
        <time>2016-07-17T06:00:47Z</time>
      </trkpt>
      <trkpt lat="42.94372" lon="-7.88805">
        <ele>579.2</ele>
        <time>2016-07-17T06:00:55Z</time>
      </trkpt>
      <trkpt lat="42.94373" lon="-7.88819">
        <ele>579.5</ele>
        <time>2016-07-17T06:01:04Z</time>
      </trkpt>
      <trkpt lat="42.94372" lon="-7.88832">
        <ele>579.9</ele>
        <time>2016-07-17T06:01:14Z</time>
      </trkpt>
      <trkpt lat="42.94373" lon="-7.88845">
        <ele>580.4</ele>
        <time>2016-07-17T06:01:23Z</time>
      </trkpt>
      <trkpt lat="42.94372" lon="-7.88858">
        <ele>581.7</ele>
        <time>2016-07-17T06:01:34Z</time>
      </trkpt>
      <trkpt lat="42.94371" lon="-7.88871">
        <ele>582.2</ele>
        <time>2016-07-17T06:01:42Z</time>
      </trkpt>
      <trkpt lat="42.9437" lon="-7.88884">
        <ele>582.6</ele>
        <time>2016-07-17T06:01:51Z</time>
      </trkpt>
      <trkpt lat="42.94369" lon="-7.88897">
        <ele>582.8</ele>
        <time>2016-07-17T06:02:00Z</time>
      </trkpt>
      <trkpt lat="42.94367" lon="-7.8891">
        <ele>583.2</ele>
        <time>2016-07-17T06:02:09Z</time>
      </trkpt>
      <trkpt lat="42.94365" lon="-7.88922">
        <ele>583.7</ele>
        <time>2016-07-17T06:02:17Z</time>
      </trkpt>
      <trkpt lat="42.94362" lon="-7.88935">
        <ele>584.6</ele>
        <time>2016-07-17T06:02:28Z</time>
      </trkpt>
      <trkpt lat="42.94361" lon="-7.88948">
        <ele>585</ele>
        <time>2016-07-17T06:02:39Z</time>
      </trkpt>
      <trkpt lat="42.94362" lon="-7.88962">
        <ele>585.8</ele>
        <time>2016-07-17T06:02:48Z</time>
      </trkpt>
      <trkpt lat="42.9436" lon="-7.88974">
        <ele>585.9</ele>
        <time>2016-07-17T06:02:56Z</time>
      </trkpt>
      <trkpt lat="42.94356" lon="-7.88986">
        <ele>585.4</ele>
        <time>2016-07-17T06:03:06Z</time>
      </trkpt>
      <trkpt lat="42.94352" lon="-7.88998">
        <ele>585.2</ele>
        <time>2016-07-17T06:03:16Z</time>
      </trkpt>
      <trkpt lat="42.94347" lon="-7.89009">
        <ele>585</ele>
        <time>2016-07-17T06:03:26Z</time>
      </trkpt>
      <trkpt lat="42.94339" lon="-7.89018">
        <ele>585</ele>
        <time>2016-07-17T06:03:38Z</time>
      </trkpt>
      <trkpt lat="42.94331" lon="-7.89024">
        <ele>584.7</ele>
        <time>2016-07-17T06:03:48Z</time>
      </trkpt>
      <trkpt lat="42.94322" lon="-7.8903">
        <ele>584.5</ele>
        <time>2016-07-17T06:03:57Z</time>
      </trkpt>
      <trkpt lat="42.94315" lon="-7.89039">
        <ele>584.2</ele>
        <time>2016-07-17T06:04:06Z</time>
      </trkpt>
      <trkpt lat="42.94308" lon="-7.89047">
        <ele>583.8</ele>
        <time>2016-07-17T06:04:14Z</time>
      </trkpt>
      <trkpt lat="42.943" lon="-7.89052">
        <ele>583.3</ele>
        <time>2016-07-17T06:04:22Z</time>
      </trkpt>
      <trkpt lat="42.9429" lon="-7.89054">
        <ele>583.5</ele>
        <time>2016-07-17T06:04:33Z</time>
      </trkpt>
      <trkpt lat="42.94281" lon="-7.8905">
        <ele>584.4</ele>
        <time>2016-07-17T06:04:44Z</time>
      </trkpt>
      <trkpt lat="42.94271" lon="-7.89049">
        <ele>585.3</ele>
        <time>2016-07-17T06:04:53Z</time>
      </trkpt>
      <trkpt lat="42.94262" lon="-7.89055">
        <ele>586.5</ele>
        <time>2016-07-17T06:05:02Z</time>
      </trkpt>
      <trkpt lat="42.94254" lon="-7.89062">
        <ele>587.3</ele>
        <time>2016-07-17T06:05:11Z</time>
      </trkpt>
      <trkpt lat="42.94247" lon="-7.89071">
        <ele>588.4</ele>
        <time>2016-07-17T06:05:20Z</time>
      </trkpt>
      <trkpt lat="42.94243" lon="-7.89081">
        <ele>589.2</ele>
        <time>2016-07-17T06:05:28Z</time>
      </trkpt>
      <trkpt lat="42.94239" lon="-7.89093">
        <ele>589.9</ele>
        <time>2016-07-17T06:05:37Z</time>
      </trkpt>
      <trkpt lat="42.94237" lon="-7.89106">
        <ele>590.8</ele>
        <time>2016-07-17T06:05:46Z</time>
      </trkpt>
      <trkpt lat="42.94235" lon="-7.89119">
        <ele>591.9</ele>
        <time>2016-07-17T06:05:54Z</time>
      </trkpt>
      <trkpt lat="42.94234" lon="-7.89131">
        <ele>592.5</ele>
        <time>2016-07-17T06:06:02Z</time>
      </trkpt>
      <trkpt lat="42.94233" lon="-7.89144">
        <ele>593.3</ele>
        <time>2016-07-17T06:06:11Z</time>
      </trkpt>
      <trkpt lat="42.94232" lon="-7.89157">
        <ele>594.2</ele>
        <time>2016-07-17T06:06:21Z</time>
      </trkpt>
      <trkpt lat="42.94231" lon="-7.8917">
        <ele>594.8</ele>
        <time>2016-07-17T06:06:32Z</time>
      </trkpt>
      <trkpt lat="42.94229" lon="-7.89183">
        <ele>596.3</ele>
        <time>2016-07-17T06:06:43Z</time>
      </trkpt>
      <trkpt lat="42.94227" lon="-7.89196">
        <ele>597</ele>
        <time>2016-07-17T06:06:53Z</time>
      </trkpt>
      <trkpt lat="42.94225" lon="-7.89209">
        <ele>598.1</ele>
        <time>2016-07-17T06:07:03Z</time>
      </trkpt>
      <trkpt lat="42.94223" lon="-7.89222">
        <ele>599.3</ele>
        <time>2016-07-17T06:07:12Z</time>
      </trkpt>
      <trkpt lat="42.94223" lon="-7.89234">
        <ele>599.9</ele>
        <time>2016-07-17T06:07:21Z</time>
      </trkpt>
      <trkpt lat="42.94222" lon="-7.89247">
        <ele>600.9</ele>
        <time>2016-07-17T06:07:31Z</time>
      </trkpt>
      <trkpt lat="42.9422" lon="-7.89259">
        <ele>601.9</ele>
        <time>2016-07-17T06:07:41Z</time>
      </trkpt>
      <trkpt lat="42.94219" lon="-7.89271">
        <ele>603.4</ele>
        <time>2016-07-17T06:07:52Z</time>
      </trkpt>
      <trkpt lat="42.94217" lon="-7.89284">
        <ele>604.7</ele>
        <time>2016-07-17T06:08:02Z</time>
      </trkpt>
      <trkpt lat="42.94217" lon="-7.89298">
        <ele>605.8</ele>
        <time>2016-07-17T06:08:12Z</time>
      </trkpt>
      <trkpt lat="42.94216" lon="-7.8931">
        <ele>607.1</ele>
        <time>2016-07-17T06:08:21Z</time>
      </trkpt>
      <trkpt lat="42.94216" lon="-7.89323">
        <ele>608.3</ele>
        <time>2016-07-17T06:08:31Z</time>
      </trkpt>
      <trkpt lat="42.94218" lon="-7.89335">
        <ele>609.4</ele>
        <time>2016-07-17T06:08:41Z</time>
      </trkpt>
      <trkpt lat="42.94219" lon="-7.89347">
        <ele>610.3</ele>
        <time>2016-07-17T06:08:51Z</time>
      </trkpt>
      <trkpt lat="42.94222" lon="-7.8936">
        <ele>611.5</ele>
        <time>2016-07-17T06:09:03Z</time>
      </trkpt>
      <trkpt lat="42.94225" lon="-7.89372">
        <ele>612.3</ele>
        <time>2016-07-17T06:09:14Z</time>
      </trkpt>
      <trkpt lat="42.94229" lon="-7.89385">
        <ele>613.5</ele>
        <time>2016-07-17T06:09:22Z</time>
      </trkpt>
      <trkpt lat="42.94232" lon="-7.89398">
        <ele>614.4</ele>
        <time>2016-07-17T06:09:32Z</time>
      </trkpt>
      <trkpt lat="42.94236" lon="-7.89409">
        <ele>615.3</ele>
        <time>2016-07-17T06:09:41Z</time>
      </trkpt>
      <trkpt lat="42.94237" lon="-7.89422">
        <ele>616.3</ele>
        <time>2016-07-17T06:09:50Z</time>
      </trkpt>
      <trkpt lat="42.94237" lon="-7.89435">
        <ele>617.4</ele>
        <time>2016-07-17T06:10:01Z</time>
      </trkpt>
      <trkpt lat="42.94233" lon="-7.89446">
        <ele>618.1</ele>
        <time>2016-07-17T06:10:11Z</time>
      </trkpt>
      <trkpt lat="42.94227" lon="-7.89457">
        <ele>618.3</ele>
        <time>2016-07-17T06:10:21Z</time>
      </trkpt>
      <trkpt lat="42.94223" lon="-7.89468">
        <ele>618.8</ele>
        <time>2016-07-17T06:10:29Z</time>
      </trkpt>
      <trkpt lat="42.94216" lon="-7.89478">
        <ele>619.2</ele>
        <time>2016-07-17T06:10:37Z</time>
      </trkpt>
      <trkpt lat="42.94209" lon="-7.89487">
        <ele>619.9</ele>
        <time>2016-07-17T06:10:46Z</time>
      </trkpt>
      <trkpt lat="42.94202" lon="-7.89495">
        <ele>621</ele>
        <time>2016-07-17T06:10:56Z</time>
      </trkpt>
      <trkpt lat="42.94194" lon="-7.89502">
        <ele>621.9</ele>
        <time>2016-07-17T06:11:08Z</time>
      </trkpt>
      <trkpt lat="42.94186" lon="-7.89509">
        <ele>622.3</ele>
        <time>2016-07-17T06:11:16Z</time>
      </trkpt>
      <trkpt lat="42.94178" lon="-7.89516">
        <ele>622.8</ele>
        <time>2016-07-17T06:11:24Z</time>
      </trkpt>
      <trkpt lat="42.94172" lon="-7.89524">
        <ele>623.2</ele>
        <time>2016-07-17T06:11:33Z</time>
      </trkpt>
      <trkpt lat="42.94166" lon="-7.89534">
        <ele>623.4</ele>
        <time>2016-07-17T06:11:41Z</time>
      </trkpt>
      <trkpt lat="42.94159" lon="-7.89544">
        <ele>623.6</ele>
        <time>2016-07-17T06:11:51Z</time>
      </trkpt>
      <trkpt lat="42.94156" lon="-7.89556">
        <ele>623.6</ele>
        <time>2016-07-17T06:11:59Z</time>
      </trkpt>
      <trkpt lat="42.94153" lon="-7.89568">
        <ele>623.7</ele>
        <time>2016-07-17T06:12:08Z</time>
      </trkpt>
      <trkpt lat="42.9415" lon="-7.89581">
        <ele>623.8</ele>
        <time>2016-07-17T06:12:17Z</time>
      </trkpt>
      <trkpt lat="42.94148" lon="-7.89594">
        <ele>623.8</ele>
        <time>2016-07-17T06:12:25Z</time>
      </trkpt>
      <trkpt lat="42.94144" lon="-7.89606">
        <ele>623.9</ele>
        <time>2016-07-17T06:12:33Z</time>
      </trkpt>
      <trkpt lat="42.94144" lon="-7.89619">
        <ele>624.1</ele>
        <time>2016-07-17T06:12:43Z</time>
      </trkpt>
      <trkpt lat="42.94145" lon="-7.89633">
        <ele>624.5</ele>
        <time>2016-07-17T06:12:51Z</time>
      </trkpt>
      <trkpt lat="42.94146" lon="-7.89647">
        <ele>625.1</ele>
        <time>2016-07-17T06:12:59Z</time>
      </trkpt>
      <trkpt lat="42.94146" lon="-7.89659">
        <ele>625.5</ele>
        <time>2016-07-17T06:13:06Z</time>
      </trkpt>
      <trkpt lat="42.94145" lon="-7.89672">
        <ele>625.7</ele>
        <time>2016-07-17T06:13:15Z</time>
      </trkpt>
      <trkpt lat="42.94145" lon="-7.89686">
        <ele>626.3</ele>
        <time>2016-07-17T06:13:26Z</time>
      </trkpt>
      <trkpt lat="42.94146" lon="-7.897">
        <ele>626.7</ele>
        <time>2016-07-17T06:13:36Z</time>
      </trkpt>
      <trkpt lat="42.94152" lon="-7.8971">
        <ele>627.1</ele>
        <time>2016-07-17T06:13:48Z</time>
      </trkpt>
      <trkpt lat="42.94161" lon="-7.89714">
        <ele>628.8</ele>
        <time>2016-07-17T06:14:02Z</time>
      </trkpt>
      <trkpt lat="42.94169" lon="-7.89705">
        <ele>629.8</ele>
        <time>2016-07-17T06:14:16Z</time>
      </trkpt>
      <trkpt lat="42.94175" lon="-7.89696">
        <ele>630.6</ele>
        <time>2016-07-17T06:14:26Z</time>
      </trkpt>
      <trkpt lat="42.94182" lon="-7.89685">
        <ele>631.9</ele>
        <time>2016-07-17T06:14:38Z</time>
      </trkpt>
      <trkpt lat="42.94188" lon="-7.89676">
        <ele>633.1</ele>
        <time>2016-07-17T06:14:47Z</time>
      </trkpt>
      <trkpt lat="42.94195" lon="-7.89666">
        <ele>634</ele>
        <time>2016-07-17T06:14:56Z</time>
      </trkpt>
      <trkpt lat="42.94202" lon="-7.89657">
        <ele>635.2</ele>
        <time>2016-07-17T06:15:06Z</time>
      </trkpt>
      <trkpt lat="42.94209" lon="-7.89649">
        <ele>636.1</ele>
        <time>2016-07-17T06:15:16Z</time>
      </trkpt>
      <trkpt lat="42.94218" lon="-7.89649">
        <ele>638</ele>
        <time>2016-07-17T06:15:50Z</time>
      </trkpt>
      <trkpt lat="42.94227" lon="-7.89655">
        <ele>639.2</ele>
        <time>2016-07-17T06:16:02Z</time>
      </trkpt>
      <trkpt lat="42.94235" lon="-7.89662">
        <ele>640.8</ele>
        <time>2016-07-17T06:16:15Z</time>
      </trkpt>
      <trkpt lat="42.94242" lon="-7.89672">
        <ele>642</ele>
        <time>2016-07-17T06:16:27Z</time>
      </trkpt>
      <trkpt lat="42.94246" lon="-7.89684">
        <ele>643.4</ele>
        <time>2016-07-17T06:16:37Z</time>
      </trkpt>
      <trkpt lat="42.94251" lon="-7.89695">
        <ele>644.5</ele>
        <time>2016-07-17T06:16:47Z</time>
      </trkpt>
      <trkpt lat="42.94254" lon="-7.89708">
        <ele>645.5</ele>
        <time>2016-07-17T06:16:57Z</time>
      </trkpt>
      <trkpt lat="42.94256" lon="-7.89721">
        <ele>647</ele>
        <time>2016-07-17T06:17:07Z</time>
      </trkpt>
      <trkpt lat="42.94258" lon="-7.89733">
        <ele>649.8</ele>
        <time>2016-07-17T06:17:31Z</time>
      </trkpt>
      <trkpt lat="42.94261" lon="-7.89746">
        <ele>649.9</ele>
        <time>2016-07-17T06:17:41Z</time>
      </trkpt>
      <trkpt lat="42.94267" lon="-7.89756">
        <ele>650.8</ele>
        <time>2016-07-17T06:17:52Z</time>
      </trkpt>
      <trkpt lat="42.94274" lon="-7.89765">
        <ele>651.9</ele>
        <time>2016-07-17T06:18:02Z</time>
      </trkpt>
      <trkpt lat="42.94284" lon="-7.89766">
        <ele>653.9</ele>
        <time>2016-07-17T06:18:19Z</time>
      </trkpt>
      <trkpt lat="42.94294" lon="-7.89765">
        <ele>655.5</ele>
        <time>2016-07-17T06:18:28Z</time>
      </trkpt>
      <trkpt lat="42.94304" lon="-7.89764">
        <ele>656.3</ele>
        <time>2016-07-17T06:18:37Z</time>
      </trkpt>
      <trkpt lat="42.94313" lon="-7.89764">
        <ele>656.4</ele>
        <time>2016-07-17T06:18:46Z</time>
      </trkpt>
      <trkpt lat="42.94323" lon="-7.89767">
        <ele>656.8</ele>
        <time>2016-07-17T06:18:56Z</time>
      </trkpt>
      <trkpt lat="42.94332" lon="-7.89764">
        <ele>658.1</ele>
        <time>2016-07-17T06:19:36Z</time>
      </trkpt>
      <trkpt lat="42.94342" lon="-7.89765">
        <ele>658.2</ele>
        <time>2016-07-17T06:19:46Z</time>
      </trkpt>
      <trkpt lat="42.94352" lon="-7.89766">
        <ele>658.6</ele>
        <time>2016-07-17T06:19:55Z</time>
      </trkpt>
      <trkpt lat="42.94361" lon="-7.89767">
        <ele>658.6</ele>
        <time>2016-07-17T06:20:03Z</time>
      </trkpt>
      <trkpt lat="42.94371" lon="-7.89768">
        <ele>658.9</ele>
        <time>2016-07-17T06:20:11Z</time>
      </trkpt>
      <trkpt lat="42.9438" lon="-7.8977">
        <ele>659.3</ele>
        <time>2016-07-17T06:20:20Z</time>
      </trkpt>
      <trkpt lat="42.94389" lon="-7.89771">
        <ele>660.1</ele>
        <time>2016-07-17T06:20:31Z</time>
      </trkpt>
      <trkpt lat="42.94398" lon="-7.89771">
        <ele>660.9</ele>
        <time>2016-07-17T06:20:40Z</time>
      </trkpt>
      <trkpt lat="42.94408" lon="-7.89771">
        <ele>661.3</ele>
        <time>2016-07-17T06:20:49Z</time>
      </trkpt>
      <trkpt lat="42.94417" lon="-7.89771">
        <ele>660.6</ele>
        <time>2016-07-17T06:20:58Z</time>
      </trkpt>
      <trkpt lat="42.94427" lon="-7.8977">
        <ele>660.4</ele>
        <time>2016-07-17T06:21:07Z</time>
      </trkpt>
      <trkpt lat="42.94436" lon="-7.89769">
        <ele>660.4</ele>
        <time>2016-07-17T06:21:17Z</time>
      </trkpt>
      <trkpt lat="42.94445" lon="-7.89768">
        <ele>660.6</ele>
        <time>2016-07-17T06:21:26Z</time>
      </trkpt>
      <trkpt lat="42.94455" lon="-7.89768">
        <ele>661.2</ele>
        <time>2016-07-17T06:21:35Z</time>
      </trkpt>
      <trkpt lat="42.94465" lon="-7.89768">
        <ele>661.7</ele>
        <time>2016-07-17T06:21:44Z</time>
      </trkpt>
      <trkpt lat="42.94474" lon="-7.89767">
        <ele>661.7</ele>
        <time>2016-07-17T06:21:52Z</time>
      </trkpt>
      <trkpt lat="42.94483" lon="-7.89765">
        <ele>661.6</ele>
        <time>2016-07-17T06:22:00Z</time>
      </trkpt>
      <trkpt lat="42.94492" lon="-7.89764">
        <ele>662</ele>
        <time>2016-07-17T06:22:08Z</time>
      </trkpt>
      <trkpt lat="42.94501" lon="-7.89763">
        <ele>662.4</ele>
        <time>2016-07-17T06:22:15Z</time>
      </trkpt>
      <trkpt lat="42.94511" lon="-7.89761">
        <ele>662.6</ele>
        <time>2016-07-17T06:22:23Z</time>
      </trkpt>
      <trkpt lat="42.9452" lon="-7.89761">
        <ele>662.5</ele>
        <time>2016-07-17T06:22:32Z</time>
      </trkpt>
      <trkpt lat="42.9453" lon="-7.89761">
        <ele>663.2</ele>
        <time>2016-07-17T06:22:41Z</time>
      </trkpt>
      <trkpt lat="42.9454" lon="-7.89761">
        <ele>662.3</ele>
        <time>2016-07-17T06:22:50Z</time>
      </trkpt>
      <trkpt lat="42.94549" lon="-7.8976">
        <ele>662.7</ele>
        <time>2016-07-17T06:22:58Z</time>
      </trkpt>
      <trkpt lat="42.94559" lon="-7.8976">
        <ele>663.1</ele>
        <time>2016-07-17T06:23:07Z</time>
      </trkpt>
      <trkpt lat="42.94568" lon="-7.89761">
        <ele>663.4</ele>
        <time>2016-07-17T06:23:17Z</time>
      </trkpt>
      <trkpt lat="42.94578" lon="-7.89763">
        <ele>663.8</ele>
        <time>2016-07-17T06:23:27Z</time>
      </trkpt>
      <trkpt lat="42.94588" lon="-7.89763">
        <ele>664.4</ele>
        <time>2016-07-17T06:23:37Z</time>
      </trkpt>
      <trkpt lat="42.94597" lon="-7.89763">
        <ele>664.9</ele>
        <time>2016-07-17T06:23:46Z</time>
      </trkpt>
      <trkpt lat="42.94607" lon="-7.89761">
        <ele>665.6</ele>
        <time>2016-07-17T06:23:55Z</time>
      </trkpt>
      <trkpt lat="42.94617" lon="-7.89759">
        <ele>666</ele>
        <time>2016-07-17T06:24:04Z</time>
      </trkpt>
      <trkpt lat="42.94626" lon="-7.89756">
        <ele>666.2</ele>
        <time>2016-07-17T06:24:12Z</time>
      </trkpt>
      <trkpt lat="42.94635" lon="-7.89755">
        <ele>666.3</ele>
        <time>2016-07-17T06:24:21Z</time>
      </trkpt>
      <trkpt lat="42.94644" lon="-7.89752">
        <ele>666.8</ele>
        <time>2016-07-17T06:24:30Z</time>
      </trkpt>
      <trkpt lat="42.94654" lon="-7.8975">
        <ele>667.3</ele>
        <time>2016-07-17T06:24:39Z</time>
      </trkpt>
      <trkpt lat="42.94663" lon="-7.89746">
        <ele>667.6</ele>
        <time>2016-07-17T06:24:47Z</time>
      </trkpt>
      <trkpt lat="42.94673" lon="-7.89744">
        <ele>668.5</ele>
        <time>2016-07-17T06:24:57Z</time>
      </trkpt>
      <trkpt lat="42.94682" lon="-7.89743">
        <ele>669.2</ele>
        <time>2016-07-17T06:25:06Z</time>
      </trkpt>
      <trkpt lat="42.94691" lon="-7.89744">
        <ele>669.7</ele>
        <time>2016-07-17T06:25:14Z</time>
      </trkpt>
      <trkpt lat="42.947" lon="-7.89746">
        <ele>670.1</ele>
        <time>2016-07-17T06:25:22Z</time>
      </trkpt>
      <trkpt lat="42.94709" lon="-7.89748">
        <ele>670.9</ele>
        <time>2016-07-17T06:25:31Z</time>
      </trkpt>
      <trkpt lat="42.94718" lon="-7.8975">
        <ele>671.4</ele>
        <time>2016-07-17T06:25:39Z</time>
      </trkpt>
      <trkpt lat="42.94727" lon="-7.8975">
        <ele>671.7</ele>
        <time>2016-07-17T06:25:47Z</time>
      </trkpt>
      <trkpt lat="42.94737" lon="-7.89751">
        <ele>672</ele>
        <time>2016-07-17T06:25:56Z</time>
      </trkpt>
      <trkpt lat="42.94747" lon="-7.89753">
        <ele>671.9</ele>
        <time>2016-07-17T06:26:05Z</time>
      </trkpt>
      <trkpt lat="42.94756" lon="-7.89756">
        <ele>672.1</ele>
        <time>2016-07-17T06:26:14Z</time>
      </trkpt>
      <trkpt lat="42.94766" lon="-7.89758">
        <ele>672.4</ele>
        <time>2016-07-17T06:26:23Z</time>
      </trkpt>
      <trkpt lat="42.94776" lon="-7.89761">
        <ele>672.6</ele>
        <time>2016-07-17T06:26:32Z</time>
      </trkpt>
      <trkpt lat="42.94785" lon="-7.89763">
        <ele>672.3</ele>
        <time>2016-07-17T06:26:40Z</time>
      </trkpt>
      <trkpt lat="42.94795" lon="-7.89764">
        <ele>672.1</ele>
        <time>2016-07-17T06:26:49Z</time>
      </trkpt>
      <trkpt lat="42.94804" lon="-7.89766">
        <ele>671.9</ele>
        <time>2016-07-17T06:26:57Z</time>
      </trkpt>
      <trkpt lat="42.94813" lon="-7.89769">
        <ele>671.8</ele>
        <time>2016-07-17T06:27:06Z</time>
      </trkpt>
      <trkpt lat="42.94822" lon="-7.89772">
        <ele>671.8</ele>
        <time>2016-07-17T06:27:15Z</time>
      </trkpt>
      <trkpt lat="42.94831" lon="-7.89775">
        <ele>671.6</ele>
        <time>2016-07-17T06:27:23Z</time>
      </trkpt>
      <trkpt lat="42.9484" lon="-7.89779">
        <ele>671.1</ele>
        <time>2016-07-17T06:27:31Z</time>
      </trkpt>
      <trkpt lat="42.94849" lon="-7.89786">
        <ele>670.6</ele>
        <time>2016-07-17T06:27:40Z</time>
      </trkpt>
      <trkpt lat="42.94857" lon="-7.89793">
        <ele>670.3</ele>
        <time>2016-07-17T06:27:49Z</time>
      </trkpt>
      <trkpt lat="42.94866" lon="-7.89798">
        <ele>669.9</ele>
        <time>2016-07-17T06:27:57Z</time>
      </trkpt>
      <trkpt lat="42.94873" lon="-7.89805">
        <ele>669.9</ele>
        <time>2016-07-17T06:28:10Z</time>
      </trkpt>
      <trkpt lat="42.94882" lon="-7.8981">
        <ele>669.4</ele>
        <time>2016-07-17T06:28:19Z</time>
      </trkpt>
      <trkpt lat="42.94892" lon="-7.89814">
        <ele>668.8</ele>
        <time>2016-07-17T06:28:28Z</time>
      </trkpt>
      <trkpt lat="42.94901" lon="-7.8982">
        <ele>668.5</ele>
        <time>2016-07-17T06:28:37Z</time>
      </trkpt>
      <trkpt lat="42.94909" lon="-7.89825">
        <ele>668.4</ele>
        <time>2016-07-17T06:28:46Z</time>
      </trkpt>
      <trkpt lat="42.94918" lon="-7.8983">
        <ele>667.7</ele>
        <time>2016-07-17T06:28:55Z</time>
      </trkpt>
      <trkpt lat="42.94926" lon="-7.89836">
        <ele>667.3</ele>
        <time>2016-07-17T06:29:04Z</time>
      </trkpt>
      <trkpt lat="42.94935" lon="-7.89843">
        <ele>666.7</ele>
        <time>2016-07-17T06:29:13Z</time>
      </trkpt>
      <trkpt lat="42.94944" lon="-7.89848">
        <ele>666.2</ele>
        <time>2016-07-17T06:29:22Z</time>
      </trkpt>
      <trkpt lat="42.94953" lon="-7.89852">
        <ele>665.6</ele>
        <time>2016-07-17T06:29:33Z</time>
      </trkpt>
      <trkpt lat="42.94962" lon="-7.89855">
        <ele>664.9</ele>
        <time>2016-07-17T06:29:43Z</time>
      </trkpt>
      <trkpt lat="42.94972" lon="-7.89857">
        <ele>664.4</ele>
        <time>2016-07-17T06:29:52Z</time>
      </trkpt>
      <trkpt lat="42.94981" lon="-7.89858">
        <ele>663.6</ele>
        <time>2016-07-17T06:30:01Z</time>
      </trkpt>
      <trkpt lat="42.9499" lon="-7.89856">
        <ele>663.2</ele>
        <time>2016-07-17T06:30:11Z</time>
      </trkpt>
      <trkpt lat="42.95" lon="-7.89854">
        <ele>662.4</ele>
        <time>2016-07-17T06:30:20Z</time>
      </trkpt>
      <trkpt lat="42.95009" lon="-7.89855">
        <ele>662</ele>
        <time>2016-07-17T06:30:29Z</time>
      </trkpt>
      <trkpt lat="42.95019" lon="-7.89858">
        <ele>661.5</ele>
        <time>2016-07-17T06:30:37Z</time>
      </trkpt>
      <trkpt lat="42.95028" lon="-7.89859">
        <ele>660.2</ele>
        <time>2016-07-17T06:30:59Z</time>
      </trkpt>
      <trkpt lat="42.95037" lon="-7.89857">
        <ele>659.2</ele>
        <time>2016-07-17T06:32:16Z</time>
      </trkpt>
      <trkpt lat="42.95046" lon="-7.89857">
        <ele>659.1</ele>
        <time>2016-07-17T06:32:44Z</time>
      </trkpt>
      <trkpt lat="42.95054" lon="-7.89861">
        <ele>658.8</ele>
        <time>2016-07-17T06:33:03Z</time>
      </trkpt>
      <trkpt lat="42.95055" lon="-7.89873">
        <ele>658.1</ele>
        <time>2016-07-17T06:33:19Z</time>
      </trkpt>
      <trkpt lat="42.9505" lon="-7.89883">
        <ele>657.6</ele>
        <time>2016-07-17T06:33:29Z</time>
      </trkpt>
      <trkpt lat="42.95043" lon="-7.89894">
        <ele>656.4</ele>
        <time>2016-07-17T06:33:39Z</time>
      </trkpt>
      <trkpt lat="42.95036" lon="-7.89902">
        <ele>655.2</ele>
        <time>2016-07-17T06:33:48Z</time>
      </trkpt>
      <trkpt lat="42.9503" lon="-7.8991">
        <ele>654.2</ele>
        <time>2016-07-17T06:33:55Z</time>
      </trkpt>
      <trkpt lat="42.95024" lon="-7.8992">
        <ele>653.3</ele>
        <time>2016-07-17T06:34:03Z</time>
      </trkpt>
      <trkpt lat="42.95016" lon="-7.89929">
        <ele>652</ele>
        <time>2016-07-17T06:34:12Z</time>
      </trkpt>
      <trkpt lat="42.95009" lon="-7.89937">
        <ele>651.1</ele>
        <time>2016-07-17T06:34:20Z</time>
      </trkpt>
      <trkpt lat="42.95005" lon="-7.89948">
        <ele>650</ele>
        <time>2016-07-17T06:34:28Z</time>
      </trkpt>
      <trkpt lat="42.95009" lon="-7.89959">
        <ele>648.5</ele>
        <time>2016-07-17T06:34:40Z</time>
      </trkpt>
      <trkpt lat="42.95014" lon="-7.8997">
        <ele>647.2</ele>
        <time>2016-07-17T06:34:52Z</time>
      </trkpt>
      <trkpt lat="42.9502" lon="-7.89981">
        <ele>646.4</ele>
        <time>2016-07-17T06:35:01Z</time>
      </trkpt>
      <trkpt lat="42.95025" lon="-7.89991">
        <ele>646.5</ele>
        <time>2016-07-17T06:35:09Z</time>
      </trkpt>
      <trkpt lat="42.95032" lon="-7.90001">
        <ele>646.8</ele>
        <time>2016-07-17T06:35:18Z</time>
      </trkpt>
      <trkpt lat="42.95037" lon="-7.90012">
        <ele>647</ele>
        <time>2016-07-17T06:35:27Z</time>
      </trkpt>
      <trkpt lat="42.95041" lon="-7.90024">
        <ele>647.4</ele>
        <time>2016-07-17T06:35:36Z</time>
      </trkpt>
      <trkpt lat="42.95046" lon="-7.90035">
        <ele>647.9</ele>
        <time>2016-07-17T06:35:44Z</time>
      </trkpt>
      <trkpt lat="42.9505" lon="-7.90046">
        <ele>648.5</ele>
        <time>2016-07-17T06:35:53Z</time>
      </trkpt>
      <trkpt lat="42.95053" lon="-7.90058">
        <ele>648.9</ele>
        <time>2016-07-17T06:36:01Z</time>
      </trkpt>
      <trkpt lat="42.95058" lon="-7.90069">
        <ele>649.8</ele>
        <time>2016-07-17T06:36:10Z</time>
      </trkpt>
      <trkpt lat="42.95063" lon="-7.90081">
        <ele>651.4</ele>
        <time>2016-07-17T06:36:24Z</time>
      </trkpt>
      <trkpt lat="42.95059" lon="-7.90092">
        <ele>652.9</ele>
        <time>2016-07-17T06:36:55Z</time>
      </trkpt>
      <trkpt lat="42.9504" lon="-7.90095">
        <ele>653</ele>
        <time>2016-07-17T06:37:44Z</time>
      </trkpt>
      <trkpt lat="42.9505" lon="-7.90102">
        <ele>652</ele>
        <time>2016-07-17T06:38:00Z</time>
      </trkpt>
      <trkpt lat="42.95059" lon="-7.90104">
        <ele>653.3</ele>
        <time>2016-07-17T06:38:09Z</time>
      </trkpt>
      <trkpt lat="42.95061" lon="-7.90117">
        <ele>654.8</ele>
        <time>2016-07-17T06:38:46Z</time>
      </trkpt>
      <trkpt lat="42.95063" lon="-7.90129">
        <ele>654.7</ele>
        <time>2016-07-17T06:39:09Z</time>
      </trkpt>
      <trkpt lat="42.95069" lon="-7.90139">
        <ele>654.9</ele>
        <time>2016-07-17T06:39:18Z</time>
      </trkpt>
      <trkpt lat="42.95071" lon="-7.90152">
        <ele>655.1</ele>
        <time>2016-07-17T06:39:27Z</time>
      </trkpt>
      <trkpt lat="42.95073" lon="-7.90165">
        <ele>655.8</ele>
        <time>2016-07-17T06:39:36Z</time>
      </trkpt>
      <trkpt lat="42.95076" lon="-7.90177">
        <ele>656.5</ele>
        <time>2016-07-17T06:39:45Z</time>
      </trkpt>
      <trkpt lat="42.9508" lon="-7.90189">
        <ele>657.2</ele>
        <time>2016-07-17T06:39:53Z</time>
      </trkpt>
      <trkpt lat="42.95084" lon="-7.90199">
        <ele>658.5</ele>
        <time>2016-07-17T06:40:06Z</time>
      </trkpt>
      <trkpt lat="42.95086" lon="-7.90212">
        <ele>659.9</ele>
        <time>2016-07-17T06:40:27Z</time>
      </trkpt>
      <trkpt lat="42.95092" lon="-7.90221">
        <ele>660</ele>
        <time>2016-07-17T06:40:38Z</time>
      </trkpt>
      <trkpt lat="42.95098" lon="-7.90231">
        <ele>660.6</ele>
        <time>2016-07-17T06:40:50Z</time>
      </trkpt>
      <trkpt lat="42.95104" lon="-7.90241">
        <ele>661.5</ele>
        <time>2016-07-17T06:41:00Z</time>
      </trkpt>
      <trkpt lat="42.9511" lon="-7.90251">
        <ele>661.8</ele>
        <time>2016-07-17T06:41:09Z</time>
      </trkpt>
      <trkpt lat="42.95116" lon="-7.90261">
        <ele>661.9</ele>
        <time>2016-07-17T06:41:17Z</time>
      </trkpt>
      <trkpt lat="42.95121" lon="-7.90272">
        <ele>662.5</ele>
        <time>2016-07-17T06:41:25Z</time>
      </trkpt>
      <trkpt lat="42.95125" lon="-7.90283">
        <ele>663.3</ele>
        <time>2016-07-17T06:41:34Z</time>
      </trkpt>
      <trkpt lat="42.95127" lon="-7.90295">
        <ele>663.8</ele>
        <time>2016-07-17T06:41:43Z</time>
      </trkpt>
      <trkpt lat="42.95128" lon="-7.90309">
        <ele>664.3</ele>
        <time>2016-07-17T06:41:52Z</time>
      </trkpt>
      <trkpt lat="42.95128" lon="-7.90322">
        <ele>665.2</ele>
        <time>2016-07-17T06:42:01Z</time>
      </trkpt>
      <trkpt lat="42.95129" lon="-7.90336">
        <ele>665.9</ele>
        <time>2016-07-17T06:42:10Z</time>
      </trkpt>
      <trkpt lat="42.95132" lon="-7.90348">
        <ele>666.4</ele>
        <time>2016-07-17T06:42:19Z</time>
      </trkpt>
      <trkpt lat="42.95133" lon="-7.90361">
        <ele>666.5</ele>
        <time>2016-07-17T06:42:28Z</time>
      </trkpt>
      <trkpt lat="42.95134" lon="-7.90374">
        <ele>666.8</ele>
        <time>2016-07-17T06:42:38Z</time>
      </trkpt>
      <trkpt lat="42.95133" lon="-7.90386">
        <ele>667.5</ele>
        <time>2016-07-17T06:42:47Z</time>
      </trkpt>
      <trkpt lat="42.95135" lon="-7.90398">
        <ele>668.3</ele>
        <time>2016-07-17T06:42:56Z</time>
      </trkpt>
      <trkpt lat="42.95136" lon="-7.90411">
        <ele>669</ele>
        <time>2016-07-17T06:43:06Z</time>
      </trkpt>
      <trkpt lat="42.95137" lon="-7.90424">
        <ele>669.7</ele>
        <time>2016-07-17T06:43:15Z</time>
      </trkpt>
      <trkpt lat="42.95137" lon="-7.90437">
        <ele>670.8</ele>
        <time>2016-07-17T06:43:24Z</time>
      </trkpt>
      <trkpt lat="42.95138" lon="-7.9045">
        <ele>671.6</ele>
        <time>2016-07-17T06:43:33Z</time>
      </trkpt>
      <trkpt lat="42.95136" lon="-7.90463">
        <ele>672.1</ele>
        <time>2016-07-17T06:43:42Z</time>
      </trkpt>
      <trkpt lat="42.95134" lon="-7.90475">
        <ele>672.5</ele>
        <time>2016-07-17T06:43:49Z</time>
      </trkpt>
      <trkpt lat="42.95133" lon="-7.90488">
        <ele>673</ele>
        <time>2016-07-17T06:43:57Z</time>
      </trkpt>
      <trkpt lat="42.95136" lon="-7.905">
        <ele>674.1</ele>
        <time>2016-07-17T06:44:18Z</time>
      </trkpt>
      <trkpt lat="42.95135" lon="-7.90514">
        <ele>674.2</ele>
        <time>2016-07-17T06:44:27Z</time>
      </trkpt>
      <trkpt lat="42.95134" lon="-7.90527">
        <ele>674.5</ele>
        <time>2016-07-17T06:44:36Z</time>
      </trkpt>
      <trkpt lat="42.95133" lon="-7.9054">
        <ele>674.7</ele>
        <time>2016-07-17T06:44:44Z</time>
      </trkpt>
      <trkpt lat="42.95132" lon="-7.90553">
        <ele>675.2</ele>
        <time>2016-07-17T06:44:53Z</time>
      </trkpt>
      <trkpt lat="42.9513" lon="-7.90567">
        <ele>675.5</ele>
        <time>2016-07-17T06:45:02Z</time>
      </trkpt>
      <trkpt lat="42.95127" lon="-7.9058">
        <ele>676.2</ele>
        <time>2016-07-17T06:45:12Z</time>
      </trkpt>
      <trkpt lat="42.95124" lon="-7.90592">
        <ele>676.7</ele>
        <time>2016-07-17T06:45:22Z</time>
      </trkpt>
      <trkpt lat="42.9512" lon="-7.90604">
        <ele>677.3</ele>
        <time>2016-07-17T06:45:32Z</time>
      </trkpt>
      <trkpt lat="42.95117" lon="-7.90616">
        <ele>678</ele>
        <time>2016-07-17T06:45:41Z</time>
      </trkpt>
      <trkpt lat="42.95114" lon="-7.90629">
        <ele>678.7</ele>
        <time>2016-07-17T06:45:50Z</time>
      </trkpt>
      <trkpt lat="42.9511" lon="-7.90641">
        <ele>679</ele>
        <time>2016-07-17T06:45:59Z</time>
      </trkpt>
      <trkpt lat="42.95108" lon="-7.90654">
        <ele>679.2</ele>
        <time>2016-07-17T06:46:08Z</time>
      </trkpt>
      <trkpt lat="42.95105" lon="-7.90666">
        <ele>679.7</ele>
        <time>2016-07-17T06:46:17Z</time>
      </trkpt>
      <trkpt lat="42.95103" lon="-7.90678">
        <ele>680.1</ele>
        <time>2016-07-17T06:46:28Z</time>
      </trkpt>
      <trkpt lat="42.951" lon="-7.9069">
        <ele>680.6</ele>
        <time>2016-07-17T06:46:38Z</time>
      </trkpt>
      <trkpt lat="42.95094" lon="-7.907">
        <ele>681.1</ele>
        <time>2016-07-17T06:46:47Z</time>
      </trkpt>
      <trkpt lat="42.95088" lon="-7.9071">
        <ele>682.1</ele>
        <time>2016-07-17T06:46:57Z</time>
      </trkpt>
      <trkpt lat="42.95081" lon="-7.9072">
        <ele>682.5</ele>
        <time>2016-07-17T06:47:06Z</time>
      </trkpt>
      <trkpt lat="42.95074" lon="-7.90729">
        <ele>683.4</ele>
        <time>2016-07-17T06:47:15Z</time>
      </trkpt>
      <trkpt lat="42.9507" lon="-7.90741">
        <ele>684.7</ele>
        <time>2016-07-17T06:47:25Z</time>
      </trkpt>
      <trkpt lat="42.95066" lon="-7.90753">
        <ele>686</ele>
        <time>2016-07-17T06:47:35Z</time>
      </trkpt>
      <trkpt lat="42.95063" lon="-7.90765">
        <ele>687.1</ele>
        <time>2016-07-17T06:47:45Z</time>
      </trkpt>
      <trkpt lat="42.95062" lon="-7.90778">
        <ele>688.8</ele>
        <time>2016-07-17T06:47:58Z</time>
      </trkpt>
      <trkpt lat="42.9506" lon="-7.90791">
        <ele>689.9</ele>
        <time>2016-07-17T06:48:08Z</time>
      </trkpt>
      <trkpt lat="42.9506" lon="-7.90804">
        <ele>690.7</ele>
        <time>2016-07-17T06:48:17Z</time>
      </trkpt>
      <trkpt lat="42.95061" lon="-7.90817">
        <ele>692.1</ele>
        <time>2016-07-17T06:48:27Z</time>
      </trkpt>
      <trkpt lat="42.95063" lon="-7.9083">
        <ele>693.3</ele>
        <time>2016-07-17T06:48:37Z</time>
      </trkpt>
      <trkpt lat="42.95067" lon="-7.90841">
        <ele>694.3</ele>
        <time>2016-07-17T06:48:46Z</time>
      </trkpt>
      <trkpt lat="42.95073" lon="-7.90853">
        <ele>695.2</ele>
        <time>2016-07-17T06:48:56Z</time>
      </trkpt>
      <trkpt lat="42.95077" lon="-7.90864">
        <ele>696</ele>
        <time>2016-07-17T06:49:05Z</time>
      </trkpt>
      <trkpt lat="42.95083" lon="-7.90875">
        <ele>696.6</ele>
        <time>2016-07-17T06:49:18Z</time>
      </trkpt>
      <trkpt lat="42.95087" lon="-7.90887">
        <ele>696.8</ele>
        <time>2016-07-17T06:49:26Z</time>
      </trkpt>
      <trkpt lat="42.95092" lon="-7.90897">
        <ele>696.7</ele>
        <time>2016-07-17T06:49:34Z</time>
      </trkpt>
      <trkpt lat="42.95098" lon="-7.90907">
        <ele>696.4</ele>
        <time>2016-07-17T06:49:42Z</time>
      </trkpt>
      <trkpt lat="42.95105" lon="-7.90917">
        <ele>696</ele>
        <time>2016-07-17T06:49:51Z</time>
      </trkpt>
      <trkpt lat="42.9511" lon="-7.90928">
        <ele>695.7</ele>
        <time>2016-07-17T06:50:00Z</time>
      </trkpt>
      <trkpt lat="42.95116" lon="-7.90939">
        <ele>695.4</ele>
        <time>2016-07-17T06:50:09Z</time>
      </trkpt>
      <trkpt lat="42.95121" lon="-7.9095">
        <ele>694.9</ele>
        <time>2016-07-17T06:50:18Z</time>
      </trkpt>
      <trkpt lat="42.95123" lon="-7.90964">
        <ele>693.9</ele>
        <time>2016-07-17T06:50:28Z</time>
      </trkpt>
      <trkpt lat="42.95123" lon="-7.90976">
        <ele>692.6</ele>
        <time>2016-07-17T06:50:37Z</time>
      </trkpt>
      <trkpt lat="42.95124" lon="-7.9099">
        <ele>691.5</ele>
        <time>2016-07-17T06:50:46Z</time>
      </trkpt>
      <trkpt lat="42.95126" lon="-7.91003">
        <ele>690.1</ele>
        <time>2016-07-17T06:50:56Z</time>
      </trkpt>
      <trkpt lat="42.95127" lon="-7.91015">
        <ele>689.3</ele>
        <time>2016-07-17T06:51:05Z</time>
      </trkpt>
      <trkpt lat="42.95128" lon="-7.91029">
        <ele>688.3</ele>
        <time>2016-07-17T06:51:14Z</time>
      </trkpt>
      <trkpt lat="42.95127" lon="-7.91042">
        <ele>687.4</ele>
        <time>2016-07-17T06:51:22Z</time>
      </trkpt>
      <trkpt lat="42.95126" lon="-7.91055">
        <ele>686.3</ele>
        <time>2016-07-17T06:51:30Z</time>
      </trkpt>
      <trkpt lat="42.95126" lon="-7.91068">
        <ele>685.6</ele>
        <time>2016-07-17T06:51:38Z</time>
      </trkpt>
      <trkpt lat="42.95126" lon="-7.91081">
        <ele>684.7</ele>
        <time>2016-07-17T06:51:46Z</time>
      </trkpt>
      <trkpt lat="42.95128" lon="-7.91093">
        <ele>684</ele>
        <time>2016-07-17T06:51:54Z</time>
      </trkpt>
      <trkpt lat="42.95127" lon="-7.91106">
        <ele>683</ele>
        <time>2016-07-17T06:52:01Z</time>
      </trkpt>
      <trkpt lat="42.95126" lon="-7.91119">
        <ele>682.6</ele>
        <time>2016-07-17T06:52:08Z</time>
      </trkpt>
      <trkpt lat="42.95125" lon="-7.91132">
        <ele>682.5</ele>
        <time>2016-07-17T06:52:15Z</time>
      </trkpt>
      <trkpt lat="42.95123" lon="-7.91145">
        <ele>681.8</ele>
        <time>2016-07-17T06:52:23Z</time>
      </trkpt>
      <trkpt lat="42.95124" lon="-7.91157">
        <ele>681.3</ele>
        <time>2016-07-17T06:52:31Z</time>
      </trkpt>
      <trkpt lat="42.95124" lon="-7.9117">
        <ele>681.2</ele>
        <time>2016-07-17T06:52:39Z</time>
      </trkpt>
      <trkpt lat="42.95124" lon="-7.91183">
        <ele>681.4</ele>
        <time>2016-07-17T06:52:47Z</time>
      </trkpt>
      <trkpt lat="42.95125" lon="-7.91196">
        <ele>681.4</ele>
        <time>2016-07-17T06:52:56Z</time>
      </trkpt>
      <trkpt lat="42.95124" lon="-7.91208">
        <ele>681.4</ele>
        <time>2016-07-17T06:53:05Z</time>
      </trkpt>
      <trkpt lat="42.95122" lon="-7.91221">
        <ele>681.3</ele>
        <time>2016-07-17T06:53:13Z</time>
      </trkpt>
      <trkpt lat="42.95118" lon="-7.91233">
        <ele>680.9</ele>
        <time>2016-07-17T06:53:21Z</time>
      </trkpt>
      <trkpt lat="42.95115" lon="-7.91246">
        <ele>680.2</ele>
        <time>2016-07-17T06:53:29Z</time>
      </trkpt>
      <trkpt lat="42.95111" lon="-7.91257">
        <ele>679.9</ele>
        <time>2016-07-17T06:53:38Z</time>
      </trkpt>
      <trkpt lat="42.95106" lon="-7.91267">
        <ele>679.7</ele>
        <time>2016-07-17T06:53:46Z</time>
      </trkpt>
      <trkpt lat="42.951" lon="-7.91277">
        <ele>679.3</ele>
        <time>2016-07-17T06:53:54Z</time>
      </trkpt>
      <trkpt lat="42.95093" lon="-7.91286">
        <ele>679</ele>
        <time>2016-07-17T06:54:02Z</time>
      </trkpt>
      <trkpt lat="42.95086" lon="-7.91296">
        <ele>678.8</ele>
        <time>2016-07-17T06:54:10Z</time>
      </trkpt>
      <trkpt lat="42.9508" lon="-7.91305">
        <ele>678.7</ele>
        <time>2016-07-17T06:54:19Z</time>
      </trkpt>
      <trkpt lat="42.95072" lon="-7.91313">
        <ele>678.7</ele>
        <time>2016-07-17T06:54:28Z</time>
      </trkpt>
      <trkpt lat="42.95065" lon="-7.91321">
        <ele>678.3</ele>
        <time>2016-07-17T06:54:38Z</time>
      </trkpt>
      <trkpt lat="42.95061" lon="-7.91332">
        <ele>678</ele>
        <time>2016-07-17T06:55:10Z</time>
      </trkpt>
      <trkpt lat="42.95054" lon="-7.91343">
        <ele>677.8</ele>
        <time>2016-07-17T06:55:21Z</time>
      </trkpt>
      <trkpt lat="42.95047" lon="-7.91352">
        <ele>677.7</ele>
        <time>2016-07-17T06:55:30Z</time>
      </trkpt>
      <trkpt lat="42.95041" lon="-7.91363">
        <ele>677.4</ele>
        <time>2016-07-17T06:55:39Z</time>
      </trkpt>
      <trkpt lat="42.95036" lon="-7.91374">
        <ele>677.2</ele>
        <time>2016-07-17T06:55:47Z</time>
      </trkpt>
      <trkpt lat="42.9503" lon="-7.91385">
        <ele>676.4</ele>
        <time>2016-07-17T06:55:56Z</time>
      </trkpt>
      <trkpt lat="42.95025" lon="-7.91395">
        <ele>675.7</ele>
        <time>2016-07-17T06:56:04Z</time>
      </trkpt>
      <trkpt lat="42.95019" lon="-7.91406">
        <ele>675</ele>
        <time>2016-07-17T06:56:12Z</time>
      </trkpt>
      <trkpt lat="42.95013" lon="-7.91416">
        <ele>674.5</ele>
        <time>2016-07-17T06:56:20Z</time>
      </trkpt>
      <trkpt lat="42.95007" lon="-7.91427">
        <ele>673.6</ele>
        <time>2016-07-17T06:56:28Z</time>
      </trkpt>
      <trkpt lat="42.95001" lon="-7.91436">
        <ele>673.2</ele>
        <time>2016-07-17T06:56:36Z</time>
      </trkpt>
      <trkpt lat="42.94994" lon="-7.91446">
        <ele>672.7</ele>
        <time>2016-07-17T06:56:44Z</time>
      </trkpt>
      <trkpt lat="42.94988" lon="-7.91456">
        <ele>672.4</ele>
        <time>2016-07-17T06:56:52Z</time>
      </trkpt>
      <trkpt lat="42.94982" lon="-7.91465">
        <ele>671.6</ele>
        <time>2016-07-17T06:56:59Z</time>
      </trkpt>
      <trkpt lat="42.94976" lon="-7.91476">
        <ele>670.5</ele>
        <time>2016-07-17T06:57:08Z</time>
      </trkpt>
      <trkpt lat="42.9497" lon="-7.91486">
        <ele>669.8</ele>
        <time>2016-07-17T06:57:16Z</time>
      </trkpt>
      <trkpt lat="42.94965" lon="-7.91497">
        <ele>669.2</ele>
        <time>2016-07-17T06:57:24Z</time>
      </trkpt>
      <trkpt lat="42.94961" lon="-7.91508">
        <ele>668.8</ele>
        <time>2016-07-17T06:57:32Z</time>
      </trkpt>
      <trkpt lat="42.94958" lon="-7.91521">
        <ele>668.1</ele>
        <time>2016-07-17T06:57:43Z</time>
      </trkpt>
      <trkpt lat="42.94953" lon="-7.91533">
        <ele>667.3</ele>
        <time>2016-07-17T06:57:52Z</time>
      </trkpt>
      <trkpt lat="42.94949" lon="-7.91544">
        <ele>666.5</ele>
        <time>2016-07-17T06:58:00Z</time>
      </trkpt>
      <trkpt lat="42.94945" lon="-7.91556">
        <ele>665.9</ele>
        <time>2016-07-17T06:58:09Z</time>
      </trkpt>
      <trkpt lat="42.9494" lon="-7.91567">
        <ele>665.4</ele>
        <time>2016-07-17T06:58:17Z</time>
      </trkpt>
      <trkpt lat="42.94935" lon="-7.91579">
        <ele>664.8</ele>
        <time>2016-07-17T06:58:25Z</time>
      </trkpt>
      <trkpt lat="42.94931" lon="-7.9159">
        <ele>664.1</ele>
        <time>2016-07-17T06:58:34Z</time>
      </trkpt>
      <trkpt lat="42.94925" lon="-7.91602">
        <ele>663.7</ele>
        <time>2016-07-17T06:58:43Z</time>
      </trkpt>
      <trkpt lat="42.9492" lon="-7.91612">
        <ele>663.2</ele>
        <time>2016-07-17T06:58:51Z</time>
      </trkpt>
      <trkpt lat="42.94915" lon="-7.91623">
        <ele>662.5</ele>
        <time>2016-07-17T06:58:59Z</time>
      </trkpt>
      <trkpt lat="42.94911" lon="-7.91635">
        <ele>661.8</ele>
        <time>2016-07-17T06:59:08Z</time>
      </trkpt>
      <trkpt lat="42.94906" lon="-7.91646">
        <ele>661.6</ele>
        <time>2016-07-17T06:59:16Z</time>
      </trkpt>
      <trkpt lat="42.94902" lon="-7.91657">
        <ele>661.4</ele>
        <time>2016-07-17T06:59:24Z</time>
      </trkpt>
      <trkpt lat="42.94899" lon="-7.91669">
        <ele>661.1</ele>
        <time>2016-07-17T06:59:32Z</time>
      </trkpt>
      <trkpt lat="42.94895" lon="-7.91682">
        <ele>660.5</ele>
        <time>2016-07-17T06:59:41Z</time>
      </trkpt>
      <trkpt lat="42.94891" lon="-7.91695">
        <ele>660</ele>
        <time>2016-07-17T06:59:50Z</time>
      </trkpt>
      <trkpt lat="42.94887" lon="-7.91706">
        <ele>659.7</ele>
        <time>2016-07-17T06:59:58Z</time>
      </trkpt>
      <trkpt lat="42.94884" lon="-7.91718">
        <ele>659.3</ele>
        <time>2016-07-17T07:00:07Z</time>
      </trkpt>
      <trkpt lat="42.9488" lon="-7.91731">
        <ele>658.4</ele>
        <time>2016-07-17T07:00:16Z</time>
      </trkpt>
      <trkpt lat="42.94876" lon="-7.91743">
        <ele>658.5</ele>
        <time>2016-07-17T07:00:25Z</time>
      </trkpt>
      <trkpt lat="42.94874" lon="-7.91756">
        <ele>658.2</ele>
        <time>2016-07-17T07:00:33Z</time>
      </trkpt>
      <trkpt lat="42.94871" lon="-7.91768">
        <ele>657.8</ele>
        <time>2016-07-17T07:00:41Z</time>
      </trkpt>
      <trkpt lat="42.94867" lon="-7.91781">
        <ele>657.4</ele>
        <time>2016-07-17T07:00:49Z</time>
      </trkpt>
      <trkpt lat="42.94863" lon="-7.91792">
        <ele>657.2</ele>
        <time>2016-07-17T07:00:58Z</time>
      </trkpt>
      <trkpt lat="42.94859" lon="-7.91804">
        <ele>656.6</ele>
        <time>2016-07-17T07:01:06Z</time>
      </trkpt>
      <trkpt lat="42.94855" lon="-7.91815">
        <ele>656.3</ele>
        <time>2016-07-17T07:01:13Z</time>
      </trkpt>
      <trkpt lat="42.94852" lon="-7.91827">
        <ele>655.8</ele>
        <time>2016-07-17T07:01:20Z</time>
      </trkpt>
      <trkpt lat="42.94848" lon="-7.9184">
        <ele>655</ele>
        <time>2016-07-17T07:01:29Z</time>
      </trkpt>
      <trkpt lat="42.94845" lon="-7.91852">
        <ele>654.5</ele>
        <time>2016-07-17T07:01:37Z</time>
      </trkpt>
      <trkpt lat="42.94842" lon="-7.91864">
        <ele>653.7</ele>
        <time>2016-07-17T07:01:46Z</time>
      </trkpt>
      <trkpt lat="42.94839" lon="-7.91876">
        <ele>652.9</ele>
        <time>2016-07-17T07:01:54Z</time>
      </trkpt>
      <trkpt lat="42.94838" lon="-7.9189">
        <ele>652.3</ele>
        <time>2016-07-17T07:02:03Z</time>
      </trkpt>
      <trkpt lat="42.94834" lon="-7.91902">
        <ele>651.7</ele>
        <time>2016-07-17T07:02:11Z</time>
      </trkpt>
      <trkpt lat="42.94832" lon="-7.91915">
        <ele>650.9</ele>
        <time>2016-07-17T07:02:19Z</time>
      </trkpt>
      <trkpt lat="42.9483" lon="-7.91928">
        <ele>650.5</ele>
        <time>2016-07-17T07:02:27Z</time>
      </trkpt>
      <trkpt lat="42.94828" lon="-7.9194">
        <ele>650.2</ele>
        <time>2016-07-17T07:02:35Z</time>
      </trkpt>
      <trkpt lat="42.94824" lon="-7.91951">
        <ele>649.8</ele>
        <time>2016-07-17T07:02:42Z</time>
      </trkpt>
      <trkpt lat="42.94822" lon="-7.91964">
        <ele>649.1</ele>
        <time>2016-07-17T07:02:50Z</time>
      </trkpt>
      <trkpt lat="42.94819" lon="-7.91977">
        <ele>648.7</ele>
        <time>2016-07-17T07:02:59Z</time>
      </trkpt>
      <trkpt lat="42.94816" lon="-7.91989">
        <ele>648.4</ele>
        <time>2016-07-17T07:03:08Z</time>
      </trkpt>
      <trkpt lat="42.94813" lon="-7.92">
        <ele>647.9</ele>
        <time>2016-07-17T07:03:17Z</time>
      </trkpt>
      <trkpt lat="42.94808" lon="-7.92012">
        <ele>647.5</ele>
        <time>2016-07-17T07:03:26Z</time>
      </trkpt>
      <trkpt lat="42.94803" lon="-7.92023">
        <ele>647.1</ele>
        <time>2016-07-17T07:03:34Z</time>
      </trkpt>
      <trkpt lat="42.94799" lon="-7.92034">
        <ele>646.3</ele>
        <time>2016-07-17T07:03:42Z</time>
      </trkpt>
      <trkpt lat="42.94795" lon="-7.92046">
        <ele>645.5</ele>
        <time>2016-07-17T07:03:50Z</time>
      </trkpt>
      <trkpt lat="42.94792" lon="-7.92059">
        <ele>645</ele>
        <time>2016-07-17T07:03:59Z</time>
      </trkpt>
      <trkpt lat="42.94787" lon="-7.92071">
        <ele>644.1</ele>
        <time>2016-07-17T07:04:08Z</time>
      </trkpt>
      <trkpt lat="42.94784" lon="-7.92083">
        <ele>643.1</ele>
        <time>2016-07-17T07:04:16Z</time>
      </trkpt>
      <trkpt lat="42.94781" lon="-7.92095">
        <ele>642.6</ele>
        <time>2016-07-17T07:04:23Z</time>
      </trkpt>
      <trkpt lat="42.94777" lon="-7.92108">
        <ele>642.2</ele>
        <time>2016-07-17T07:04:33Z</time>
      </trkpt>
      <trkpt lat="42.94772" lon="-7.9212">
        <ele>641.6</ele>
        <time>2016-07-17T07:04:41Z</time>
      </trkpt>
      <trkpt lat="42.94769" lon="-7.92133">
        <ele>640.9</ele>
        <time>2016-07-17T07:04:49Z</time>
      </trkpt>
      <trkpt lat="42.94765" lon="-7.92145">
        <ele>639.4</ele>
        <time>2016-07-17T07:04:57Z</time>
      </trkpt>
      <trkpt lat="42.9476" lon="-7.92157">
        <ele>639.3</ele>
        <time>2016-07-17T07:05:05Z</time>
      </trkpt>
      <trkpt lat="42.94757" lon="-7.92168">
        <ele>638.9</ele>
        <time>2016-07-17T07:05:12Z</time>
      </trkpt>
      <trkpt lat="42.94754" lon="-7.9218">
        <ele>638.4</ele>
        <time>2016-07-17T07:05:21Z</time>
      </trkpt>
      <trkpt lat="42.94751" lon="-7.92192">
        <ele>637.6</ele>
        <time>2016-07-17T07:05:31Z</time>
      </trkpt>
      <trkpt lat="42.94747" lon="-7.92204">
        <ele>636.7</ele>
        <time>2016-07-17T07:05:40Z</time>
      </trkpt>
      <trkpt lat="42.94742" lon="-7.92217">
        <ele>636.3</ele>
        <time>2016-07-17T07:05:48Z</time>
      </trkpt>
      <trkpt lat="42.94737" lon="-7.92228">
        <ele>636</ele>
        <time>2016-07-17T07:05:55Z</time>
      </trkpt>
      <trkpt lat="42.94733" lon="-7.92239">
        <ele>635.6</ele>
        <time>2016-07-17T07:06:03Z</time>
      </trkpt>
      <trkpt lat="42.94728" lon="-7.9225">
        <ele>635.3</ele>
        <time>2016-07-17T07:06:10Z</time>
      </trkpt>
      <trkpt lat="42.94724" lon="-7.92262">
        <ele>635</ele>
        <time>2016-07-17T07:06:18Z</time>
      </trkpt>
      <trkpt lat="42.94719" lon="-7.92274">
        <ele>634.8</ele>
        <time>2016-07-17T07:06:26Z</time>
      </trkpt>
      <trkpt lat="42.94714" lon="-7.92286">
        <ele>634.6</ele>
        <time>2016-07-17T07:06:34Z</time>
      </trkpt>
      <trkpt lat="42.9471" lon="-7.92298">
        <ele>634</ele>
        <time>2016-07-17T07:06:43Z</time>
      </trkpt>
      <trkpt lat="42.94706" lon="-7.92309">
        <ele>633</ele>
        <time>2016-07-17T07:06:51Z</time>
      </trkpt>
      <trkpt lat="42.94702" lon="-7.92321">
        <ele>632.2</ele>
        <time>2016-07-17T07:07:00Z</time>
      </trkpt>
      <trkpt lat="42.94698" lon="-7.92333">
        <ele>631.8</ele>
        <time>2016-07-17T07:07:08Z</time>
      </trkpt>
      <trkpt lat="42.94693" lon="-7.92344">
        <ele>631.2</ele>
        <time>2016-07-17T07:07:16Z</time>
      </trkpt>
      <trkpt lat="42.94684" lon="-7.92347">
        <ele>631</ele>
        <time>2016-07-17T07:07:27Z</time>
      </trkpt>
      <trkpt lat="42.94675" lon="-7.92349">
        <ele>630.2</ele>
        <time>2016-07-17T07:07:38Z</time>
      </trkpt>
      <trkpt lat="42.94666" lon="-7.92355">
        <ele>629</ele>
        <time>2016-07-17T07:07:49Z</time>
      </trkpt>
      <trkpt lat="42.9466" lon="-7.92365">
        <ele>627.9</ele>
        <time>2016-07-17T07:08:00Z</time>
      </trkpt>
      <trkpt lat="42.94653" lon="-7.92375">
        <ele>627.3</ele>
        <time>2016-07-17T07:08:10Z</time>
      </trkpt>
      <trkpt lat="42.94647" lon="-7.92385">
        <ele>626.9</ele>
        <time>2016-07-17T07:08:19Z</time>
      </trkpt>
      <trkpt lat="42.94641" lon="-7.92395">
        <ele>626.3</ele>
        <time>2016-07-17T07:08:28Z</time>
      </trkpt>
      <trkpt lat="42.94634" lon="-7.92404">
        <ele>625.6</ele>
        <time>2016-07-17T07:08:37Z</time>
      </trkpt>
      <trkpt lat="42.94628" lon="-7.92414">
        <ele>625</ele>
        <time>2016-07-17T07:08:45Z</time>
      </trkpt>
      <trkpt lat="42.94622" lon="-7.92424">
        <ele>624.1</ele>
        <time>2016-07-17T07:08:53Z</time>
      </trkpt>
      <trkpt lat="42.94616" lon="-7.92434">
        <ele>623.4</ele>
        <time>2016-07-17T07:09:03Z</time>
      </trkpt>
      <trkpt lat="42.9461" lon="-7.92443">
        <ele>622.8</ele>
        <time>2016-07-17T07:09:10Z</time>
      </trkpt>
      <trkpt lat="42.94603" lon="-7.92453">
        <ele>622.4</ele>
        <time>2016-07-17T07:09:18Z</time>
      </trkpt>
      <trkpt lat="42.94597" lon="-7.92463">
        <ele>621.7</ele>
        <time>2016-07-17T07:09:26Z</time>
      </trkpt>
      <trkpt lat="42.94591" lon="-7.92473">
        <ele>621.1</ele>
        <time>2016-07-17T07:09:33Z</time>
      </trkpt>
      <trkpt lat="42.94585" lon="-7.92483">
        <ele>620.6</ele>
        <time>2016-07-17T07:09:40Z</time>
      </trkpt>
      <trkpt lat="42.94578" lon="-7.92491">
        <ele>620.2</ele>
        <time>2016-07-17T07:09:48Z</time>
      </trkpt>
      <trkpt lat="42.94572" lon="-7.925">
        <ele>619.8</ele>
        <time>2016-07-17T07:09:57Z</time>
      </trkpt>
      <trkpt lat="42.94563" lon="-7.92508">
        <ele>619.4</ele>
        <time>2016-07-17T07:10:05Z</time>
      </trkpt>
      <trkpt lat="42.94555" lon="-7.92516">
        <ele>619</ele>
        <time>2016-07-17T07:10:14Z</time>
      </trkpt>
      <trkpt lat="42.9455" lon="-7.92528">
        <ele>618.1</ele>
        <time>2016-07-17T07:10:23Z</time>
      </trkpt>
      <trkpt lat="42.94546" lon="-7.92539">
        <ele>617.6</ele>
        <time>2016-07-17T07:10:31Z</time>
      </trkpt>
      <trkpt lat="42.9454" lon="-7.92548">
        <ele>617.3</ele>
        <time>2016-07-17T07:10:39Z</time>
      </trkpt>
      <trkpt lat="42.94533" lon="-7.92558">
        <ele>617</ele>
        <time>2016-07-17T07:10:48Z</time>
      </trkpt>
      <trkpt lat="42.94527" lon="-7.92567">
        <ele>616.5</ele>
        <time>2016-07-17T07:10:56Z</time>
      </trkpt>
      <trkpt lat="42.94521" lon="-7.92576">
        <ele>615.7</ele>
        <time>2016-07-17T07:11:04Z</time>
      </trkpt>
      <trkpt lat="42.94514" lon="-7.92585">
        <ele>615.2</ele>
        <time>2016-07-17T07:11:13Z</time>
      </trkpt>
      <trkpt lat="42.94509" lon="-7.92596">
        <ele>615</ele>
        <time>2016-07-17T07:11:21Z</time>
      </trkpt>
      <trkpt lat="42.94504" lon="-7.92607">
        <ele>614.2</ele>
        <time>2016-07-17T07:11:31Z</time>
      </trkpt>
      <trkpt lat="42.94499" lon="-7.92618">
        <ele>613.4</ele>
        <time>2016-07-17T07:11:40Z</time>
      </trkpt>
      <trkpt lat="42.94494" lon="-7.92629">
        <ele>613.3</ele>
        <time>2016-07-17T07:11:48Z</time>
      </trkpt>
      <trkpt lat="42.94489" lon="-7.92641">
        <ele>613.1</ele>
        <time>2016-07-17T07:11:57Z</time>
      </trkpt>
      <trkpt lat="42.94485" lon="-7.92653">
        <ele>612.8</ele>
        <time>2016-07-17T07:12:05Z</time>
      </trkpt>
      <trkpt lat="42.94482" lon="-7.92666">
        <ele>612.2</ele>
        <time>2016-07-17T07:12:13Z</time>
      </trkpt>
      <trkpt lat="42.94478" lon="-7.92677">
        <ele>611.6</ele>
        <time>2016-07-17T07:12:21Z</time>
      </trkpt>
      <trkpt lat="42.94474" lon="-7.92688">
        <ele>611</ele>
        <time>2016-07-17T07:12:29Z</time>
      </trkpt>
      <trkpt lat="42.94469" lon="-7.92699">
        <ele>610.5</ele>
        <time>2016-07-17T07:12:36Z</time>
      </trkpt>
      <trkpt lat="42.94465" lon="-7.92711">
        <ele>610.1</ele>
        <time>2016-07-17T07:12:44Z</time>
      </trkpt>
      <trkpt lat="42.94461" lon="-7.92723">
        <ele>609.8</ele>
        <time>2016-07-17T07:12:52Z</time>
      </trkpt>
      <trkpt lat="42.94458" lon="-7.92736">
        <ele>608.7</ele>
        <time>2016-07-17T07:13:01Z</time>
      </trkpt>
      <trkpt lat="42.94453" lon="-7.92748">
        <ele>607.4</ele>
        <time>2016-07-17T07:13:10Z</time>
      </trkpt>
      <trkpt lat="42.94447" lon="-7.92757">
        <ele>606.8</ele>
        <time>2016-07-17T07:13:17Z</time>
      </trkpt>
      <trkpt lat="42.94439" lon="-7.92766">
        <ele>606.4</ele>
        <time>2016-07-17T07:13:25Z</time>
      </trkpt>
      <trkpt lat="42.94431" lon="-7.92774">
        <ele>605.5</ele>
        <time>2016-07-17T07:13:33Z</time>
      </trkpt>
      <trkpt lat="42.94424" lon="-7.92782">
        <ele>604.7</ele>
        <time>2016-07-17T07:13:45Z</time>
      </trkpt>
      <trkpt lat="42.94418" lon="-7.92791">
        <ele>604</ele>
        <time>2016-07-17T07:13:55Z</time>
      </trkpt>
      <trkpt lat="42.94411" lon="-7.928">
        <ele>603.1</ele>
        <time>2016-07-17T07:14:04Z</time>
      </trkpt>
      <trkpt lat="42.94406" lon="-7.9281">
        <ele>602.6</ele>
        <time>2016-07-17T07:14:12Z</time>
      </trkpt>
      <trkpt lat="42.94401" lon="-7.92821">
        <ele>601.7</ele>
        <time>2016-07-17T07:14:21Z</time>
      </trkpt>
      <trkpt lat="42.94394" lon="-7.9283">
        <ele>600.9</ele>
        <time>2016-07-17T07:14:29Z</time>
      </trkpt>
      <trkpt lat="42.94389" lon="-7.92841">
        <ele>600</ele>
        <time>2016-07-17T07:14:38Z</time>
      </trkpt>
      <trkpt lat="42.94384" lon="-7.92851">
        <ele>599.1</ele>
        <time>2016-07-17T07:14:46Z</time>
      </trkpt>
      <trkpt lat="42.94378" lon="-7.92863">
        <ele>598</ele>
        <time>2016-07-17T07:14:55Z</time>
      </trkpt>
      <trkpt lat="42.94372" lon="-7.92872">
        <ele>597.5</ele>
        <time>2016-07-17T07:15:05Z</time>
      </trkpt>
      <trkpt lat="42.94366" lon="-7.92882">
        <ele>596.9</ele>
        <time>2016-07-17T07:15:13Z</time>
      </trkpt>
      <trkpt lat="42.9436" lon="-7.92892">
        <ele>596</ele>
        <time>2016-07-17T07:15:22Z</time>
      </trkpt>
      <trkpt lat="42.94354" lon="-7.92902">
        <ele>594.9</ele>
        <time>2016-07-17T07:15:34Z</time>
      </trkpt>
      <trkpt lat="42.94349" lon="-7.92913">
        <ele>594</ele>
        <time>2016-07-17T07:15:44Z</time>
      </trkpt>
      <trkpt lat="42.94342" lon="-7.92922">
        <ele>593.2</ele>
        <time>2016-07-17T07:15:51Z</time>
      </trkpt>
      <trkpt lat="42.94336" lon="-7.92932">
        <ele>591.7</ele>
        <time>2016-07-17T07:15:59Z</time>
      </trkpt>
      <trkpt lat="42.9433" lon="-7.92942">
        <ele>590.6</ele>
        <time>2016-07-17T07:16:08Z</time>
      </trkpt>
      <trkpt lat="42.94323" lon="-7.92951">
        <ele>589.6</ele>
        <time>2016-07-17T07:16:16Z</time>
      </trkpt>
      <trkpt lat="42.94316" lon="-7.92959">
        <ele>588.7</ele>
        <time>2016-07-17T07:16:29Z</time>
      </trkpt>
      <trkpt lat="42.9431" lon="-7.92969">
        <ele>588.1</ele>
        <time>2016-07-17T07:16:40Z</time>
      </trkpt>
      <trkpt lat="42.94304" lon="-7.92978">
        <ele>587.3</ele>
        <time>2016-07-17T07:16:50Z</time>
      </trkpt>
      <trkpt lat="42.94297" lon="-7.92986">
        <ele>586.4</ele>
        <time>2016-07-17T07:16:59Z</time>
      </trkpt>
      <trkpt lat="42.94291" lon="-7.92997">
        <ele>585.4</ele>
        <time>2016-07-17T07:17:08Z</time>
      </trkpt>
      <trkpt lat="42.94283" lon="-7.93005">
        <ele>584.7</ele>
        <time>2016-07-17T07:17:15Z</time>
      </trkpt>
      <trkpt lat="42.94276" lon="-7.93013">
        <ele>584.2</ele>
        <time>2016-07-17T07:17:21Z</time>
      </trkpt>
      <trkpt lat="42.94268" lon="-7.93021">
        <ele>583.3</ele>
        <time>2016-07-17T07:17:28Z</time>
      </trkpt>
      <trkpt lat="42.94262" lon="-7.93032">
        <ele>582.1</ele>
        <time>2016-07-17T07:17:38Z</time>
      </trkpt>
      <trkpt lat="42.94257" lon="-7.93043">
        <ele>581.5</ele>
        <time>2016-07-17T07:17:47Z</time>
      </trkpt>
      <trkpt lat="42.94252" lon="-7.93054">
        <ele>580.8</ele>
        <time>2016-07-17T07:17:56Z</time>
      </trkpt>
      <trkpt lat="42.94247" lon="-7.93064">
        <ele>579.9</ele>
        <time>2016-07-17T07:18:07Z</time>
      </trkpt>
      <trkpt lat="42.94242" lon="-7.93075">
        <ele>578.6</ele>
        <time>2016-07-17T07:18:16Z</time>
      </trkpt>
      <trkpt lat="42.94238" lon="-7.93088">
        <ele>577.3</ele>
        <time>2016-07-17T07:18:27Z</time>
      </trkpt>
      <trkpt lat="42.94237" lon="-7.93101">
        <ele>576.7</ele>
        <time>2016-07-17T07:18:37Z</time>
      </trkpt>
      <trkpt lat="42.94234" lon="-7.93113">
        <ele>575.5</ele>
        <time>2016-07-17T07:18:47Z</time>
      </trkpt>
      <trkpt lat="42.94227" lon="-7.93121">
        <ele>574</ele>
        <time>2016-07-17T07:19:10Z</time>
      </trkpt>
      <trkpt lat="42.94229" lon="-7.93133">
        <ele>573.1</ele>
        <time>2016-07-17T07:21:09Z</time>
      </trkpt>
      <trkpt lat="42.94228" lon="-7.93146">
        <ele>572.1</ele>
        <time>2016-07-17T07:21:22Z</time>
      </trkpt>
      <trkpt lat="42.94228" lon="-7.93158">
        <ele>571.6</ele>
        <time>2016-07-17T07:21:31Z</time>
      </trkpt>
      <trkpt lat="42.94228" lon="-7.93172">
        <ele>570.8</ele>
        <time>2016-07-17T07:21:41Z</time>
      </trkpt>
      <trkpt lat="42.94229" lon="-7.93184">
        <ele>570.5</ele>
        <time>2016-07-17T07:21:51Z</time>
      </trkpt>
      <trkpt lat="42.94228" lon="-7.93196">
        <ele>569.9</ele>
        <time>2016-07-17T07:22:13Z</time>
      </trkpt>
      <trkpt lat="42.94227" lon="-7.9321">
        <ele>569.8</ele>
        <time>2016-07-17T07:22:37Z</time>
      </trkpt>
      <trkpt lat="42.94229" lon="-7.93223">
        <ele>569.3</ele>
        <time>2016-07-17T07:22:48Z</time>
      </trkpt>
      <trkpt lat="42.94231" lon="-7.93236">
        <ele>568.6</ele>
        <time>2016-07-17T07:22:59Z</time>
      </trkpt>
      <trkpt lat="42.94232" lon="-7.93249">
        <ele>568.2</ele>
        <time>2016-07-17T07:23:08Z</time>
      </trkpt>
      <trkpt lat="42.94234" lon="-7.93261">
        <ele>567.6</ele>
        <time>2016-07-17T07:23:16Z</time>
      </trkpt>
      <trkpt lat="42.94238" lon="-7.93273">
        <ele>567.2</ele>
        <time>2016-07-17T07:23:24Z</time>
      </trkpt>
      <trkpt lat="42.94244" lon="-7.93284">
        <ele>566.7</ele>
        <time>2016-07-17T07:23:34Z</time>
      </trkpt>
      <trkpt lat="42.94249" lon="-7.93295">
        <ele>566.3</ele>
        <time>2016-07-17T07:23:43Z</time>
      </trkpt>
      <trkpt lat="42.94252" lon="-7.93307">
        <ele>565.8</ele>
        <time>2016-07-17T07:23:56Z</time>
      </trkpt>
      <trkpt lat="42.94259" lon="-7.93318">
        <ele>565.3</ele>
        <time>2016-07-17T07:24:05Z</time>
      </trkpt>
      <trkpt lat="42.94264" lon="-7.9333">
        <ele>564.7</ele>
        <time>2016-07-17T07:24:12Z</time>
      </trkpt>
      <trkpt lat="42.94266" lon="-7.93343">
        <ele>564.2</ele>
        <time>2016-07-17T07:24:19Z</time>
      </trkpt>
      <trkpt lat="42.94261" lon="-7.93355">
        <ele>563.7</ele>
        <time>2016-07-17T07:24:26Z</time>
      </trkpt>
      <trkpt lat="42.94262" lon="-7.93368">
        <ele>561.9</ele>
        <time>2016-07-17T07:24:38Z</time>
      </trkpt>
      <trkpt lat="42.94267" lon="-7.93379">
        <ele>561.2</ele>
        <time>2016-07-17T07:24:45Z</time>
      </trkpt>
      <trkpt lat="42.94275" lon="-7.93386">
        <ele>560.3</ele>
        <time>2016-07-17T07:24:56Z</time>
      </trkpt>
      <trkpt lat="42.94281" lon="-7.93396">
        <ele>559.2</ele>
        <time>2016-07-17T07:25:06Z</time>
      </trkpt>
      <trkpt lat="42.94287" lon="-7.93407">
        <ele>558.3</ele>
        <time>2016-07-17T07:25:16Z</time>
      </trkpt>
      <trkpt lat="42.94296" lon="-7.93413">
        <ele>557.5</ele>
        <time>2016-07-17T07:25:25Z</time>
      </trkpt>
      <trkpt lat="42.94304" lon="-7.93419">
        <ele>557.1</ele>
        <time>2016-07-17T07:25:34Z</time>
      </trkpt>
      <trkpt lat="42.94314" lon="-7.93423">
        <ele>556.9</ele>
        <time>2016-07-17T07:25:43Z</time>
      </trkpt>
      <trkpt lat="42.94323" lon="-7.93426">
        <ele>556.4</ele>
        <time>2016-07-17T07:25:50Z</time>
      </trkpt>
      <trkpt lat="42.94332" lon="-7.93428">
        <ele>555.9</ele>
        <time>2016-07-17T07:26:00Z</time>
      </trkpt>
      <trkpt lat="42.94337" lon="-7.93439">
        <ele>556.1</ele>
        <time>2016-07-17T07:26:31Z</time>
      </trkpt>
      <trkpt lat="42.94338" lon="-7.93452">
        <ele>556.1</ele>
        <time>2016-07-17T07:26:38Z</time>
      </trkpt>
      <trkpt lat="42.94339" lon="-7.93465">
        <ele>556.1</ele>
        <time>2016-07-17T07:26:46Z</time>
      </trkpt>
      <trkpt lat="42.94342" lon="-7.93478">
        <ele>556.1</ele>
        <time>2016-07-17T07:26:55Z</time>
      </trkpt>
      <trkpt lat="42.94346" lon="-7.93489">
        <ele>556.7</ele>
        <time>2016-07-17T07:27:05Z</time>
      </trkpt>
      <trkpt lat="42.94348" lon="-7.93502">
        <ele>557</ele>
        <time>2016-07-17T07:27:14Z</time>
      </trkpt>
      <trkpt lat="42.94351" lon="-7.93514">
        <ele>557.1</ele>
        <time>2016-07-17T07:27:23Z</time>
      </trkpt>
      <trkpt lat="42.94353" lon="-7.93526">
        <ele>556.3</ele>
        <time>2016-07-17T07:27:34Z</time>
      </trkpt>
      <trkpt lat="42.94356" lon="-7.93538">
        <ele>555.6</ele>
        <time>2016-07-17T07:27:49Z</time>
      </trkpt>
      <trkpt lat="42.94356" lon="-7.93551">
        <ele>554.9</ele>
        <time>2016-07-17T07:28:00Z</time>
      </trkpt>
      <trkpt lat="42.94355" lon="-7.93563">
        <ele>554.7</ele>
        <time>2016-07-17T07:28:09Z</time>
      </trkpt>
      <trkpt lat="42.94354" lon="-7.93575">
        <ele>554.5</ele>
        <time>2016-07-17T07:28:17Z</time>
      </trkpt>
      <trkpt lat="42.94351" lon="-7.93587">
        <ele>554.5</ele>
        <time>2016-07-17T07:28:25Z</time>
      </trkpt>
      <trkpt lat="42.94349" lon="-7.936">
        <ele>554.1</ele>
        <time>2016-07-17T07:28:33Z</time>
      </trkpt>
      <trkpt lat="42.94347" lon="-7.93613">
        <ele>553.8</ele>
        <time>2016-07-17T07:28:41Z</time>
      </trkpt>
      <trkpt lat="42.94344" lon="-7.93625">
        <ele>552.7</ele>
        <time>2016-07-17T07:28:49Z</time>
      </trkpt>
      <trkpt lat="42.94343" lon="-7.93637">
        <ele>551.9</ele>
        <time>2016-07-17T07:28:58Z</time>
      </trkpt>
      <trkpt lat="42.94343" lon="-7.9365">
        <ele>551.1</ele>
        <time>2016-07-17T07:29:06Z</time>
      </trkpt>
      <trkpt lat="42.94345" lon="-7.93663">
        <ele>550.2</ele>
        <time>2016-07-17T07:29:15Z</time>
      </trkpt>
      <trkpt lat="42.94346" lon="-7.93676">
        <ele>549.5</ele>
        <time>2016-07-17T07:29:23Z</time>
      </trkpt>
      <trkpt lat="42.94348" lon="-7.93689">
        <ele>548.1</ele>
        <time>2016-07-17T07:29:32Z</time>
      </trkpt>
      <trkpt lat="42.94351" lon="-7.93701">
        <ele>547.3</ele>
        <time>2016-07-17T07:29:39Z</time>
      </trkpt>
      <trkpt lat="42.94353" lon="-7.93714">
        <ele>546.3</ele>
        <time>2016-07-17T07:29:48Z</time>
      </trkpt>
      <trkpt lat="42.94354" lon="-7.93726">
        <ele>545.4</ele>
        <time>2016-07-17T07:29:56Z</time>
      </trkpt>
      <trkpt lat="42.94355" lon="-7.9374">
        <ele>544.8</ele>
        <time>2016-07-17T07:30:03Z</time>
      </trkpt>
      <trkpt lat="42.94356" lon="-7.93753">
        <ele>544.1</ele>
        <time>2016-07-17T07:30:10Z</time>
      </trkpt>
      <trkpt lat="42.94357" lon="-7.93767">
        <ele>543.2</ele>
        <time>2016-07-17T07:30:17Z</time>
      </trkpt>
      <trkpt lat="42.94359" lon="-7.93781">
        <ele>542.5</ele>
        <time>2016-07-17T07:30:25Z</time>
      </trkpt>
      <trkpt lat="42.94361" lon="-7.93794">
        <ele>541.9</ele>
        <time>2016-07-17T07:30:33Z</time>
      </trkpt>
      <trkpt lat="42.94364" lon="-7.93806">
        <ele>541.6</ele>
        <time>2016-07-17T07:30:40Z</time>
      </trkpt>
      <trkpt lat="42.94368" lon="-7.93818">
        <ele>541.4</ele>
        <time>2016-07-17T07:30:47Z</time>
      </trkpt>
      <trkpt lat="42.94371" lon="-7.9383">
        <ele>541.2</ele>
        <time>2016-07-17T07:30:55Z</time>
      </trkpt>
      <trkpt lat="42.94369" lon="-7.93843">
        <ele>540.5</ele>
        <time>2016-07-17T07:31:04Z</time>
      </trkpt>
      <trkpt lat="42.94366" lon="-7.93855">
        <ele>539.8</ele>
        <time>2016-07-17T07:31:13Z</time>
      </trkpt>
      <trkpt lat="42.94365" lon="-7.93868">
        <ele>538.4</ele>
        <time>2016-07-17T07:31:23Z</time>
      </trkpt>
      <trkpt lat="42.94367" lon="-7.93881">
        <ele>536.7</ele>
        <time>2016-07-17T07:31:33Z</time>
      </trkpt>
      <trkpt lat="42.94366" lon="-7.93894">
        <ele>535.5</ele>
        <time>2016-07-17T07:31:44Z</time>
      </trkpt>
      <trkpt lat="42.94367" lon="-7.93906">
        <ele>533.9</ele>
        <time>2016-07-17T07:31:55Z</time>
      </trkpt>
      <trkpt lat="42.94367" lon="-7.93919">
        <ele>532</ele>
        <time>2016-07-17T07:32:04Z</time>
      </trkpt>
      <trkpt lat="42.94365" lon="-7.93931">
        <ele>530.7</ele>
        <time>2016-07-17T07:32:13Z</time>
      </trkpt>
      <trkpt lat="42.94361" lon="-7.93944">
        <ele>529.5</ele>
        <time>2016-07-17T07:32:22Z</time>
      </trkpt>
      <trkpt lat="42.94356" lon="-7.93955">
        <ele>527.2</ele>
        <time>2016-07-17T07:32:32Z</time>
      </trkpt>
      <trkpt lat="42.9435" lon="-7.93965">
        <ele>525.2</ele>
        <time>2016-07-17T07:32:45Z</time>
      </trkpt>
      <trkpt lat="42.94341" lon="-7.93971">
        <ele>523.8</ele>
        <time>2016-07-17T07:32:56Z</time>
      </trkpt>
      <trkpt lat="42.94331" lon="-7.93975">
        <ele>522.5</ele>
        <time>2016-07-17T07:33:04Z</time>
      </trkpt>
      <trkpt lat="42.94323" lon="-7.93982">
        <ele>521.5</ele>
        <time>2016-07-17T07:33:11Z</time>
      </trkpt>
      <trkpt lat="42.94315" lon="-7.93989">
        <ele>520.7</ele>
        <time>2016-07-17T07:33:18Z</time>
      </trkpt>
      <trkpt lat="42.94307" lon="-7.93997">
        <ele>519.5</ele>
        <time>2016-07-17T07:33:27Z</time>
      </trkpt>
      <trkpt lat="42.943" lon="-7.94006">
        <ele>518.3</ele>
        <time>2016-07-17T07:33:36Z</time>
      </trkpt>
      <trkpt lat="42.94291" lon="-7.94015">
        <ele>517.2</ele>
        <time>2016-07-17T07:33:43Z</time>
      </trkpt>
      <trkpt lat="42.94284" lon="-7.94023">
        <ele>516.4</ele>
        <time>2016-07-17T07:33:50Z</time>
      </trkpt>
      <trkpt lat="42.94277" lon="-7.94031">
        <ele>516</ele>
        <time>2016-07-17T07:33:57Z</time>
      </trkpt>
      <trkpt lat="42.9427" lon="-7.9404">
        <ele>515.6</ele>
        <time>2016-07-17T07:34:05Z</time>
      </trkpt>
      <trkpt lat="42.94263" lon="-7.9405">
        <ele>514.5</ele>
        <time>2016-07-17T07:34:19Z</time>
      </trkpt>
      <trkpt lat="42.94258" lon="-7.94061">
        <ele>513.9</ele>
        <time>2016-07-17T07:34:27Z</time>
      </trkpt>
      <trkpt lat="42.94253" lon="-7.94072">
        <ele>513.4</ele>
        <time>2016-07-17T07:34:35Z</time>
      </trkpt>
      <trkpt lat="42.94248" lon="-7.94083">
        <ele>513</ele>
        <time>2016-07-17T07:34:43Z</time>
      </trkpt>
      <trkpt lat="42.94243" lon="-7.94095">
        <ele>512.8</ele>
        <time>2016-07-17T07:34:52Z</time>
      </trkpt>
      <trkpt lat="42.94238" lon="-7.94107">
        <ele>512.3</ele>
        <time>2016-07-17T07:35:00Z</time>
      </trkpt>
      <trkpt lat="42.94234" lon="-7.94119">
        <ele>511.6</ele>
        <time>2016-07-17T07:35:08Z</time>
      </trkpt>
      <trkpt lat="42.9423" lon="-7.9413">
        <ele>511.5</ele>
        <time>2016-07-17T07:35:19Z</time>
      </trkpt>
      <trkpt lat="42.94228" lon="-7.94142">
        <ele>511.3</ele>
        <time>2016-07-17T07:35:29Z</time>
      </trkpt>
      <trkpt lat="42.94228" lon="-7.94156">
        <ele>511.1</ele>
        <time>2016-07-17T07:35:39Z</time>
      </trkpt>
      <trkpt lat="42.9423" lon="-7.94169">
        <ele>511.1</ele>
        <time>2016-07-17T07:35:48Z</time>
      </trkpt>
      <trkpt lat="42.94233" lon="-7.94182">
        <ele>511.1</ele>
        <time>2016-07-17T07:35:58Z</time>
      </trkpt>
      <trkpt lat="42.94235" lon="-7.94195">
        <ele>510.9</ele>
        <time>2016-07-17T07:36:08Z</time>
      </trkpt>
      <trkpt lat="42.94236" lon="-7.94208">
        <ele>510.7</ele>
        <time>2016-07-17T07:36:17Z</time>
      </trkpt>
      <trkpt lat="42.94234" lon="-7.9422">
        <ele>510.8</ele>
        <time>2016-07-17T07:36:26Z</time>
      </trkpt>
      <trkpt lat="42.94233" lon="-7.94233">
        <ele>511.1</ele>
        <time>2016-07-17T07:36:36Z</time>
      </trkpt>
      <trkpt lat="42.9423" lon="-7.94246">
        <ele>511.5</ele>
        <time>2016-07-17T07:36:45Z</time>
      </trkpt>
      <trkpt lat="42.94227" lon="-7.94258">
        <ele>512.4</ele>
        <time>2016-07-17T07:36:53Z</time>
      </trkpt>
      <trkpt lat="42.94223" lon="-7.9427">
        <ele>513.2</ele>
        <time>2016-07-17T07:37:03Z</time>
      </trkpt>
      <trkpt lat="42.94219" lon="-7.94283">
        <ele>514.6</ele>
        <time>2016-07-17T07:37:12Z</time>
      </trkpt>
      <trkpt lat="42.94214" lon="-7.94293">
        <ele>515.6</ele>
        <time>2016-07-17T07:37:21Z</time>
      </trkpt>
      <trkpt lat="42.94208" lon="-7.94304">
        <ele>516.4</ele>
        <time>2016-07-17T07:37:30Z</time>
      </trkpt>
      <trkpt lat="42.94203" lon="-7.94316">
        <ele>517.4</ele>
        <time>2016-07-17T07:37:43Z</time>
      </trkpt>
      <trkpt lat="42.94198" lon="-7.94327">
        <ele>517.6</ele>
        <time>2016-07-17T07:37:52Z</time>
      </trkpt>
      <trkpt lat="42.94193" lon="-7.94339">
        <ele>517.5</ele>
        <time>2016-07-17T07:38:02Z</time>
      </trkpt>
      <trkpt lat="42.94189" lon="-7.94351">
        <ele>517.5</ele>
        <time>2016-07-17T07:38:11Z</time>
      </trkpt>
      <trkpt lat="42.94185" lon="-7.94363">
        <ele>516.8</ele>
        <time>2016-07-17T07:38:20Z</time>
      </trkpt>
      <trkpt lat="42.9418" lon="-7.94374">
        <ele>516.1</ele>
        <time>2016-07-17T07:38:27Z</time>
      </trkpt>
      <trkpt lat="42.94174" lon="-7.94385">
        <ele>515.8</ele>
        <time>2016-07-17T07:38:35Z</time>
      </trkpt>
      <trkpt lat="42.94169" lon="-7.94396">
        <ele>515.3</ele>
        <time>2016-07-17T07:38:42Z</time>
      </trkpt>
      <trkpt lat="42.94164" lon="-7.94406">
        <ele>515.3</ele>
        <time>2016-07-17T07:38:49Z</time>
      </trkpt>
      <trkpt lat="42.94158" lon="-7.94418">
        <ele>514.8</ele>
        <time>2016-07-17T07:38:57Z</time>
      </trkpt>
      <trkpt lat="42.94153" lon="-7.9443">
        <ele>514</ele>
        <time>2016-07-17T07:39:05Z</time>
      </trkpt>
      <trkpt lat="42.94147" lon="-7.94441">
        <ele>513.3</ele>
        <time>2016-07-17T07:39:13Z</time>
      </trkpt>
      <trkpt lat="42.94141" lon="-7.94453">
        <ele>512.7</ele>
        <time>2016-07-17T07:39:22Z</time>
      </trkpt>
      <trkpt lat="42.94137" lon="-7.94464">
        <ele>511.8</ele>
        <time>2016-07-17T07:39:31Z</time>
      </trkpt>
      <trkpt lat="42.94137" lon="-7.94476">
        <ele>508.9</ele>
        <time>2016-07-17T07:40:18Z</time>
      </trkpt>
      <trkpt lat="42.94131" lon="-7.94485">
        <ele>508.3</ele>
        <time>2016-07-17T07:40:41Z</time>
      </trkpt>
      <trkpt lat="42.94125" lon="-7.94496">
        <ele>507.9</ele>
        <time>2016-07-17T07:40:52Z</time>
      </trkpt>
      <trkpt lat="42.94119" lon="-7.94507">
        <ele>507</ele>
        <time>2016-07-17T07:41:01Z</time>
      </trkpt>
      <trkpt lat="42.94113" lon="-7.94518">
        <ele>506.2</ele>
        <time>2016-07-17T07:41:09Z</time>
      </trkpt>
      <trkpt lat="42.94109" lon="-7.94529">
        <ele>505.2</ele>
        <time>2016-07-17T07:41:17Z</time>
      </trkpt>
      <trkpt lat="42.94103" lon="-7.9454">
        <ele>504.5</ele>
        <time>2016-07-17T07:41:25Z</time>
      </trkpt>
      <trkpt lat="42.94097" lon="-7.9455">
        <ele>504.1</ele>
        <time>2016-07-17T07:41:33Z</time>
      </trkpt>
      <trkpt lat="42.94092" lon="-7.9456">
        <ele>503.6</ele>
        <time>2016-07-17T07:41:41Z</time>
      </trkpt>
      <trkpt lat="42.94086" lon="-7.94571">
        <ele>502.9</ele>
        <time>2016-07-17T07:41:50Z</time>
      </trkpt>
      <trkpt lat="42.94081" lon="-7.94583">
        <ele>501.5</ele>
        <time>2016-07-17T07:41:59Z</time>
      </trkpt>
      <trkpt lat="42.94077" lon="-7.94595">
        <ele>500</ele>
        <time>2016-07-17T07:42:08Z</time>
      </trkpt>
      <trkpt lat="42.94072" lon="-7.94607">
        <ele>498</ele>
        <time>2016-07-17T07:42:17Z</time>
      </trkpt>
      <trkpt lat="42.94068" lon="-7.94618">
        <ele>496.7</ele>
        <time>2016-07-17T07:42:24Z</time>
      </trkpt>
      <trkpt lat="42.94063" lon="-7.94629">
        <ele>494.9</ele>
        <time>2016-07-17T07:42:32Z</time>
      </trkpt>
      <trkpt lat="42.94058" lon="-7.94641">
        <ele>493.8</ele>
        <time>2016-07-17T07:42:40Z</time>
      </trkpt>
      <trkpt lat="42.94055" lon="-7.94653">
        <ele>492.5</ele>
        <time>2016-07-17T07:42:48Z</time>
      </trkpt>
      <trkpt lat="42.94051" lon="-7.94664">
        <ele>491.4</ele>
        <time>2016-07-17T07:42:56Z</time>
      </trkpt>
      <trkpt lat="42.94054" lon="-7.94676">
        <ele>490.2</ele>
        <time>2016-07-17T07:43:05Z</time>
      </trkpt>
      <trkpt lat="42.94059" lon="-7.94687">
        <ele>489.1</ele>
        <time>2016-07-17T07:43:14Z</time>
      </trkpt>
      <trkpt lat="42.94064" lon="-7.94698">
        <ele>487.8</ele>
        <time>2016-07-17T07:43:22Z</time>
      </trkpt>
      <trkpt lat="42.94071" lon="-7.94707">
        <ele>486.5</ele>
        <time>2016-07-17T07:43:31Z</time>
      </trkpt>
      <trkpt lat="42.94079" lon="-7.94716">
        <ele>485</ele>
        <time>2016-07-17T07:43:42Z</time>
      </trkpt>
      <trkpt lat="42.94087" lon="-7.94721">
        <ele>483.7</ele>
        <time>2016-07-17T07:43:52Z</time>
      </trkpt>
      <trkpt lat="42.94097" lon="-7.94723">
        <ele>482.5</ele>
        <time>2016-07-17T07:44:02Z</time>
      </trkpt>
      <trkpt lat="42.94107" lon="-7.94724">
        <ele>481.5</ele>
        <time>2016-07-17T07:44:11Z</time>
      </trkpt>
      <trkpt lat="42.94116" lon="-7.94725">
        <ele>480.5</ele>
        <time>2016-07-17T07:44:19Z</time>
      </trkpt>
      <trkpt lat="42.94125" lon="-7.94727">
        <ele>479.3</ele>
        <time>2016-07-17T07:44:26Z</time>
      </trkpt>
      <trkpt lat="42.94134" lon="-7.94729">
        <ele>478.6</ele>
        <time>2016-07-17T07:44:33Z</time>
      </trkpt>
      <trkpt lat="42.94143" lon="-7.9473">
        <ele>477.8</ele>
        <time>2016-07-17T07:44:41Z</time>
      </trkpt>
      <trkpt lat="42.94153" lon="-7.94732">
        <ele>476.8</ele>
        <time>2016-07-17T07:44:50Z</time>
      </trkpt>
      <trkpt lat="42.94163" lon="-7.94731">
        <ele>475.4</ele>
        <time>2016-07-17T07:45:00Z</time>
      </trkpt>
      <trkpt lat="42.94172" lon="-7.94732">
        <ele>474.7</ele>
        <time>2016-07-17T07:45:07Z</time>
      </trkpt>
      <trkpt lat="42.9418" lon="-7.94737">
        <ele>473.6</ele>
        <time>2016-07-17T07:45:16Z</time>
      </trkpt>
      <trkpt lat="42.94188" lon="-7.94745">
        <ele>472.6</ele>
        <time>2016-07-17T07:45:42Z</time>
      </trkpt>
      <trkpt lat="42.94197" lon="-7.94743">
        <ele>472.8</ele>
        <time>2016-07-17T07:46:40Z</time>
      </trkpt>
      <trkpt lat="42.94203" lon="-7.94751">
        <ele>471.7</ele>
        <time>2016-07-17T07:50:55Z</time>
      </trkpt>
      <trkpt lat="42.94197" lon="-7.94742">
        <ele>472.4</ele>
        <time>2016-07-17T07:51:35Z</time>
      </trkpt>
      <trkpt lat="42.9419" lon="-7.94734">
        <ele>471.8</ele>
        <time>2016-07-17T07:52:08Z</time>
      </trkpt>
      <trkpt lat="42.94192" lon="-7.94746">
        <ele>471.5</ele>
        <time>2016-07-17T07:52:27Z</time>
      </trkpt>
      <trkpt lat="42.94201" lon="-7.94751">
        <ele>472.3</ele>
        <time>2016-07-17T07:58:03Z</time>
      </trkpt>
      <trkpt lat="42.94203" lon="-7.94764">
        <ele>471.9</ele>
        <time>2016-07-17T07:58:14Z</time>
      </trkpt>
      <trkpt lat="42.94203" lon="-7.94777">
        <ele>471.7</ele>
        <time>2016-07-17T07:58:22Z</time>
      </trkpt>
      <trkpt lat="42.94201" lon="-7.9479">
        <ele>471.7</ele>
        <time>2016-07-17T07:58:31Z</time>
      </trkpt>
      <trkpt lat="42.94198" lon="-7.94802">
        <ele>471.7</ele>
        <time>2016-07-17T07:58:39Z</time>
      </trkpt>
      <trkpt lat="42.94192" lon="-7.94813">
        <ele>472.1</ele>
        <time>2016-07-17T07:58:48Z</time>
      </trkpt>
      <trkpt lat="42.94185" lon="-7.94823">
        <ele>472.4</ele>
        <time>2016-07-17T07:58:57Z</time>
      </trkpt>
      <trkpt lat="42.9418" lon="-7.94833">
        <ele>472.5</ele>
        <time>2016-07-17T07:59:05Z</time>
      </trkpt>
      <trkpt lat="42.94177" lon="-7.94845">
        <ele>472.9</ele>
        <time>2016-07-17T07:59:13Z</time>
      </trkpt>
      <trkpt lat="42.94176" lon="-7.94858">
        <ele>473.5</ele>
        <time>2016-07-17T07:59:26Z</time>
      </trkpt>
      <trkpt lat="42.9418" lon="-7.9487">
        <ele>474.6</ele>
        <time>2016-07-17T07:59:38Z</time>
      </trkpt>
      <trkpt lat="42.94184" lon="-7.94882">
        <ele>475.2</ele>
        <time>2016-07-17T07:59:47Z</time>
      </trkpt>
      <trkpt lat="42.94186" lon="-7.94895">
        <ele>476.1</ele>
        <time>2016-07-17T07:59:55Z</time>
      </trkpt>
      <trkpt lat="42.94187" lon="-7.94908">
        <ele>476.7</ele>
        <time>2016-07-17T08:00:03Z</time>
      </trkpt>
      <trkpt lat="42.94189" lon="-7.94921">
        <ele>477.4</ele>
        <time>2016-07-17T08:00:12Z</time>
      </trkpt>
      <trkpt lat="42.94192" lon="-7.94933">
        <ele>478.6</ele>
        <time>2016-07-17T08:00:21Z</time>
      </trkpt>
      <trkpt lat="42.94193" lon="-7.94946">
        <ele>479.7</ele>
        <time>2016-07-17T08:00:30Z</time>
      </trkpt>
      <trkpt lat="42.94196" lon="-7.94959">
        <ele>480.4</ele>
        <time>2016-07-17T08:00:41Z</time>
      </trkpt>
      <trkpt lat="42.942" lon="-7.9497">
        <ele>481.6</ele>
        <time>2016-07-17T08:00:55Z</time>
      </trkpt>
      <trkpt lat="42.94201" lon="-7.94983">
        <ele>482.3</ele>
        <time>2016-07-17T08:01:08Z</time>
      </trkpt>
      <trkpt lat="42.94203" lon="-7.94995">
        <ele>483.2</ele>
        <time>2016-07-17T08:01:18Z</time>
      </trkpt>
      <trkpt lat="42.94205" lon="-7.95008">
        <ele>484.2</ele>
        <time>2016-07-17T08:01:28Z</time>
      </trkpt>
      <trkpt lat="42.94209" lon="-7.95019">
        <ele>485.8</ele>
        <time>2016-07-17T08:01:39Z</time>
      </trkpt>
      <trkpt lat="42.94212" lon="-7.95031">
        <ele>486.6</ele>
        <time>2016-07-17T08:01:49Z</time>
      </trkpt>
      <trkpt lat="42.94216" lon="-7.95043">
        <ele>487.3</ele>
        <time>2016-07-17T08:01:58Z</time>
      </trkpt>
      <trkpt lat="42.94218" lon="-7.95056">
        <ele>488.5</ele>
        <time>2016-07-17T08:02:07Z</time>
      </trkpt>
      <trkpt lat="42.9422" lon="-7.95069">
        <ele>489.6</ele>
        <time>2016-07-17T08:02:15Z</time>
      </trkpt>
      <trkpt lat="42.94223" lon="-7.95081">
        <ele>490.5</ele>
        <time>2016-07-17T08:02:23Z</time>
      </trkpt>
      <trkpt lat="42.94229" lon="-7.95092">
        <ele>491.3</ele>
        <time>2016-07-17T08:02:33Z</time>
      </trkpt>
      <trkpt lat="42.94236" lon="-7.95101">
        <ele>492.3</ele>
        <time>2016-07-17T08:02:43Z</time>
      </trkpt>
      <trkpt lat="42.94242" lon="-7.95112">
        <ele>493.2</ele>
        <time>2016-07-17T08:02:53Z</time>
      </trkpt>
      <trkpt lat="42.94248" lon="-7.95122">
        <ele>494</ele>
        <time>2016-07-17T08:03:06Z</time>
      </trkpt>
      <trkpt lat="42.94256" lon="-7.9513">
        <ele>494.5</ele>
        <time>2016-07-17T08:03:17Z</time>
      </trkpt>
      <trkpt lat="42.94265" lon="-7.95132">
        <ele>495.3</ele>
        <time>2016-07-17T08:03:28Z</time>
      </trkpt>
      <trkpt lat="42.94274" lon="-7.9514">
        <ele>495.9</ele>
        <time>2016-07-17T08:03:38Z</time>
      </trkpt>
      <trkpt lat="42.94283" lon="-7.95145">
        <ele>496</ele>
        <time>2016-07-17T08:03:49Z</time>
      </trkpt>
      <trkpt lat="42.94292" lon="-7.95146">
        <ele>496.3</ele>
        <time>2016-07-17T08:03:58Z</time>
      </trkpt>
      <trkpt lat="42.94302" lon="-7.95149">
        <ele>496.6</ele>
        <time>2016-07-17T08:04:10Z</time>
      </trkpt>
      <trkpt lat="42.94308" lon="-7.95158">
        <ele>496.7</ele>
        <time>2016-07-17T08:04:19Z</time>
      </trkpt>
      <trkpt lat="42.94312" lon="-7.9517">
        <ele>496.6</ele>
        <time>2016-07-17T08:04:29Z</time>
      </trkpt>
      <trkpt lat="42.94314" lon="-7.95183">
        <ele>496.5</ele>
        <time>2016-07-17T08:04:38Z</time>
      </trkpt>
      <trkpt lat="42.94318" lon="-7.95195">
        <ele>496.2</ele>
        <time>2016-07-17T08:04:48Z</time>
      </trkpt>
      <trkpt lat="42.94324" lon="-7.95205">
        <ele>496.6</ele>
        <time>2016-07-17T08:05:57Z</time>
      </trkpt>
      <trkpt lat="42.9433" lon="-7.95215">
        <ele>496.8</ele>
        <time>2016-07-17T08:06:06Z</time>
      </trkpt>
      <trkpt lat="42.94334" lon="-7.95226">
        <ele>496.6</ele>
        <time>2016-07-17T08:06:15Z</time>
      </trkpt>
      <trkpt lat="42.94338" lon="-7.95239">
        <ele>496.6</ele>
        <time>2016-07-17T08:06:25Z</time>
      </trkpt>
      <trkpt lat="42.94341" lon="-7.95251">
        <ele>497.3</ele>
        <time>2016-07-17T08:06:36Z</time>
      </trkpt>
      <trkpt lat="42.94342" lon="-7.95264">
        <ele>497.8</ele>
        <time>2016-07-17T08:06:45Z</time>
      </trkpt>
      <trkpt lat="42.94346" lon="-7.95276">
        <ele>498.1</ele>
        <time>2016-07-17T08:06:54Z</time>
      </trkpt>
      <trkpt lat="42.94351" lon="-7.95288">
        <ele>498.3</ele>
        <time>2016-07-17T08:07:02Z</time>
      </trkpt>
      <trkpt lat="42.94356" lon="-7.95299">
        <ele>498.6</ele>
        <time>2016-07-17T08:07:10Z</time>
      </trkpt>
      <trkpt lat="42.94358" lon="-7.95311">
        <ele>499</ele>
        <time>2016-07-17T08:07:19Z</time>
      </trkpt>
      <trkpt lat="42.94359" lon="-7.95324">
        <ele>499.6</ele>
        <time>2016-07-17T08:07:28Z</time>
      </trkpt>
      <trkpt lat="42.94354" lon="-7.95336">
        <ele>500.5</ele>
        <time>2016-07-17T08:07:37Z</time>
      </trkpt>
      <trkpt lat="42.9435" lon="-7.95347">
        <ele>500.3</ele>
        <time>2016-07-17T08:07:44Z</time>
      </trkpt>
      <trkpt lat="42.94345" lon="-7.95358">
        <ele>500.6</ele>
        <time>2016-07-17T08:07:52Z</time>
      </trkpt>
      <trkpt lat="42.9434" lon="-7.9537">
        <ele>500.5</ele>
        <time>2016-07-17T08:08:00Z</time>
      </trkpt>
      <trkpt lat="42.94335" lon="-7.95381">
        <ele>500.3</ele>
        <time>2016-07-17T08:08:08Z</time>
      </trkpt>
      <trkpt lat="42.94329" lon="-7.95392">
        <ele>500</ele>
        <time>2016-07-17T08:08:17Z</time>
      </trkpt>
      <trkpt lat="42.94325" lon="-7.95404">
        <ele>499.7</ele>
        <time>2016-07-17T08:08:26Z</time>
      </trkpt>
      <trkpt lat="42.94322" lon="-7.95417">
        <ele>499.5</ele>
        <time>2016-07-17T08:08:35Z</time>
      </trkpt>
      <trkpt lat="42.94317" lon="-7.95428">
        <ele>498.4</ele>
        <time>2016-07-17T08:08:45Z</time>
      </trkpt>
      <trkpt lat="42.94313" lon="-7.9544">
        <ele>498</ele>
        <time>2016-07-17T08:08:51Z</time>
      </trkpt>
      <trkpt lat="42.94308" lon="-7.95452">
        <ele>497.8</ele>
        <time>2016-07-17T08:08:59Z</time>
      </trkpt>
      <trkpt lat="42.94305" lon="-7.95464">
        <ele>497.4</ele>
        <time>2016-07-17T08:09:08Z</time>
      </trkpt>
      <trkpt lat="42.94302" lon="-7.95476">
        <ele>496.8</ele>
        <time>2016-07-17T08:09:16Z</time>
      </trkpt>
      <trkpt lat="42.943" lon="-7.95488">
        <ele>496.1</ele>
        <time>2016-07-17T08:09:24Z</time>
      </trkpt>
      <trkpt lat="42.94299" lon="-7.95501">
        <ele>496.1</ele>
        <time>2016-07-17T08:09:33Z</time>
      </trkpt>
      <trkpt lat="42.94299" lon="-7.95514">
        <ele>495.8</ele>
        <time>2016-07-17T08:09:42Z</time>
      </trkpt>
      <trkpt lat="42.94299" lon="-7.95527">
        <ele>495.7</ele>
        <time>2016-07-17T08:09:49Z</time>
      </trkpt>
      <trkpt lat="42.94301" lon="-7.95539">
        <ele>495.4</ele>
        <time>2016-07-17T08:09:55Z</time>
      </trkpt>
      <trkpt lat="42.94302" lon="-7.95553">
        <ele>495.5</ele>
        <time>2016-07-17T08:10:02Z</time>
      </trkpt>
      <trkpt lat="42.94303" lon="-7.95566">
        <ele>494.8</ele>
        <time>2016-07-17T08:10:10Z</time>
      </trkpt>
      <trkpt lat="42.94303" lon="-7.9558">
        <ele>494.1</ele>
        <time>2016-07-17T08:10:18Z</time>
      </trkpt>
      <trkpt lat="42.94301" lon="-7.95593">
        <ele>493.6</ele>
        <time>2016-07-17T08:10:26Z</time>
      </trkpt>
      <trkpt lat="42.94297" lon="-7.95605">
        <ele>493</ele>
        <time>2016-07-17T08:10:35Z</time>
      </trkpt>
      <trkpt lat="42.94296" lon="-7.95618">
        <ele>491.9</ele>
        <time>2016-07-17T08:10:43Z</time>
      </trkpt>
      <trkpt lat="42.94297" lon="-7.95631">
        <ele>491</ele>
        <time>2016-07-17T08:10:51Z</time>
      </trkpt>
      <trkpt lat="42.94297" lon="-7.95645">
        <ele>490.2</ele>
        <time>2016-07-17T08:11:00Z</time>
      </trkpt>
      <trkpt lat="42.94298" lon="-7.95657">
        <ele>489.6</ele>
        <time>2016-07-17T08:11:06Z</time>
      </trkpt>
      <trkpt lat="42.943" lon="-7.9567">
        <ele>488.6</ele>
        <time>2016-07-17T08:11:14Z</time>
      </trkpt>
      <trkpt lat="42.94302" lon="-7.95683">
        <ele>487.8</ele>
        <time>2016-07-17T08:11:23Z</time>
      </trkpt>
      <trkpt lat="42.94305" lon="-7.95695">
        <ele>487.1</ele>
        <time>2016-07-17T08:11:31Z</time>
      </trkpt>
      <trkpt lat="42.94308" lon="-7.95708">
        <ele>486.7</ele>
        <time>2016-07-17T08:11:40Z</time>
      </trkpt>
      <trkpt lat="42.9431" lon="-7.95721">
        <ele>486.7</ele>
        <time>2016-07-17T08:11:49Z</time>
      </trkpt>
      <trkpt lat="42.94314" lon="-7.95734">
        <ele>486.5</ele>
        <time>2016-07-17T08:11:58Z</time>
      </trkpt>
      <trkpt lat="42.94317" lon="-7.95746">
        <ele>486</ele>
        <time>2016-07-17T08:12:06Z</time>
      </trkpt>
      <trkpt lat="42.94318" lon="-7.95759">
        <ele>485.5</ele>
        <time>2016-07-17T08:12:12Z</time>
      </trkpt>
      <trkpt lat="42.94316" lon="-7.95771">
        <ele>484.7</ele>
        <time>2016-07-17T08:12:18Z</time>
      </trkpt>
      <trkpt lat="42.94315" lon="-7.95784">
        <ele>483.8</ele>
        <time>2016-07-17T08:12:26Z</time>
      </trkpt>
      <trkpt lat="42.94309" lon="-7.95795">
        <ele>482.6</ele>
        <time>2016-07-17T08:12:35Z</time>
      </trkpt>
      <trkpt lat="42.94302" lon="-7.95804">
        <ele>481.6</ele>
        <time>2016-07-17T08:12:43Z</time>
      </trkpt>
      <trkpt lat="42.94296" lon="-7.95815">
        <ele>481</ele>
        <time>2016-07-17T08:12:52Z</time>
      </trkpt>
      <trkpt lat="42.94289" lon="-7.95823">
        <ele>480.7</ele>
        <time>2016-07-17T08:13:01Z</time>
      </trkpt>
      <trkpt lat="42.9428" lon="-7.95829">
        <ele>480</ele>
        <time>2016-07-17T08:13:09Z</time>
      </trkpt>
      <trkpt lat="42.94272" lon="-7.95837">
        <ele>478.8</ele>
        <time>2016-07-17T08:13:19Z</time>
      </trkpt>
      <trkpt lat="42.94265" lon="-7.95845">
        <ele>477.6</ele>
        <time>2016-07-17T08:13:28Z</time>
      </trkpt>
      <trkpt lat="42.94257" lon="-7.95852">
        <ele>476.4</ele>
        <time>2016-07-17T08:13:38Z</time>
      </trkpt>
      <trkpt lat="42.94249" lon="-7.95859">
        <ele>475.7</ele>
        <time>2016-07-17T08:13:46Z</time>
      </trkpt>
      <trkpt lat="42.94241" lon="-7.95866">
        <ele>475.1</ele>
        <time>2016-07-17T08:13:54Z</time>
      </trkpt>
      <trkpt lat="42.94233" lon="-7.95872">
        <ele>474.8</ele>
        <time>2016-07-17T08:14:01Z</time>
      </trkpt>
      <trkpt lat="42.94225" lon="-7.9588">
        <ele>474.1</ele>
        <time>2016-07-17T08:14:08Z</time>
      </trkpt>
      <trkpt lat="42.94217" lon="-7.95887">
        <ele>473.5</ele>
        <time>2016-07-17T08:14:15Z</time>
      </trkpt>
      <trkpt lat="42.9421" lon="-7.95896">
        <ele>472.8</ele>
        <time>2016-07-17T08:14:23Z</time>
      </trkpt>
      <trkpt lat="42.94203" lon="-7.95905">
        <ele>472.1</ele>
        <time>2016-07-17T08:14:31Z</time>
      </trkpt>
      <trkpt lat="42.94197" lon="-7.95914">
        <ele>471.2</ele>
        <time>2016-07-17T08:14:39Z</time>
      </trkpt>
      <trkpt lat="42.94191" lon="-7.95924">
        <ele>469.8</ele>
        <time>2016-07-17T08:14:50Z</time>
      </trkpt>
      <trkpt lat="42.94186" lon="-7.95936">
        <ele>469.1</ele>
        <time>2016-07-17T08:14:58Z</time>
      </trkpt>
      <trkpt lat="42.94181" lon="-7.95947">
        <ele>468.1</ele>
        <time>2016-07-17T08:15:07Z</time>
      </trkpt>
      <trkpt lat="42.94176" lon="-7.95959">
        <ele>467.5</ele>
        <time>2016-07-17T08:15:16Z</time>
      </trkpt>
      <trkpt lat="42.94171" lon="-7.95971">
        <ele>466.9</ele>
        <time>2016-07-17T08:15:24Z</time>
      </trkpt>
      <trkpt lat="42.94166" lon="-7.95981">
        <ele>466</ele>
        <time>2016-07-17T08:15:33Z</time>
      </trkpt>
      <trkpt lat="42.9416" lon="-7.95993">
        <ele>464.7</ele>
        <time>2016-07-17T08:15:42Z</time>
      </trkpt>
      <trkpt lat="42.94155" lon="-7.96004">
        <ele>463.9</ele>
        <time>2016-07-17T08:15:50Z</time>
      </trkpt>
      <trkpt lat="42.94149" lon="-7.96014">
        <ele>463.5</ele>
        <time>2016-07-17T08:15:57Z</time>
      </trkpt>
      <trkpt lat="42.94145" lon="-7.96026">
        <ele>463.1</ele>
        <time>2016-07-17T08:16:05Z</time>
      </trkpt>
      <trkpt lat="42.9414" lon="-7.96038">
        <ele>462.4</ele>
        <time>2016-07-17T08:16:13Z</time>
      </trkpt>
      <trkpt lat="42.94135" lon="-7.96049">
        <ele>461.4</ele>
        <time>2016-07-17T08:16:21Z</time>
      </trkpt>
      <trkpt lat="42.94131" lon="-7.9606">
        <ele>460.7</ele>
        <time>2016-07-17T08:16:31Z</time>
      </trkpt>
      <trkpt lat="42.94126" lon="-7.96071">
        <ele>460.3</ele>
        <time>2016-07-17T08:16:39Z</time>
      </trkpt>
      <trkpt lat="42.94122" lon="-7.96083">
        <ele>459.7</ele>
        <time>2016-07-17T08:16:47Z</time>
      </trkpt>
      <trkpt lat="42.94118" lon="-7.96094">
        <ele>458.7</ele>
        <time>2016-07-17T08:16:56Z</time>
      </trkpt>
      <trkpt lat="42.94114" lon="-7.96106">
        <ele>458.1</ele>
        <time>2016-07-17T08:17:04Z</time>
      </trkpt>
      <trkpt lat="42.9411" lon="-7.96117">
        <ele>457.5</ele>
        <time>2016-07-17T08:17:12Z</time>
      </trkpt>
      <trkpt lat="42.94108" lon="-7.96131">
        <ele>456.8</ele>
        <time>2016-07-17T08:17:20Z</time>
      </trkpt>
      <trkpt lat="42.94106" lon="-7.96143">
        <ele>456.2</ele>
        <time>2016-07-17T08:17:29Z</time>
      </trkpt>
      <trkpt lat="42.94104" lon="-7.96155">
        <ele>454.9</ele>
        <time>2016-07-17T08:17:49Z</time>
      </trkpt>
      <trkpt lat="42.94103" lon="-7.96168">
        <ele>453.6</ele>
        <time>2016-07-17T08:19:58Z</time>
      </trkpt>
      <trkpt lat="42.94101" lon="-7.9618">
        <ele>453.6</ele>
        <time>2016-07-17T08:20:09Z</time>
      </trkpt>
      <trkpt lat="42.94098" lon="-7.96193">
        <ele>453.5</ele>
        <time>2016-07-17T08:20:19Z</time>
      </trkpt>
      <trkpt lat="42.94094" lon="-7.96205">
        <ele>452.7</ele>
        <time>2016-07-17T08:20:28Z</time>
      </trkpt>
      <trkpt lat="42.9409" lon="-7.96218">
        <ele>452.3</ele>
        <time>2016-07-17T08:20:36Z</time>
      </trkpt>
      <trkpt lat="42.94086" lon="-7.9623">
        <ele>452.3</ele>
        <time>2016-07-17T08:20:45Z</time>
      </trkpt>
      <trkpt lat="42.94083" lon="-7.96243">
        <ele>452.2</ele>
        <time>2016-07-17T08:20:55Z</time>
      </trkpt>
      <trkpt lat="42.9408" lon="-7.96254">
        <ele>451.9</ele>
        <time>2016-07-17T08:21:03Z</time>
      </trkpt>
      <trkpt lat="42.94077" lon="-7.96266">
        <ele>451.2</ele>
        <time>2016-07-17T08:21:11Z</time>
      </trkpt>
      <trkpt lat="42.94075" lon="-7.9628">
        <ele>450.8</ele>
        <time>2016-07-17T08:21:20Z</time>
      </trkpt>
      <trkpt lat="42.94073" lon="-7.96292">
        <ele>450.6</ele>
        <time>2016-07-17T08:21:28Z</time>
      </trkpt>
      <trkpt lat="42.94069" lon="-7.96304">
        <ele>450.5</ele>
        <time>2016-07-17T08:21:37Z</time>
      </trkpt>
      <trkpt lat="42.94067" lon="-7.96318">
        <ele>450.2</ele>
        <time>2016-07-17T08:21:45Z</time>
      </trkpt>
      <trkpt lat="42.94067" lon="-7.96331">
        <ele>449.6</ele>
        <time>2016-07-17T08:21:54Z</time>
      </trkpt>
      <trkpt lat="42.94067" lon="-7.96345">
        <ele>449.4</ele>
        <time>2016-07-17T08:22:03Z</time>
      </trkpt>
      <trkpt lat="42.94069" lon="-7.96358">
        <ele>448.7</ele>
        <time>2016-07-17T08:22:13Z</time>
      </trkpt>
      <trkpt lat="42.9407" lon="-7.96371">
        <ele>448.4</ele>
        <time>2016-07-17T08:22:22Z</time>
      </trkpt>
      <trkpt lat="42.94072" lon="-7.96383">
        <ele>448.2</ele>
        <time>2016-07-17T08:22:31Z</time>
      </trkpt>
      <trkpt lat="42.94071" lon="-7.96396">
        <ele>448.2</ele>
        <time>2016-07-17T08:22:41Z</time>
      </trkpt>
      <trkpt lat="42.94072" lon="-7.9641">
        <ele>448.2</ele>
        <time>2016-07-17T08:22:50Z</time>
      </trkpt>
      <trkpt lat="42.94073" lon="-7.96422">
        <ele>448.4</ele>
        <time>2016-07-17T08:22:58Z</time>
      </trkpt>
      <trkpt lat="42.94075" lon="-7.96435">
        <ele>448.8</ele>
        <time>2016-07-17T08:23:06Z</time>
      </trkpt>
      <trkpt lat="42.94073" lon="-7.96449">
        <ele>448.7</ele>
        <time>2016-07-17T08:23:14Z</time>
      </trkpt>
      <trkpt lat="42.9407" lon="-7.96462">
        <ele>448.2</ele>
        <time>2016-07-17T08:23:23Z</time>
      </trkpt>
      <trkpt lat="42.94067" lon="-7.96475">
        <ele>447.9</ele>
        <time>2016-07-17T08:23:32Z</time>
      </trkpt>
      <trkpt lat="42.94063" lon="-7.96488">
        <ele>447.7</ele>
        <time>2016-07-17T08:23:41Z</time>
      </trkpt>
      <trkpt lat="42.94061" lon="-7.96501">
        <ele>447.8</ele>
        <time>2016-07-17T08:23:50Z</time>
      </trkpt>
      <trkpt lat="42.94056" lon="-7.96513">
        <ele>448</ele>
        <time>2016-07-17T08:23:58Z</time>
      </trkpt>
      <trkpt lat="42.94052" lon="-7.96525">
        <ele>448</ele>
        <time>2016-07-17T08:24:07Z</time>
      </trkpt>
      <trkpt lat="42.94047" lon="-7.96536">
        <ele>448.3</ele>
        <time>2016-07-17T08:24:15Z</time>
      </trkpt>
      <trkpt lat="42.94043" lon="-7.96548">
        <ele>448.3</ele>
        <time>2016-07-17T08:24:23Z</time>
      </trkpt>
      <trkpt lat="42.94037" lon="-7.96559">
        <ele>448.2</ele>
        <time>2016-07-17T08:24:33Z</time>
      </trkpt>
      <trkpt lat="42.94031" lon="-7.96569">
        <ele>448.2</ele>
        <time>2016-07-17T08:24:42Z</time>
      </trkpt>
      <trkpt lat="42.94026" lon="-7.96579">
        <ele>448.3</ele>
        <time>2016-07-17T08:24:50Z</time>
      </trkpt>
      <trkpt lat="42.9402" lon="-7.96589">
        <ele>448.5</ele>
        <time>2016-07-17T08:24:58Z</time>
      </trkpt>
      <trkpt lat="42.94015" lon="-7.96599">
        <ele>448.3</ele>
        <time>2016-07-17T08:25:06Z</time>
      </trkpt>
      <trkpt lat="42.9401" lon="-7.9661">
        <ele>448.1</ele>
        <time>2016-07-17T08:25:14Z</time>
      </trkpt>
      <trkpt lat="42.94005" lon="-7.96621">
        <ele>448.5</ele>
        <time>2016-07-17T08:25:21Z</time>
      </trkpt>
      <trkpt lat="42.94001" lon="-7.96632">
        <ele>448.7</ele>
        <time>2016-07-17T08:25:29Z</time>
      </trkpt>
      <trkpt lat="42.93996" lon="-7.96642">
        <ele>448.5</ele>
        <time>2016-07-17T08:25:37Z</time>
      </trkpt>
      <trkpt lat="42.93992" lon="-7.96654">
        <ele>448.2</ele>
        <time>2016-07-17T08:25:47Z</time>
      </trkpt>
      <trkpt lat="42.93988" lon="-7.96665">
        <ele>448.1</ele>
        <time>2016-07-17T08:25:56Z</time>
      </trkpt>
      <trkpt lat="42.93983" lon="-7.96677">
        <ele>447.8</ele>
        <time>2016-07-17T08:26:05Z</time>
      </trkpt>
      <trkpt lat="42.93978" lon="-7.96688">
        <ele>447.7</ele>
        <time>2016-07-17T08:26:14Z</time>
      </trkpt>
      <trkpt lat="42.93973" lon="-7.96699">
        <ele>447.5</ele>
        <time>2016-07-17T08:26:22Z</time>
      </trkpt>
      <trkpt lat="42.93969" lon="-7.9671">
        <ele>447.3</ele>
        <time>2016-07-17T08:26:39Z</time>
      </trkpt>
      <trkpt lat="42.93965" lon="-7.96721">
        <ele>447.4</ele>
        <time>2016-07-17T08:26:48Z</time>
      </trkpt>
      <trkpt lat="42.93961" lon="-7.96733">
        <ele>447.6</ele>
        <time>2016-07-17T08:26:57Z</time>
      </trkpt>
      <trkpt lat="42.93956" lon="-7.96744">
        <ele>447.6</ele>
        <time>2016-07-17T08:27:05Z</time>
      </trkpt>
      <trkpt lat="42.93952" lon="-7.96755">
        <ele>447</ele>
        <time>2016-07-17T08:27:14Z</time>
      </trkpt>
      <trkpt lat="42.93948" lon="-7.96768">
        <ele>447.1</ele>
        <time>2016-07-17T08:27:24Z</time>
      </trkpt>
      <trkpt lat="42.93945" lon="-7.9678">
        <ele>447.3</ele>
        <time>2016-07-17T08:27:33Z</time>
      </trkpt>
      <trkpt lat="42.93942" lon="-7.96793">
        <ele>447.4</ele>
        <time>2016-07-17T08:27:41Z</time>
      </trkpt>
      <trkpt lat="42.9394" lon="-7.96806">
        <ele>447.3</ele>
        <time>2016-07-17T08:27:49Z</time>
      </trkpt>
      <trkpt lat="42.93937" lon="-7.96819">
        <ele>447.2</ele>
        <time>2016-07-17T08:27:57Z</time>
      </trkpt>
      <trkpt lat="42.93935" lon="-7.96831">
        <ele>447.1</ele>
        <time>2016-07-17T08:28:05Z</time>
      </trkpt>
      <trkpt lat="42.93932" lon="-7.96844">
        <ele>446.9</ele>
        <time>2016-07-17T08:28:13Z</time>
      </trkpt>
      <trkpt lat="42.9393" lon="-7.96857">
        <ele>447.1</ele>
        <time>2016-07-17T08:28:22Z</time>
      </trkpt>
      <trkpt lat="42.93927" lon="-7.96869">
        <ele>447.2</ele>
        <time>2016-07-17T08:28:30Z</time>
      </trkpt>
      <trkpt lat="42.93924" lon="-7.96882">
        <ele>447</ele>
        <time>2016-07-17T08:28:38Z</time>
      </trkpt>
      <trkpt lat="42.93922" lon="-7.96894">
        <ele>446.8</ele>
        <time>2016-07-17T08:28:46Z</time>
      </trkpt>
      <trkpt lat="42.93918" lon="-7.96906">
        <ele>446.9</ele>
        <time>2016-07-17T08:28:55Z</time>
      </trkpt>
      <trkpt lat="42.93916" lon="-7.96918">
        <ele>446.9</ele>
        <time>2016-07-17T08:29:03Z</time>
      </trkpt>
      <trkpt lat="42.93913" lon="-7.9693">
        <ele>447.4</ele>
        <time>2016-07-17T08:29:12Z</time>
      </trkpt>
      <trkpt lat="42.93909" lon="-7.96943">
        <ele>447.6</ele>
        <time>2016-07-17T08:29:20Z</time>
      </trkpt>
      <trkpt lat="42.93905" lon="-7.96955">
        <ele>447.7</ele>
        <time>2016-07-17T08:29:28Z</time>
      </trkpt>
      <trkpt lat="42.93902" lon="-7.96967">
        <ele>447.7</ele>
        <time>2016-07-17T08:29:36Z</time>
      </trkpt>
      <trkpt lat="42.93898" lon="-7.96979">
        <ele>447.6</ele>
        <time>2016-07-17T08:29:43Z</time>
      </trkpt>
      <trkpt lat="42.93894" lon="-7.96991">
        <ele>447.4</ele>
        <time>2016-07-17T08:29:51Z</time>
      </trkpt>
      <trkpt lat="42.9389" lon="-7.97002">
        <ele>446.9</ele>
        <time>2016-07-17T08:29:59Z</time>
      </trkpt>
      <trkpt lat="42.93886" lon="-7.97013">
        <ele>446.2</ele>
        <time>2016-07-17T08:30:08Z</time>
      </trkpt>
      <trkpt lat="42.93881" lon="-7.97024">
        <ele>445.7</ele>
        <time>2016-07-17T08:30:16Z</time>
      </trkpt>
      <trkpt lat="42.93876" lon="-7.97036">
        <ele>445.1</ele>
        <time>2016-07-17T08:30:24Z</time>
      </trkpt>
      <trkpt lat="42.93872" lon="-7.97048">
        <ele>444.5</ele>
        <time>2016-07-17T08:30:32Z</time>
      </trkpt>
      <trkpt lat="42.93868" lon="-7.9706">
        <ele>443.8</ele>
        <time>2016-07-17T08:30:41Z</time>
      </trkpt>
      <trkpt lat="42.93864" lon="-7.97072">
        <ele>442.5</ele>
        <time>2016-07-17T08:30:51Z</time>
      </trkpt>
      <trkpt lat="42.9386" lon="-7.97083">
        <ele>441.9</ele>
        <time>2016-07-17T08:31:00Z</time>
      </trkpt>
      <trkpt lat="42.93857" lon="-7.97096">
        <ele>441.4</ele>
        <time>2016-07-17T08:31:08Z</time>
      </trkpt>
      <trkpt lat="42.93853" lon="-7.97108">
        <ele>440.3</ele>
        <time>2016-07-17T08:31:16Z</time>
      </trkpt>
      <trkpt lat="42.93852" lon="-7.97121">
        <ele>439.5</ele>
        <time>2016-07-17T08:31:24Z</time>
      </trkpt>
      <trkpt lat="42.93852" lon="-7.97133">
        <ele>438.6</ele>
        <time>2016-07-17T08:31:36Z</time>
      </trkpt>
      <trkpt lat="42.93851" lon="-7.97147">
        <ele>436.9</ele>
        <time>2016-07-17T08:31:56Z</time>
      </trkpt>
      <trkpt lat="42.93848" lon="-7.97159">
        <ele>436.6</ele>
        <time>2016-07-17T08:32:06Z</time>
      </trkpt>
      <trkpt lat="42.93848" lon="-7.97171">
        <ele>436.1</ele>
        <time>2016-07-17T08:32:15Z</time>
      </trkpt>
      <trkpt lat="42.93848" lon="-7.97184">
        <ele>435.1</ele>
        <time>2016-07-17T08:32:24Z</time>
      </trkpt>
      <trkpt lat="42.93847" lon="-7.97196">
        <ele>434.6</ele>
        <time>2016-07-17T08:32:34Z</time>
      </trkpt>
      <trkpt lat="42.93841" lon="-7.97206">
        <ele>434.2</ele>
        <time>2016-07-17T08:32:42Z</time>
      </trkpt>
      <trkpt lat="42.93843" lon="-7.97219">
        <ele>433.4</ele>
        <time>2016-07-17T08:32:54Z</time>
      </trkpt>
      <trkpt lat="42.93847" lon="-7.9723">
        <ele>432.5</ele>
        <time>2016-07-17T08:33:07Z</time>
      </trkpt>
      <trkpt lat="42.9385" lon="-7.97243">
        <ele>431.7</ele>
        <time>2016-07-17T08:33:17Z</time>
      </trkpt>
      <trkpt lat="42.93853" lon="-7.97255">
        <ele>431.3</ele>
        <time>2016-07-17T08:33:25Z</time>
      </trkpt>
      <trkpt lat="42.93858" lon="-7.97266">
        <ele>430.9</ele>
        <time>2016-07-17T08:33:33Z</time>
      </trkpt>
      <trkpt lat="42.9386" lon="-7.97278">
        <ele>429.3</ele>
        <time>2016-07-17T08:33:56Z</time>
      </trkpt>
      <trkpt lat="42.93861" lon="-7.97291">
        <ele>428.7</ele>
        <time>2016-07-17T08:34:09Z</time>
      </trkpt>
      <trkpt lat="42.93864" lon="-7.97302">
        <ele>428.5</ele>
        <time>2016-07-17T08:34:22Z</time>
      </trkpt>
      <trkpt lat="42.93868" lon="-7.97314">
        <ele>428</ele>
        <time>2016-07-17T08:34:33Z</time>
      </trkpt>
      <trkpt lat="42.93871" lon="-7.97326">
        <ele>427.3</ele>
        <time>2016-07-17T08:34:43Z</time>
      </trkpt>
      <trkpt lat="42.93872" lon="-7.97338">
        <ele>426.9</ele>
        <time>2016-07-17T08:34:52Z</time>
      </trkpt>
      <trkpt lat="42.93872" lon="-7.97352">
        <ele>426.6</ele>
        <time>2016-07-17T08:35:01Z</time>
      </trkpt>
      <trkpt lat="42.9387" lon="-7.97365">
        <ele>426.4</ele>
        <time>2016-07-17T08:35:10Z</time>
      </trkpt>
      <trkpt lat="42.93869" lon="-7.97377">
        <ele>426</ele>
        <time>2016-07-17T08:35:18Z</time>
      </trkpt>
      <trkpt lat="42.93867" lon="-7.9739">
        <ele>425.6</ele>
        <time>2016-07-17T08:35:26Z</time>
      </trkpt>
      <trkpt lat="42.93864" lon="-7.97402">
        <ele>425.3</ele>
        <time>2016-07-17T08:35:35Z</time>
      </trkpt>
      <trkpt lat="42.93861" lon="-7.97414">
        <ele>425.1</ele>
        <time>2016-07-17T08:35:42Z</time>
      </trkpt>
      <trkpt lat="42.93857" lon="-7.97427">
        <ele>425</ele>
        <time>2016-07-17T08:35:50Z</time>
      </trkpt>
      <trkpt lat="42.93854" lon="-7.9744">
        <ele>424.8</ele>
        <time>2016-07-17T08:35:58Z</time>
      </trkpt>
      <trkpt lat="42.93851" lon="-7.97453">
        <ele>424.8</ele>
        <time>2016-07-17T08:36:07Z</time>
      </trkpt>
      <trkpt lat="42.93849" lon="-7.97465">
        <ele>424.8</ele>
        <time>2016-07-17T08:36:16Z</time>
      </trkpt>
      <trkpt lat="42.93846" lon="-7.97478">
        <ele>424.8</ele>
        <time>2016-07-17T08:36:24Z</time>
      </trkpt>
      <trkpt lat="42.93844" lon="-7.97491">
        <ele>425</ele>
        <time>2016-07-17T08:36:33Z</time>
      </trkpt>
      <trkpt lat="42.9384" lon="-7.97502">
        <ele>425.1</ele>
        <time>2016-07-17T08:36:40Z</time>
      </trkpt>
      <trkpt lat="42.93835" lon="-7.97514">
        <ele>425.3</ele>
        <time>2016-07-17T08:36:49Z</time>
      </trkpt>
      <trkpt lat="42.9383" lon="-7.97525">
        <ele>425.5</ele>
        <time>2016-07-17T08:37:00Z</time>
      </trkpt>
      <trkpt lat="42.93825" lon="-7.97536">
        <ele>426</ele>
        <time>2016-07-17T08:37:10Z</time>
      </trkpt>
      <trkpt lat="42.93819" lon="-7.97547">
        <ele>426.9</ele>
        <time>2016-07-17T08:37:20Z</time>
      </trkpt>
      <trkpt lat="42.93813" lon="-7.97557">
        <ele>427.5</ele>
        <time>2016-07-17T08:37:29Z</time>
      </trkpt>
      <trkpt lat="42.93807" lon="-7.97568">
        <ele>428.3</ele>
        <time>2016-07-17T08:37:38Z</time>
      </trkpt>
      <trkpt lat="42.938" lon="-7.97576">
        <ele>429</ele>
        <time>2016-07-17T08:37:46Z</time>
      </trkpt>
      <trkpt lat="42.93793" lon="-7.97585">
        <ele>429.6</ele>
        <time>2016-07-17T08:37:54Z</time>
      </trkpt>
      <trkpt lat="42.93787" lon="-7.97594">
        <ele>430.5</ele>
        <time>2016-07-17T08:38:02Z</time>
      </trkpt>
      <trkpt lat="42.93781" lon="-7.97603">
        <ele>431.4</ele>
        <time>2016-07-17T08:38:11Z</time>
      </trkpt>
      <trkpt lat="42.93775" lon="-7.97613">
        <ele>432.2</ele>
        <time>2016-07-17T08:38:22Z</time>
      </trkpt>
      <trkpt lat="42.93768" lon="-7.97624">
        <ele>432.7</ele>
        <time>2016-07-17T08:38:33Z</time>
      </trkpt>
      <trkpt lat="42.93762" lon="-7.97633">
        <ele>433.5</ele>
        <time>2016-07-17T08:38:42Z</time>
      </trkpt>
      <trkpt lat="42.93757" lon="-7.97644">
        <ele>434.3</ele>
        <time>2016-07-17T08:38:52Z</time>
      </trkpt>
      <trkpt lat="42.9375" lon="-7.97654">
        <ele>434.8</ele>
        <time>2016-07-17T08:39:00Z</time>
      </trkpt>
      <trkpt lat="42.93746" lon="-7.97665">
        <ele>435.6</ele>
        <time>2016-07-17T08:39:08Z</time>
      </trkpt>
      <trkpt lat="42.9374" lon="-7.97675">
        <ele>436.3</ele>
        <time>2016-07-17T08:39:17Z</time>
      </trkpt>
      <trkpt lat="42.93735" lon="-7.97686">
        <ele>436.8</ele>
        <time>2016-07-17T08:39:26Z</time>
      </trkpt>
      <trkpt lat="42.9373" lon="-7.97698">
        <ele>437.5</ele>
        <time>2016-07-17T08:39:35Z</time>
      </trkpt>
      <trkpt lat="42.93725" lon="-7.9771">
        <ele>437.2</ele>
        <time>2016-07-17T08:39:44Z</time>
      </trkpt>
      <trkpt lat="42.93719" lon="-7.97721">
        <ele>437.6</ele>
        <time>2016-07-17T08:39:52Z</time>
      </trkpt>
      <trkpt lat="42.93714" lon="-7.97732">
        <ele>438.1</ele>
        <time>2016-07-17T08:39:59Z</time>
      </trkpt>
      <trkpt lat="42.93708" lon="-7.97743">
        <ele>437.9</ele>
        <time>2016-07-17T08:40:07Z</time>
      </trkpt>
      <trkpt lat="42.93702" lon="-7.97753">
        <ele>438</ele>
        <time>2016-07-17T08:40:15Z</time>
      </trkpt>
      <trkpt lat="42.93696" lon="-7.97763">
        <ele>438</ele>
        <time>2016-07-17T08:40:24Z</time>
      </trkpt>
      <trkpt lat="42.93689" lon="-7.97772">
        <ele>437.6</ele>
        <time>2016-07-17T08:40:32Z</time>
      </trkpt>
      <trkpt lat="42.93683" lon="-7.97783">
        <ele>438.1</ele>
        <time>2016-07-17T08:40:40Z</time>
      </trkpt>
      <trkpt lat="42.93676" lon="-7.97791">
        <ele>438.2</ele>
        <time>2016-07-17T08:40:46Z</time>
      </trkpt>
      <trkpt lat="42.93671" lon="-7.97801">
        <ele>438.3</ele>
        <time>2016-07-17T08:40:55Z</time>
      </trkpt>
      <trkpt lat="42.93665" lon="-7.97811">
        <ele>438.5</ele>
        <time>2016-07-17T08:41:03Z</time>
      </trkpt>
      <trkpt lat="42.93659" lon="-7.9782">
        <ele>438.6</ele>
        <time>2016-07-17T08:41:11Z</time>
      </trkpt>
      <trkpt lat="42.93652" lon="-7.9783">
        <ele>438.6</ele>
        <time>2016-07-17T08:41:19Z</time>
      </trkpt>
      <trkpt lat="42.93646" lon="-7.97839">
        <ele>438.6</ele>
        <time>2016-07-17T08:41:27Z</time>
      </trkpt>
      <trkpt lat="42.93639" lon="-7.97849">
        <ele>438.3</ele>
        <time>2016-07-17T08:41:36Z</time>
      </trkpt>
      <trkpt lat="42.93632" lon="-7.97859">
        <ele>438.4</ele>
        <time>2016-07-17T08:41:44Z</time>
      </trkpt>
      <trkpt lat="42.93625" lon="-7.97869">
        <ele>438.5</ele>
        <time>2016-07-17T08:41:54Z</time>
      </trkpt>
      <trkpt lat="42.93618" lon="-7.97878">
        <ele>438.5</ele>
        <time>2016-07-17T08:42:02Z</time>
      </trkpt>
      <trkpt lat="42.93613" lon="-7.97888">
        <ele>438.6</ele>
        <time>2016-07-17T08:42:10Z</time>
      </trkpt>
      <trkpt lat="42.93606" lon="-7.97897">
        <ele>438.6</ele>
        <time>2016-07-17T08:42:18Z</time>
      </trkpt>
      <trkpt lat="42.936" lon="-7.97906">
        <ele>439.6</ele>
        <time>2016-07-17T08:42:29Z</time>
      </trkpt>
      <trkpt lat="42.93593" lon="-7.97914">
        <ele>439.7</ele>
        <time>2016-07-17T08:42:37Z</time>
      </trkpt>
      <trkpt lat="42.93586" lon="-7.97924">
        <ele>439.2</ele>
        <time>2016-07-17T08:42:47Z</time>
      </trkpt>
      <trkpt lat="42.9358" lon="-7.97934">
        <ele>440.7</ele>
        <time>2016-07-17T08:43:01Z</time>
      </trkpt>
      <trkpt lat="42.93574" lon="-7.97943">
        <ele>441.3</ele>
        <time>2016-07-17T08:43:10Z</time>
      </trkpt>
      <trkpt lat="42.93568" lon="-7.97953">
        <ele>441.4</ele>
        <time>2016-07-17T08:43:19Z</time>
      </trkpt>
      <trkpt lat="42.93561" lon="-7.97961">
        <ele>441.7</ele>
        <time>2016-07-17T08:43:26Z</time>
      </trkpt>
      <trkpt lat="42.93554" lon="-7.97971">
        <ele>442.3</ele>
        <time>2016-07-17T08:43:36Z</time>
      </trkpt>
      <trkpt lat="42.93549" lon="-7.97982">
        <ele>442.2</ele>
        <time>2016-07-17T08:43:44Z</time>
      </trkpt>
      <trkpt lat="42.93541" lon="-7.97991">
        <ele>442.5</ele>
        <time>2016-07-17T08:43:53Z</time>
      </trkpt>
      <trkpt lat="42.93534" lon="-7.98">
        <ele>442.6</ele>
        <time>2016-07-17T08:44:02Z</time>
      </trkpt>
      <trkpt lat="42.93527" lon="-7.98009">
        <ele>442.6</ele>
        <time>2016-07-17T08:44:11Z</time>
      </trkpt>
      <trkpt lat="42.93521" lon="-7.98018">
        <ele>443</ele>
        <time>2016-07-17T08:44:19Z</time>
      </trkpt>
      <trkpt lat="42.93513" lon="-7.98024">
        <ele>442.9</ele>
        <time>2016-07-17T08:44:26Z</time>
      </trkpt>
      <trkpt lat="42.93505" lon="-7.98031">
        <ele>442.8</ele>
        <time>2016-07-17T08:44:33Z</time>
      </trkpt>
      <trkpt lat="42.93496" lon="-7.98035">
        <ele>442.8</ele>
        <time>2016-07-17T08:44:39Z</time>
      </trkpt>
      <trkpt lat="42.93488" lon="-7.9804">
        <ele>443.1</ele>
        <time>2016-07-17T08:44:45Z</time>
      </trkpt>
      <trkpt lat="42.9348" lon="-7.98048">
        <ele>443</ele>
        <time>2016-07-17T08:44:53Z</time>
      </trkpt>
      <trkpt lat="42.93474" lon="-7.98057">
        <ele>443.2</ele>
        <time>2016-07-17T08:45:01Z</time>
      </trkpt>
      <trkpt lat="42.93467" lon="-7.98067">
        <ele>443.3</ele>
        <time>2016-07-17T08:45:09Z</time>
      </trkpt>
      <trkpt lat="42.93461" lon="-7.98077">
        <ele>443.2</ele>
        <time>2016-07-17T08:45:18Z</time>
      </trkpt>
      <trkpt lat="42.93455" lon="-7.98088">
        <ele>443.1</ele>
        <time>2016-07-17T08:45:26Z</time>
      </trkpt>
      <trkpt lat="42.93447" lon="-7.98096">
        <ele>443</ele>
        <time>2016-07-17T08:45:36Z</time>
      </trkpt>
      <trkpt lat="42.93441" lon="-7.98105">
        <ele>443.1</ele>
        <time>2016-07-17T08:45:45Z</time>
      </trkpt>
      <trkpt lat="42.93435" lon="-7.98114">
        <ele>443.3</ele>
        <time>2016-07-17T08:45:53Z</time>
      </trkpt>
      <trkpt lat="42.93428" lon="-7.98123">
        <ele>443.5</ele>
        <time>2016-07-17T08:46:00Z</time>
      </trkpt>
      <trkpt lat="42.93421" lon="-7.98132">
        <ele>443.8</ele>
        <time>2016-07-17T08:46:10Z</time>
      </trkpt>
      <trkpt lat="42.93413" lon="-7.98141">
        <ele>444.1</ele>
        <time>2016-07-17T08:46:20Z</time>
      </trkpt>
      <trkpt lat="42.93408" lon="-7.98151">
        <ele>443.8</ele>
        <time>2016-07-17T08:46:30Z</time>
      </trkpt>
      <trkpt lat="42.93402" lon="-7.98162">
        <ele>444</ele>
        <time>2016-07-17T08:46:37Z</time>
      </trkpt>
      <trkpt lat="42.93397" lon="-7.98174">
        <ele>444.2</ele>
        <time>2016-07-17T08:46:44Z</time>
      </trkpt>
      <trkpt lat="42.93393" lon="-7.98185">
        <ele>444.4</ele>
        <time>2016-07-17T08:46:51Z</time>
      </trkpt>
      <trkpt lat="42.93388" lon="-7.98198">
        <ele>444.6</ele>
        <time>2016-07-17T08:47:00Z</time>
      </trkpt>
      <trkpt lat="42.93384" lon="-7.98209">
        <ele>444.7</ele>
        <time>2016-07-17T08:47:07Z</time>
      </trkpt>
      <trkpt lat="42.9338" lon="-7.98221">
        <ele>444.9</ele>
        <time>2016-07-17T08:47:15Z</time>
      </trkpt>
      <trkpt lat="42.93376" lon="-7.98232">
        <ele>445</ele>
        <time>2016-07-17T08:47:23Z</time>
      </trkpt>
      <trkpt lat="42.93372" lon="-7.98244">
        <ele>445.1</ele>
        <time>2016-07-17T08:47:31Z</time>
      </trkpt>
      <trkpt lat="42.93368" lon="-7.98256">
        <ele>445.6</ele>
        <time>2016-07-17T08:47:42Z</time>
      </trkpt>
      <trkpt lat="42.93365" lon="-7.98268">
        <ele>445.7</ele>
        <time>2016-07-17T08:47:51Z</time>
      </trkpt>
      <trkpt lat="42.93361" lon="-7.98281">
        <ele>445.8</ele>
        <time>2016-07-17T08:47:59Z</time>
      </trkpt>
      <trkpt lat="42.93357" lon="-7.98293">
        <ele>445.8</ele>
        <time>2016-07-17T08:48:06Z</time>
      </trkpt>
      <trkpt lat="42.93355" lon="-7.98306">
        <ele>446</ele>
        <time>2016-07-17T08:48:15Z</time>
      </trkpt>
      <trkpt lat="42.93356" lon="-7.98318">
        <ele>446.5</ele>
        <time>2016-07-17T08:48:36Z</time>
      </trkpt>
      <trkpt lat="42.93356" lon="-7.98332">
        <ele>446.6</ele>
        <time>2016-07-17T08:48:46Z</time>
      </trkpt>
      <trkpt lat="42.93353" lon="-7.98345">
        <ele>446.8</ele>
        <time>2016-07-17T08:48:55Z</time>
      </trkpt>
      <trkpt lat="42.93354" lon="-7.98357">
        <ele>446.9</ele>
        <time>2016-07-17T08:49:07Z</time>
      </trkpt>
      <trkpt lat="42.93352" lon="-7.9837">
        <ele>446.4</ele>
        <time>2016-07-17T08:49:17Z</time>
      </trkpt>
      <trkpt lat="42.93351" lon="-7.98383">
        <ele>446.3</ele>
        <time>2016-07-17T08:49:26Z</time>
      </trkpt>
      <trkpt lat="42.9335" lon="-7.98396">
        <ele>446.4</ele>
        <time>2016-07-17T08:49:33Z</time>
      </trkpt>
      <trkpt lat="42.93349" lon="-7.9841">
        <ele>446.1</ele>
        <time>2016-07-17T08:49:40Z</time>
      </trkpt>
      <trkpt lat="42.93346" lon="-7.98423">
        <ele>445.8</ele>
        <time>2016-07-17T08:49:47Z</time>
      </trkpt>
      <trkpt lat="42.93345" lon="-7.98437">
        <ele>445.3</ele>
        <time>2016-07-17T08:49:54Z</time>
      </trkpt>
      <trkpt lat="42.93342" lon="-7.98449">
        <ele>444.8</ele>
        <time>2016-07-17T08:50:01Z</time>
      </trkpt>
      <trkpt lat="42.93342" lon="-7.98462">
        <ele>444.5</ele>
        <time>2016-07-17T08:50:09Z</time>
      </trkpt>
      <trkpt lat="42.93341" lon="-7.98476">
        <ele>444.2</ele>
        <time>2016-07-17T08:50:17Z</time>
      </trkpt>
      <trkpt lat="42.93341" lon="-7.98488">
        <ele>444.3</ele>
        <time>2016-07-17T08:50:24Z</time>
      </trkpt>
      <trkpt lat="42.9334" lon="-7.98501">
        <ele>444.1</ele>
        <time>2016-07-17T08:50:32Z</time>
      </trkpt>
      <trkpt lat="42.9334" lon="-7.98514">
        <ele>443.9</ele>
        <time>2016-07-17T08:50:39Z</time>
      </trkpt>
      <trkpt lat="42.9334" lon="-7.98527">
        <ele>443.7</ele>
        <time>2016-07-17T08:50:47Z</time>
      </trkpt>
      <trkpt lat="42.93341" lon="-7.98541">
        <ele>443.5</ele>
        <time>2016-07-17T08:50:55Z</time>
      </trkpt>
      <trkpt lat="42.93341" lon="-7.98553">
        <ele>443.5</ele>
        <time>2016-07-17T08:51:03Z</time>
      </trkpt>
      <trkpt lat="42.9334" lon="-7.98567">
        <ele>443.4</ele>
        <time>2016-07-17T08:51:11Z</time>
      </trkpt>
      <trkpt lat="42.9334" lon="-7.9858">
        <ele>443.3</ele>
        <time>2016-07-17T08:51:19Z</time>
      </trkpt>
      <trkpt lat="42.9334" lon="-7.98593">
        <ele>443.1</ele>
        <time>2016-07-17T08:51:27Z</time>
      </trkpt>
      <trkpt lat="42.9334" lon="-7.98606">
        <ele>442.8</ele>
        <time>2016-07-17T08:51:35Z</time>
      </trkpt>
      <trkpt lat="42.93339" lon="-7.98619">
        <ele>442.6</ele>
        <time>2016-07-17T08:51:43Z</time>
      </trkpt>
      <trkpt lat="42.93339" lon="-7.98633">
        <ele>442.3</ele>
        <time>2016-07-17T08:51:52Z</time>
      </trkpt>
      <trkpt lat="42.93339" lon="-7.98646">
        <ele>442</ele>
        <time>2016-07-17T08:52:01Z</time>
      </trkpt>
      <trkpt lat="42.93338" lon="-7.98659">
        <ele>441.9</ele>
        <time>2016-07-17T08:52:10Z</time>
      </trkpt>
      <trkpt lat="42.93337" lon="-7.98672">
        <ele>441.8</ele>
        <time>2016-07-17T08:52:18Z</time>
      </trkpt>
      <trkpt lat="42.93336" lon="-7.98686">
        <ele>441.6</ele>
        <time>2016-07-17T08:52:26Z</time>
      </trkpt>
      <trkpt lat="42.93334" lon="-7.98699">
        <ele>441.4</ele>
        <time>2016-07-17T08:52:34Z</time>
      </trkpt>
      <trkpt lat="42.93331" lon="-7.98712">
        <ele>441.2</ele>
        <time>2016-07-17T08:52:42Z</time>
      </trkpt>
      <trkpt lat="42.93327" lon="-7.98724">
        <ele>441</ele>
        <time>2016-07-17T08:52:49Z</time>
      </trkpt>
      <trkpt lat="42.93323" lon="-7.98737">
        <ele>440.9</ele>
        <time>2016-07-17T08:52:57Z</time>
      </trkpt>
      <trkpt lat="42.9332" lon="-7.9875">
        <ele>440.7</ele>
        <time>2016-07-17T08:53:05Z</time>
      </trkpt>
      <trkpt lat="42.93317" lon="-7.98762">
        <ele>440.7</ele>
        <time>2016-07-17T08:53:14Z</time>
      </trkpt>
      <trkpt lat="42.93315" lon="-7.98776">
        <ele>440.7</ele>
        <time>2016-07-17T08:53:23Z</time>
      </trkpt>
      <trkpt lat="42.93311" lon="-7.98788">
        <ele>440.7</ele>
        <time>2016-07-17T08:53:31Z</time>
      </trkpt>
      <trkpt lat="42.93307" lon="-7.988">
        <ele>441.3</ele>
        <time>2016-07-17T08:53:39Z</time>
      </trkpt>
      <trkpt lat="42.93305" lon="-7.98812">
        <ele>440.8</ele>
        <time>2016-07-17T08:53:48Z</time>
      </trkpt>
      <trkpt lat="42.93302" lon="-7.98825">
        <ele>440.5</ele>
        <time>2016-07-17T08:53:57Z</time>
      </trkpt>
      <trkpt lat="42.93303" lon="-7.98838">
        <ele>440.5</ele>
        <time>2016-07-17T08:54:05Z</time>
      </trkpt>
      <trkpt lat="42.93305" lon="-7.98851">
        <ele>440.6</ele>
        <time>2016-07-17T08:54:16Z</time>
      </trkpt>
      <trkpt lat="42.93305" lon="-7.98863">
        <ele>440.7</ele>
        <time>2016-07-17T08:54:24Z</time>
      </trkpt>
      <trkpt lat="42.93305" lon="-7.98876">
        <ele>440.8</ele>
        <time>2016-07-17T08:54:32Z</time>
      </trkpt>
      <trkpt lat="42.93304" lon="-7.98889">
        <ele>440.9</ele>
        <time>2016-07-17T08:54:41Z</time>
      </trkpt>
      <trkpt lat="42.93303" lon="-7.98901">
        <ele>441</ele>
        <time>2016-07-17T08:54:50Z</time>
      </trkpt>
      <trkpt lat="42.93304" lon="-7.98915">
        <ele>441.3</ele>
        <time>2016-07-17T08:54:59Z</time>
      </trkpt>
      <trkpt lat="42.93304" lon="-7.98928">
        <ele>441.8</ele>
        <time>2016-07-17T08:55:07Z</time>
      </trkpt>
      <trkpt lat="42.93303" lon="-7.98941">
        <ele>442.1</ele>
        <time>2016-07-17T08:55:15Z</time>
      </trkpt>
      <trkpt lat="42.93304" lon="-7.98955">
        <ele>442.4</ele>
        <time>2016-07-17T08:55:24Z</time>
      </trkpt>
      <trkpt lat="42.93305" lon="-7.98968">
        <ele>442.5</ele>
        <time>2016-07-17T08:55:34Z</time>
      </trkpt>
      <trkpt lat="42.93304" lon="-7.98982">
        <ele>442.6</ele>
        <time>2016-07-17T08:55:42Z</time>
      </trkpt>
      <trkpt lat="42.93304" lon="-7.98995">
        <ele>442.6</ele>
        <time>2016-07-17T08:55:51Z</time>
      </trkpt>
      <trkpt lat="42.93303" lon="-7.99008">
        <ele>442.6</ele>
        <time>2016-07-17T08:55:59Z</time>
      </trkpt>
      <trkpt lat="42.93302" lon="-7.99021">
        <ele>442.5</ele>
        <time>2016-07-17T08:56:07Z</time>
      </trkpt>
      <trkpt lat="42.93302" lon="-7.99034">
        <ele>442.4</ele>
        <time>2016-07-17T08:56:15Z</time>
      </trkpt>
      <trkpt lat="42.93302" lon="-7.99048">
        <ele>442.3</ele>
        <time>2016-07-17T08:56:22Z</time>
      </trkpt>
      <trkpt lat="42.93304" lon="-7.9906">
        <ele>442.2</ele>
        <time>2016-07-17T08:56:30Z</time>
      </trkpt>
      <trkpt lat="42.93304" lon="-7.99073">
        <ele>442.2</ele>
        <time>2016-07-17T08:56:37Z</time>
      </trkpt>
      <trkpt lat="42.93305" lon="-7.99086">
        <ele>442.2</ele>
        <time>2016-07-17T08:56:45Z</time>
      </trkpt>
      <trkpt lat="42.93304" lon="-7.99099">
        <ele>441.9</ele>
        <time>2016-07-17T08:56:52Z</time>
      </trkpt>
      <trkpt lat="42.93305" lon="-7.99112">
        <ele>441.5</ele>
        <time>2016-07-17T08:56:59Z</time>
      </trkpt>
      <trkpt lat="42.93308" lon="-7.99124">
        <ele>440.9</ele>
        <time>2016-07-17T08:57:06Z</time>
      </trkpt>
      <trkpt lat="42.9331" lon="-7.99136">
        <ele>440.5</ele>
        <time>2016-07-17T08:57:14Z</time>
      </trkpt>
      <trkpt lat="42.93314" lon="-7.99149">
        <ele>440.4</ele>
        <time>2016-07-17T08:57:22Z</time>
      </trkpt>
      <trkpt lat="42.93316" lon="-7.99162">
        <ele>439.7</ele>
        <time>2016-07-17T08:57:31Z</time>
      </trkpt>
      <trkpt lat="42.93317" lon="-7.99175">
        <ele>439.3</ele>
        <time>2016-07-17T08:57:39Z</time>
      </trkpt>
      <trkpt lat="42.93319" lon="-7.99189">
        <ele>438.8</ele>
        <time>2016-07-17T08:57:47Z</time>
      </trkpt>
      <trkpt lat="42.93321" lon="-7.99202">
        <ele>438.6</ele>
        <time>2016-07-17T08:57:55Z</time>
      </trkpt>
      <trkpt lat="42.93323" lon="-7.99215">
        <ele>438.4</ele>
        <time>2016-07-17T08:58:04Z</time>
      </trkpt>
      <trkpt lat="42.93322" lon="-7.99229">
        <ele>438.2</ele>
        <time>2016-07-17T08:58:13Z</time>
      </trkpt>
      <trkpt lat="42.93318" lon="-7.99241">
        <ele>438</ele>
        <time>2016-07-17T08:58:21Z</time>
      </trkpt>
      <trkpt lat="42.93313" lon="-7.99252">
        <ele>437.8</ele>
        <time>2016-07-17T08:58:29Z</time>
      </trkpt>
      <trkpt lat="42.93308" lon="-7.99263">
        <ele>437.8</ele>
        <time>2016-07-17T08:58:37Z</time>
      </trkpt>
      <trkpt lat="42.93304" lon="-7.99274">
        <ele>437.9</ele>
        <time>2016-07-17T08:58:46Z</time>
      </trkpt>
      <trkpt lat="42.933" lon="-7.99286">
        <ele>437.9</ele>
        <time>2016-07-17T08:58:55Z</time>
      </trkpt>
      <trkpt lat="42.93297" lon="-7.99298">
        <ele>438.3</ele>
        <time>2016-07-17T08:59:06Z</time>
      </trkpt>
      <trkpt lat="42.93291" lon="-7.99309">
        <ele>438.8</ele>
        <time>2016-07-17T08:59:16Z</time>
      </trkpt>
      <trkpt lat="42.93285" lon="-7.9932">
        <ele>439.2</ele>
        <time>2016-07-17T08:59:24Z</time>
      </trkpt>
      <trkpt lat="42.93278" lon="-7.99329">
        <ele>439.8</ele>
        <time>2016-07-17T08:59:41Z</time>
      </trkpt>
      <trkpt lat="42.93274" lon="-7.99341">
        <ele>440.9</ele>
        <time>2016-07-17T08:59:55Z</time>
      </trkpt>
      <trkpt lat="42.9327" lon="-7.99353">
        <ele>441.2</ele>
        <time>2016-07-17T09:00:07Z</time>
      </trkpt>
      <trkpt lat="42.93267" lon="-7.99365">
        <ele>441.3</ele>
        <time>2016-07-17T09:00:17Z</time>
      </trkpt>
      <trkpt lat="42.93264" lon="-7.99377">
        <ele>441.2</ele>
        <time>2016-07-17T09:00:27Z</time>
      </trkpt>
      <trkpt lat="42.9326" lon="-7.9939">
        <ele>441.5</ele>
        <time>2016-07-17T09:00:36Z</time>
      </trkpt>
      <trkpt lat="42.93256" lon="-7.99403">
        <ele>441.8</ele>
        <time>2016-07-17T09:00:44Z</time>
      </trkpt>
      <trkpt lat="42.93253" lon="-7.99415">
        <ele>442.1</ele>
        <time>2016-07-17T09:00:52Z</time>
      </trkpt>
      <trkpt lat="42.9325" lon="-7.99427">
        <ele>442.3</ele>
        <time>2016-07-17T09:01:00Z</time>
      </trkpt>
      <trkpt lat="42.93247" lon="-7.9944">
        <ele>442.4</ele>
        <time>2016-07-17T09:01:09Z</time>
      </trkpt>
      <trkpt lat="42.93244" lon="-7.99451">
        <ele>442.3</ele>
        <time>2016-07-17T09:01:17Z</time>
      </trkpt>
      <trkpt lat="42.93241" lon="-7.99464">
        <ele>442.3</ele>
        <time>2016-07-17T09:01:25Z</time>
      </trkpt>
      <trkpt lat="42.93237" lon="-7.99475">
        <ele>442.3</ele>
        <time>2016-07-17T09:01:33Z</time>
      </trkpt>
      <trkpt lat="42.93234" lon="-7.99487">
        <ele>442.6</ele>
        <time>2016-07-17T09:01:49Z</time>
      </trkpt>
      <trkpt lat="42.9323" lon="-7.99498">
        <ele>442.5</ele>
        <time>2016-07-17T09:02:00Z</time>
      </trkpt>
      <trkpt lat="42.93227" lon="-7.9951">
        <ele>442.5</ele>
        <time>2016-07-17T09:02:10Z</time>
      </trkpt>
      <trkpt lat="42.93222" lon="-7.99521">
        <ele>442.6</ele>
        <time>2016-07-17T09:02:18Z</time>
      </trkpt>
      <trkpt lat="42.93217" lon="-7.99533">
        <ele>443.1</ele>
        <time>2016-07-17T09:02:28Z</time>
      </trkpt>
      <trkpt lat="42.93213" lon="-7.99545">
        <ele>443.3</ele>
        <time>2016-07-17T09:02:37Z</time>
      </trkpt>
      <trkpt lat="42.93208" lon="-7.99556">
        <ele>443.3</ele>
        <time>2016-07-17T09:02:45Z</time>
      </trkpt>
      <trkpt lat="42.93203" lon="-7.99567">
        <ele>443.4</ele>
        <time>2016-07-17T09:02:53Z</time>
      </trkpt>
      <trkpt lat="42.93198" lon="-7.99579">
        <ele>443.4</ele>
        <time>2016-07-17T09:03:02Z</time>
      </trkpt>
      <trkpt lat="42.93193" lon="-7.99592">
        <ele>443.5</ele>
        <time>2016-07-17T09:03:11Z</time>
      </trkpt>
      <trkpt lat="42.93188" lon="-7.99603">
        <ele>443.5</ele>
        <time>2016-07-17T09:03:20Z</time>
      </trkpt>
      <trkpt lat="42.93185" lon="-7.99616">
        <ele>443.5</ele>
        <time>2016-07-17T09:03:30Z</time>
      </trkpt>
      <trkpt lat="42.9318" lon="-7.99627">
        <ele>443.4</ele>
        <time>2016-07-17T09:03:38Z</time>
      </trkpt>
      <trkpt lat="42.93175" lon="-7.99638">
        <ele>443.8</ele>
        <time>2016-07-17T09:03:47Z</time>
      </trkpt>
      <trkpt lat="42.9317" lon="-7.99649">
        <ele>443.8</ele>
        <time>2016-07-17T09:03:55Z</time>
      </trkpt>
      <trkpt lat="42.93164" lon="-7.99661">
        <ele>443.8</ele>
        <time>2016-07-17T09:04:04Z</time>
      </trkpt>
      <trkpt lat="42.93158" lon="-7.9967">
        <ele>443.6</ele>
        <time>2016-07-17T09:04:13Z</time>
      </trkpt>
      <trkpt lat="42.93151" lon="-7.99678">
        <ele>443.1</ele>
        <time>2016-07-17T09:04:22Z</time>
      </trkpt>
      <trkpt lat="42.93142" lon="-7.99685">
        <ele>443</ele>
        <time>2016-07-17T09:04:31Z</time>
      </trkpt>
      <trkpt lat="42.93134" lon="-7.99691">
        <ele>442.9</ele>
        <time>2016-07-17T09:04:38Z</time>
      </trkpt>
      <trkpt lat="42.93127" lon="-7.99699">
        <ele>442.8</ele>
        <time>2016-07-17T09:04:46Z</time>
      </trkpt>
      <trkpt lat="42.93119" lon="-7.99707">
        <ele>442.8</ele>
        <time>2016-07-17T09:04:54Z</time>
      </trkpt>
      <trkpt lat="42.93111" lon="-7.99715">
        <ele>442.7</ele>
        <time>2016-07-17T09:05:01Z</time>
      </trkpt>
      <trkpt lat="42.93103" lon="-7.99721">
        <ele>442.4</ele>
        <time>2016-07-17T09:05:08Z</time>
      </trkpt>
      <trkpt lat="42.93096" lon="-7.9973">
        <ele>442.2</ele>
        <time>2016-07-17T09:05:16Z</time>
      </trkpt>
      <trkpt lat="42.93089" lon="-7.9974">
        <ele>442</ele>
        <time>2016-07-17T09:05:24Z</time>
      </trkpt>
      <trkpt lat="42.93086" lon="-7.99751">
        <ele>441.7</ele>
        <time>2016-07-17T09:05:34Z</time>
      </trkpt>
      <trkpt lat="42.93081" lon="-7.99763">
        <ele>441.4</ele>
        <time>2016-07-17T09:05:45Z</time>
      </trkpt>
      <trkpt lat="42.93077" lon="-7.99775">
        <ele>440.9</ele>
        <time>2016-07-17T09:05:55Z</time>
      </trkpt>
      <trkpt lat="42.93074" lon="-7.99788">
        <ele>440.8</ele>
        <time>2016-07-17T09:06:03Z</time>
      </trkpt>
      <trkpt lat="42.9307" lon="-7.99799">
        <ele>440.3</ele>
        <time>2016-07-17T09:06:10Z</time>
      </trkpt>
      <trkpt lat="42.93067" lon="-7.99811">
        <ele>440.1</ele>
        <time>2016-07-17T09:06:17Z</time>
      </trkpt>
      <trkpt lat="42.93067" lon="-7.99824">
        <ele>440</ele>
        <time>2016-07-17T09:06:26Z</time>
      </trkpt>
      <trkpt lat="42.93065" lon="-7.99837">
        <ele>440</ele>
        <time>2016-07-17T09:06:35Z</time>
      </trkpt>
      <trkpt lat="42.93064" lon="-7.99849">
        <ele>439.9</ele>
        <time>2016-07-17T09:06:43Z</time>
      </trkpt>
      <trkpt lat="42.93062" lon="-7.99862">
        <ele>439.6</ele>
        <time>2016-07-17T09:06:51Z</time>
      </trkpt>
      <trkpt lat="42.93062" lon="-7.99875">
        <ele>439.5</ele>
        <time>2016-07-17T09:07:00Z</time>
      </trkpt>
      <trkpt lat="42.93061" lon="-7.99888">
        <ele>439.7</ele>
        <time>2016-07-17T09:07:09Z</time>
      </trkpt>
      <trkpt lat="42.93058" lon="-7.99901">
        <ele>439.7</ele>
        <time>2016-07-17T09:07:17Z</time>
      </trkpt>
      <trkpt lat="42.93058" lon="-7.99914">
        <ele>439.1</ele>
        <time>2016-07-17T09:07:26Z</time>
      </trkpt>
      <trkpt lat="42.93055" lon="-7.99926">
        <ele>439</ele>
        <time>2016-07-17T09:07:35Z</time>
      </trkpt>
      <trkpt lat="42.93054" lon="-7.99939">
        <ele>438.4</ele>
        <time>2016-07-17T09:07:44Z</time>
      </trkpt>
      <trkpt lat="42.93052" lon="-7.99951">
        <ele>438.2</ele>
        <time>2016-07-17T09:07:53Z</time>
      </trkpt>
      <trkpt lat="42.93049" lon="-7.99964">
        <ele>437.8</ele>
        <time>2016-07-17T09:08:11Z</time>
      </trkpt>
      <trkpt lat="42.93048" lon="-7.99976">
        <ele>437.6</ele>
        <time>2016-07-17T09:08:21Z</time>
      </trkpt>
      <trkpt lat="42.93045" lon="-7.99988">
        <ele>437.5</ele>
        <time>2016-07-17T09:08:29Z</time>
      </trkpt>
      <trkpt lat="42.93039" lon="-7.99999">
        <ele>437.5</ele>
        <time>2016-07-17T09:08:37Z</time>
      </trkpt>
      <trkpt lat="42.93035" lon="-8.00012">
        <ele>437.3</ele>
        <time>2016-07-17T09:08:46Z</time>
      </trkpt>
      <trkpt lat="42.93031" lon="-8.00023">
        <ele>437.3</ele>
        <time>2016-07-17T09:08:54Z</time>
      </trkpt>
      <trkpt lat="42.93027" lon="-8.00035">
        <ele>437.4</ele>
        <time>2016-07-17T09:09:02Z</time>
      </trkpt>
      <trkpt lat="42.93023" lon="-8.00046">
        <ele>437.4</ele>
        <time>2016-07-17T09:09:09Z</time>
      </trkpt>
      <trkpt lat="42.9302" lon="-8.00059">
        <ele>437.1</ele>
        <time>2016-07-17T09:09:18Z</time>
      </trkpt>
      <trkpt lat="42.93017" lon="-8.00071">
        <ele>436.7</ele>
        <time>2016-07-17T09:09:29Z</time>
      </trkpt>
      <trkpt lat="42.93014" lon="-8.00083">
        <ele>436.6</ele>
        <time>2016-07-17T09:09:38Z</time>
      </trkpt>
      <trkpt lat="42.93012" lon="-8.00095">
        <ele>436.4</ele>
        <time>2016-07-17T09:09:51Z</time>
      </trkpt>
      <trkpt lat="42.93009" lon="-8.00108">
        <ele>436</ele>
        <time>2016-07-17T09:10:01Z</time>
      </trkpt>
      <trkpt lat="42.93008" lon="-8.0012">
        <ele>435.8</ele>
        <time>2016-07-17T09:10:12Z</time>
      </trkpt>
      <trkpt lat="42.93005" lon="-8.00132">
        <ele>435.4</ele>
        <time>2016-07-17T09:10:27Z</time>
      </trkpt>
      <trkpt lat="42.93005" lon="-8.00146">
        <ele>435.4</ele>
        <time>2016-07-17T09:10:38Z</time>
      </trkpt>
      <trkpt lat="42.93004" lon="-8.00159">
        <ele>435.3</ele>
        <time>2016-07-17T09:10:49Z</time>
      </trkpt>
      <trkpt lat="42.93003" lon="-8.00171">
        <ele>435</ele>
        <time>2016-07-17T09:10:57Z</time>
      </trkpt>
      <trkpt lat="42.92999" lon="-8.00184">
        <ele>434.4</ele>
        <time>2016-07-17T09:11:05Z</time>
      </trkpt>
      <trkpt lat="42.92995" lon="-8.00196">
        <ele>434.1</ele>
        <time>2016-07-17T09:11:13Z</time>
      </trkpt>
      <trkpt lat="42.92992" lon="-8.00208">
        <ele>434.2</ele>
        <time>2016-07-17T09:11:21Z</time>
      </trkpt>
      <trkpt lat="42.92989" lon="-8.0022">
        <ele>434.1</ele>
        <time>2016-07-17T09:11:31Z</time>
      </trkpt>
      <trkpt lat="42.92987" lon="-8.00232">
        <ele>433.5</ele>
        <time>2016-07-17T09:11:40Z</time>
      </trkpt>
      <trkpt lat="42.92981" lon="-8.00243">
        <ele>433</ele>
        <time>2016-07-17T09:11:47Z</time>
      </trkpt>
      <trkpt lat="42.92976" lon="-8.00255">
        <ele>432.9</ele>
        <time>2016-07-17T09:11:54Z</time>
      </trkpt>
      <trkpt lat="42.9297" lon="-8.00267">
        <ele>432.9</ele>
        <time>2016-07-17T09:12:01Z</time>
      </trkpt>
      <trkpt lat="42.92965" lon="-8.00277">
        <ele>432.8</ele>
        <time>2016-07-17T09:12:08Z</time>
      </trkpt>
      <trkpt lat="42.92959" lon="-8.00287">
        <ele>432.7</ele>
        <time>2016-07-17T09:12:16Z</time>
      </trkpt>
      <trkpt lat="42.92953" lon="-8.00297">
        <ele>432.6</ele>
        <time>2016-07-17T09:12:24Z</time>
      </trkpt>
      <trkpt lat="42.92946" lon="-8.00307">
        <ele>432.1</ele>
        <time>2016-07-17T09:12:32Z</time>
      </trkpt>
      <trkpt lat="42.9294" lon="-8.00317">
        <ele>430.9</ele>
        <time>2016-07-17T09:13:10Z</time>
      </trkpt>
      <trkpt lat="42.92932" lon="-8.00324">
        <ele>430.9</ele>
        <time>2016-07-17T09:13:21Z</time>
      </trkpt>
      <trkpt lat="42.92924" lon="-8.00329">
        <ele>430.9</ele>
        <time>2016-07-17T09:13:29Z</time>
      </trkpt>
      <trkpt lat="42.92915" lon="-8.00334">
        <ele>431.2</ele>
        <time>2016-07-17T09:13:39Z</time>
      </trkpt>
      <trkpt lat="42.92906" lon="-8.00339">
        <ele>431.1</ele>
        <time>2016-07-17T09:13:48Z</time>
      </trkpt>
      <trkpt lat="42.92897" lon="-8.00344">
        <ele>430.9</ele>
        <time>2016-07-17T09:13:57Z</time>
      </trkpt>
      <trkpt lat="42.92889" lon="-8.0035">
        <ele>430.9</ele>
        <time>2016-07-17T09:14:06Z</time>
      </trkpt>
      <trkpt lat="42.92881" lon="-8.00357">
        <ele>431.2</ele>
        <time>2016-07-17T09:14:14Z</time>
      </trkpt>
      <trkpt lat="42.92873" lon="-8.00365">
        <ele>431.3</ele>
        <time>2016-07-17T09:14:23Z</time>
      </trkpt>
      <trkpt lat="42.92865" lon="-8.00372">
        <ele>431.6</ele>
        <time>2016-07-17T09:14:33Z</time>
      </trkpt>
      <trkpt lat="42.92858" lon="-8.00379">
        <ele>431.3</ele>
        <time>2016-07-17T09:14:41Z</time>
      </trkpt>
      <trkpt lat="42.9285" lon="-8.00389">
        <ele>431.6</ele>
        <time>2016-07-17T09:14:51Z</time>
      </trkpt>
      <trkpt lat="42.92843" lon="-8.00397">
        <ele>432.1</ele>
        <time>2016-07-17T09:14:58Z</time>
      </trkpt>
      <trkpt lat="42.92834" lon="-8.00404">
        <ele>432.4</ele>
        <time>2016-07-17T09:15:05Z</time>
      </trkpt>
      <trkpt lat="42.92827" lon="-8.00414">
        <ele>432.3</ele>
        <time>2016-07-17T09:15:14Z</time>
      </trkpt>
      <trkpt lat="42.92819" lon="-8.00421">
        <ele>432.2</ele>
        <time>2016-07-17T09:15:22Z</time>
      </trkpt>
      <trkpt lat="42.92812" lon="-8.00428">
        <ele>432.2</ele>
        <time>2016-07-17T09:15:29Z</time>
      </trkpt>
      <trkpt lat="42.92804" lon="-8.00436">
        <ele>432.5</ele>
        <time>2016-07-17T09:15:37Z</time>
      </trkpt>
      <trkpt lat="42.92797" lon="-8.00445">
        <ele>433.2</ele>
        <time>2016-07-17T09:15:46Z</time>
      </trkpt>
      <trkpt lat="42.9279" lon="-8.00453">
        <ele>433.7</ele>
        <time>2016-07-17T09:15:55Z</time>
      </trkpt>
      <trkpt lat="42.92783" lon="-8.00462">
        <ele>434.2</ele>
        <time>2016-07-17T09:16:03Z</time>
      </trkpt>
      <trkpt lat="42.92776" lon="-8.00469">
        <ele>434.5</ele>
        <time>2016-07-17T09:16:11Z</time>
      </trkpt>
      <trkpt lat="42.92768" lon="-8.00477">
        <ele>434.7</ele>
        <time>2016-07-17T09:16:19Z</time>
      </trkpt>
      <trkpt lat="42.9276" lon="-8.00485">
        <ele>435.3</ele>
        <time>2016-07-17T09:16:30Z</time>
      </trkpt>
      <trkpt lat="42.92752" lon="-8.00492">
        <ele>436</ele>
        <time>2016-07-17T09:16:38Z</time>
      </trkpt>
      <trkpt lat="42.92743" lon="-8.00498">
        <ele>436.9</ele>
        <time>2016-07-17T09:16:47Z</time>
      </trkpt>
      <trkpt lat="42.92735" lon="-8.00505">
        <ele>437.5</ele>
        <time>2016-07-17T09:16:56Z</time>
      </trkpt>
      <trkpt lat="42.92726" lon="-8.00511">
        <ele>438.6</ele>
        <time>2016-07-17T09:17:13Z</time>
      </trkpt>
      <trkpt lat="42.92719" lon="-8.00519">
        <ele>439.2</ele>
        <time>2016-07-17T09:17:25Z</time>
      </trkpt>
      <trkpt lat="42.92713" lon="-8.00529">
        <ele>439.9</ele>
        <time>2016-07-17T09:17:34Z</time>
      </trkpt>
      <trkpt lat="42.92705" lon="-8.00538">
        <ele>440.6</ele>
        <time>2016-07-17T09:17:42Z</time>
      </trkpt>
      <trkpt lat="42.92699" lon="-8.00547">
        <ele>441.3</ele>
        <time>2016-07-17T09:17:50Z</time>
      </trkpt>
      <trkpt lat="42.92693" lon="-8.00557">
        <ele>441.6</ele>
        <time>2016-07-17T09:17:58Z</time>
      </trkpt>
      <trkpt lat="42.92687" lon="-8.00567">
        <ele>441.9</ele>
        <time>2016-07-17T09:18:06Z</time>
      </trkpt>
      <trkpt lat="42.92682" lon="-8.00577">
        <ele>442.4</ele>
        <time>2016-07-17T09:18:14Z</time>
      </trkpt>
      <trkpt lat="42.92675" lon="-8.00587">
        <ele>443.2</ele>
        <time>2016-07-17T09:18:23Z</time>
      </trkpt>
      <trkpt lat="42.92669" lon="-8.00596">
        <ele>443.8</ele>
        <time>2016-07-17T09:18:31Z</time>
      </trkpt>
      <trkpt lat="42.92663" lon="-8.00607">
        <ele>444.7</ele>
        <time>2016-07-17T09:18:41Z</time>
      </trkpt>
      <trkpt lat="42.9266" lon="-8.00619">
        <ele>446.6</ele>
        <time>2016-07-17T09:19:18Z</time>
      </trkpt>
      <trkpt lat="42.92654" lon="-8.0063">
        <ele>446.7</ele>
        <time>2016-07-17T09:19:27Z</time>
      </trkpt>
      <trkpt lat="42.92648" lon="-8.0064">
        <ele>447.4</ele>
        <time>2016-07-17T09:19:37Z</time>
      </trkpt>
      <trkpt lat="42.92642" lon="-8.00651">
        <ele>447.4</ele>
        <time>2016-07-17T09:19:48Z</time>
      </trkpt>
      <trkpt lat="42.92638" lon="-8.00662">
        <ele>448</ele>
        <time>2016-07-17T09:19:57Z</time>
      </trkpt>
      <trkpt lat="42.92633" lon="-8.00673">
        <ele>448.2</ele>
        <time>2016-07-17T09:20:06Z</time>
      </trkpt>
      <trkpt lat="42.92628" lon="-8.00684">
        <ele>448.4</ele>
        <time>2016-07-17T09:20:14Z</time>
      </trkpt>
      <trkpt lat="42.92622" lon="-8.00695">
        <ele>448.2</ele>
        <time>2016-07-17T09:20:22Z</time>
      </trkpt>
      <trkpt lat="42.92618" lon="-8.00707">
        <ele>448.1</ele>
        <time>2016-07-17T09:20:31Z</time>
      </trkpt>
      <trkpt lat="42.92615" lon="-8.00719">
        <ele>448.1</ele>
        <time>2016-07-17T09:20:40Z</time>
      </trkpt>
      <trkpt lat="42.9261" lon="-8.0073">
        <ele>448.1</ele>
        <time>2016-07-17T09:20:48Z</time>
      </trkpt>
      <trkpt lat="42.92605" lon="-8.00742">
        <ele>448.3</ele>
        <time>2016-07-17T09:20:57Z</time>
      </trkpt>
      <trkpt lat="42.92601" lon="-8.00754">
        <ele>448.4</ele>
        <time>2016-07-17T09:21:05Z</time>
      </trkpt>
      <trkpt lat="42.92595" lon="-8.00765">
        <ele>448.6</ele>
        <time>2016-07-17T09:21:14Z</time>
      </trkpt>
      <trkpt lat="42.92589" lon="-8.00776">
        <ele>448.9</ele>
        <time>2016-07-17T09:21:23Z</time>
      </trkpt>
      <trkpt lat="42.92585" lon="-8.00787">
        <ele>449.3</ele>
        <time>2016-07-17T09:21:33Z</time>
      </trkpt>
      <trkpt lat="42.9258" lon="-8.00799">
        <ele>449.4</ele>
        <time>2016-07-17T09:21:43Z</time>
      </trkpt>
      <trkpt lat="42.92576" lon="-8.0081">
        <ele>449</ele>
        <time>2016-07-17T09:21:51Z</time>
      </trkpt>
      <trkpt lat="42.92572" lon="-8.00822">
        <ele>449.1</ele>
        <time>2016-07-17T09:21:59Z</time>
      </trkpt>
      <trkpt lat="42.9257" lon="-8.00835">
        <ele>448.9</ele>
        <time>2016-07-17T09:22:07Z</time>
      </trkpt>
      <trkpt lat="42.92564" lon="-8.00844">
        <ele>449.5</ele>
        <time>2016-07-17T09:22:22Z</time>
      </trkpt>
      <trkpt lat="42.92557" lon="-8.00853">
        <ele>449.9</ele>
        <time>2016-07-17T09:22:31Z</time>
      </trkpt>
      <trkpt lat="42.92548" lon="-8.00859">
        <ele>449.8</ele>
        <time>2016-07-17T09:22:42Z</time>
      </trkpt>
      <trkpt lat="42.9254" lon="-8.00868">
        <ele>450.2</ele>
        <time>2016-07-17T09:22:55Z</time>
      </trkpt>
      <trkpt lat="42.92531" lon="-8.00875">
        <ele>450.3</ele>
        <time>2016-07-17T09:23:04Z</time>
      </trkpt>
      <trkpt lat="42.92523" lon="-8.00882">
        <ele>450.3</ele>
        <time>2016-07-17T09:23:13Z</time>
      </trkpt>
      <trkpt lat="42.92515" lon="-8.0089">
        <ele>450.1</ele>
        <time>2016-07-17T09:23:24Z</time>
      </trkpt>
      <trkpt lat="42.92506" lon="-8.00896">
        <ele>450.6</ele>
        <time>2016-07-17T09:23:33Z</time>
      </trkpt>
      <trkpt lat="42.92497" lon="-8.009">
        <ele>450.6</ele>
        <time>2016-07-17T09:23:41Z</time>
      </trkpt>
      <trkpt lat="42.92488" lon="-8.00903">
        <ele>451.1</ele>
        <time>2016-07-17T09:23:52Z</time>
      </trkpt>
      <trkpt lat="42.9248" lon="-8.0091">
        <ele>451.4</ele>
        <time>2016-07-17T09:23:59Z</time>
      </trkpt>
      <trkpt lat="42.92472" lon="-8.00916">
        <ele>451.4</ele>
        <time>2016-07-17T09:24:08Z</time>
      </trkpt>
      <trkpt lat="42.92463" lon="-8.00923">
        <ele>451.4</ele>
        <time>2016-07-17T09:24:17Z</time>
      </trkpt>
      <trkpt lat="42.92456" lon="-8.00931">
        <ele>451.4</ele>
        <time>2016-07-17T09:24:25Z</time>
      </trkpt>
      <trkpt lat="42.92449" lon="-8.0094">
        <ele>451.9</ele>
        <time>2016-07-17T09:24:33Z</time>
      </trkpt>
      <trkpt lat="42.92443" lon="-8.0095">
        <ele>451.9</ele>
        <time>2016-07-17T09:24:41Z</time>
      </trkpt>
      <trkpt lat="42.92437" lon="-8.0096">
        <ele>452</ele>
        <time>2016-07-17T09:24:50Z</time>
      </trkpt>
      <trkpt lat="42.92429" lon="-8.00969">
        <ele>451.7</ele>
        <time>2016-07-17T09:24:59Z</time>
      </trkpt>
      <trkpt lat="42.92423" lon="-8.0098">
        <ele>451.7</ele>
        <time>2016-07-17T09:25:06Z</time>
      </trkpt>
      <trkpt lat="42.92418" lon="-8.0099">
        <ele>451.7</ele>
        <time>2016-07-17T09:25:15Z</time>
      </trkpt>
      <trkpt lat="42.92412" lon="-8.01001">
        <ele>452</ele>
        <time>2016-07-17T09:25:24Z</time>
      </trkpt>
      <trkpt lat="42.92405" lon="-8.0101">
        <ele>452</ele>
        <time>2016-07-17T09:25:32Z</time>
      </trkpt>
      <trkpt lat="42.92399" lon="-8.01021">
        <ele>452.1</ele>
        <time>2016-07-17T09:25:41Z</time>
      </trkpt>
      <trkpt lat="42.92393" lon="-8.01031">
        <ele>451.7</ele>
        <time>2016-07-17T09:25:50Z</time>
      </trkpt>
      <trkpt lat="42.92387" lon="-8.01042">
        <ele>451.8</ele>
        <time>2016-07-17T09:25:59Z</time>
      </trkpt>
      <trkpt lat="42.92381" lon="-8.01052">
        <ele>451.9</ele>
        <time>2016-07-17T09:26:07Z</time>
      </trkpt>
      <trkpt lat="42.92375" lon="-8.01062">
        <ele>451.6</ele>
        <time>2016-07-17T09:26:15Z</time>
      </trkpt>
      <trkpt lat="42.92368" lon="-8.0107">
        <ele>451.5</ele>
        <time>2016-07-17T09:26:22Z</time>
      </trkpt>
      <trkpt lat="42.9236" lon="-8.01077">
        <ele>451.5</ele>
        <time>2016-07-17T09:26:30Z</time>
      </trkpt>
      <trkpt lat="42.92352" lon="-8.01083">
        <ele>452</ele>
        <time>2016-07-17T09:26:42Z</time>
      </trkpt>
      <trkpt lat="42.92344" lon="-8.01091">
        <ele>451.8</ele>
        <time>2016-07-17T09:26:51Z</time>
      </trkpt>
      <trkpt lat="42.92336" lon="-8.01098">
        <ele>451.7</ele>
        <time>2016-07-17T09:26:59Z</time>
      </trkpt>
      <trkpt lat="42.92327" lon="-8.01103">
        <ele>451.6</ele>
        <time>2016-07-17T09:27:07Z</time>
      </trkpt>
      <trkpt lat="42.92319" lon="-8.0111">
        <ele>451.6</ele>
        <time>2016-07-17T09:27:16Z</time>
      </trkpt>
      <trkpt lat="42.92311" lon="-8.01117">
        <ele>452</ele>
        <time>2016-07-17T09:27:25Z</time>
      </trkpt>
      <trkpt lat="42.92302" lon="-8.01124">
        <ele>451.8</ele>
        <time>2016-07-17T09:27:34Z</time>
      </trkpt>
      <trkpt lat="42.92295" lon="-8.0113">
        <ele>451.7</ele>
        <time>2016-07-17T09:27:42Z</time>
      </trkpt>
      <trkpt lat="42.92286" lon="-8.01137">
        <ele>451.3</ele>
        <time>2016-07-17T09:27:51Z</time>
      </trkpt>
      <trkpt lat="42.92278" lon="-8.01142">
        <ele>451.3</ele>
        <time>2016-07-17T09:28:00Z</time>
      </trkpt>
      <trkpt lat="42.9227" lon="-8.01149">
        <ele>451.4</ele>
        <time>2016-07-17T09:28:09Z</time>
      </trkpt>
      <trkpt lat="42.92262" lon="-8.01157">
        <ele>451.8</ele>
        <time>2016-07-17T09:28:18Z</time>
      </trkpt>
      <trkpt lat="42.92254" lon="-8.01163">
        <ele>451.9</ele>
        <time>2016-07-17T09:28:26Z</time>
      </trkpt>
      <trkpt lat="42.92246" lon="-8.0117">
        <ele>452.4</ele>
        <time>2016-07-17T09:28:35Z</time>
      </trkpt>
      <trkpt lat="42.92238" lon="-8.01177">
        <ele>452.1</ele>
        <time>2016-07-17T09:28:44Z</time>
      </trkpt>
      <trkpt lat="42.92231" lon="-8.01185">
        <ele>451.9</ele>
        <time>2016-07-17T09:28:52Z</time>
      </trkpt>
      <trkpt lat="42.92223" lon="-8.0119">
        <ele>452.4</ele>
        <time>2016-07-17T09:29:04Z</time>
      </trkpt>
      <trkpt lat="42.92214" lon="-8.01196">
        <ele>452.3</ele>
        <time>2016-07-17T09:29:14Z</time>
      </trkpt>
      <trkpt lat="42.92205" lon="-8.01204">
        <ele>452.2</ele>
        <time>2016-07-17T09:29:24Z</time>
      </trkpt>
      <trkpt lat="42.92197" lon="-8.01211">
        <ele>452.2</ele>
        <time>2016-07-17T09:29:33Z</time>
      </trkpt>
      <trkpt lat="42.92188" lon="-8.01217">
        <ele>452.2</ele>
        <time>2016-07-17T09:29:41Z</time>
      </trkpt>
      <trkpt lat="42.9218" lon="-8.01222">
        <ele>452.1</ele>
        <time>2016-07-17T09:29:50Z</time>
      </trkpt>
      <trkpt lat="42.92171" lon="-8.01228">
        <ele>451.8</ele>
        <time>2016-07-17T09:30:00Z</time>
      </trkpt>
      <trkpt lat="42.92162" lon="-8.01234">
        <ele>451.7</ele>
        <time>2016-07-17T09:30:08Z</time>
      </trkpt>
      <trkpt lat="42.92154" lon="-8.0124">
        <ele>452</ele>
        <time>2016-07-17T09:30:17Z</time>
      </trkpt>
      <trkpt lat="42.92146" lon="-8.01246">
        <ele>452.1</ele>
        <time>2016-07-17T09:30:25Z</time>
      </trkpt>
      <trkpt lat="42.92138" lon="-8.01254">
        <ele>452.5</ele>
        <time>2016-07-17T09:30:34Z</time>
      </trkpt>
      <trkpt lat="42.92129" lon="-8.0126">
        <ele>452.6</ele>
        <time>2016-07-17T09:30:43Z</time>
      </trkpt>
      <trkpt lat="42.9212" lon="-8.01266">
        <ele>453</ele>
        <time>2016-07-17T09:30:52Z</time>
      </trkpt>
      <trkpt lat="42.92111" lon="-8.01272">
        <ele>453</ele>
        <time>2016-07-17T09:31:01Z</time>
      </trkpt>
      <trkpt lat="42.92102" lon="-8.01277">
        <ele>452.9</ele>
        <time>2016-07-17T09:31:10Z</time>
      </trkpt>
      <trkpt lat="42.92093" lon="-8.01282">
        <ele>452.8</ele>
        <time>2016-07-17T09:31:19Z</time>
      </trkpt>
      <trkpt lat="42.92085" lon="-8.01289">
        <ele>453.2</ele>
        <time>2016-07-17T09:31:29Z</time>
      </trkpt>
      <trkpt lat="42.92077" lon="-8.01295">
        <ele>453.5</ele>
        <time>2016-07-17T09:31:38Z</time>
      </trkpt>
      <trkpt lat="42.92068" lon="-8.01301">
        <ele>453.5</ele>
        <time>2016-07-17T09:31:47Z</time>
      </trkpt>
      <trkpt lat="42.92059" lon="-8.01307">
        <ele>453.8</ele>
        <time>2016-07-17T09:31:57Z</time>
      </trkpt>
      <trkpt lat="42.9205" lon="-8.01313">
        <ele>454.2</ele>
        <time>2016-07-17T09:32:07Z</time>
      </trkpt>
      <trkpt lat="42.92043" lon="-8.01321">
        <ele>454.7</ele>
        <time>2016-07-17T09:32:16Z</time>
      </trkpt>
      <trkpt lat="42.92035" lon="-8.01329">
        <ele>454.8</ele>
        <time>2016-07-17T09:32:26Z</time>
      </trkpt>
      <trkpt lat="42.92027" lon="-8.01336">
        <ele>455</ele>
        <time>2016-07-17T09:32:37Z</time>
      </trkpt>
      <trkpt lat="42.92021" lon="-8.01347">
        <ele>455.2</ele>
        <time>2016-07-17T09:32:46Z</time>
      </trkpt>
      <trkpt lat="42.92015" lon="-8.01357">
        <ele>455.3</ele>
        <time>2016-07-17T09:32:55Z</time>
      </trkpt>
      <trkpt lat="42.92006" lon="-8.01362">
        <ele>455.7</ele>
        <time>2016-07-17T09:33:04Z</time>
      </trkpt>
      <trkpt lat="42.91997" lon="-8.01367">
        <ele>456.1</ele>
        <time>2016-07-17T09:33:13Z</time>
      </trkpt>
      <trkpt lat="42.91989" lon="-8.01373">
        <ele>456.3</ele>
        <time>2016-07-17T09:33:21Z</time>
      </trkpt>
      <trkpt lat="42.91981" lon="-8.01379">
        <ele>456.8</ele>
        <time>2016-07-17T09:33:29Z</time>
      </trkpt>
      <trkpt lat="42.91972" lon="-8.01384">
        <ele>457</ele>
        <time>2016-07-17T09:33:39Z</time>
      </trkpt>
      <trkpt lat="42.91965" lon="-8.01394">
        <ele>456.8</ele>
        <time>2016-07-17T09:33:52Z</time>
      </trkpt>
      <trkpt lat="42.91956" lon="-8.01395">
        <ele>457.2</ele>
        <time>2016-07-17T09:34:00Z</time>
      </trkpt>
      <trkpt lat="42.91947" lon="-8.01403">
        <ele>457.2</ele>
        <time>2016-07-17T09:34:08Z</time>
      </trkpt>
      <trkpt lat="42.91937" lon="-8.01407">
        <ele>457.2</ele>
        <time>2016-07-17T09:34:15Z</time>
      </trkpt>
      <trkpt lat="42.91929" lon="-8.01413">
        <ele>457.2</ele>
        <time>2016-07-17T09:34:24Z</time>
      </trkpt>
      <trkpt lat="42.91922" lon="-8.01421">
        <ele>457.2</ele>
        <time>2016-07-17T09:34:31Z</time>
      </trkpt>
      <trkpt lat="42.91915" lon="-8.0143">
        <ele>457.2</ele>
        <time>2016-07-17T09:34:39Z</time>
      </trkpt>
      <trkpt lat="42.91907" lon="-8.01438">
        <ele>457</ele>
        <time>2016-07-17T09:34:45Z</time>
      </trkpt>
      <trkpt lat="42.91899" lon="-8.01443">
        <ele>456.8</ele>
        <time>2016-07-17T09:34:52Z</time>
      </trkpt>
      <trkpt lat="42.91889" lon="-8.01447">
        <ele>456.7</ele>
        <time>2016-07-17T09:34:59Z</time>
      </trkpt>
      <trkpt lat="42.9188" lon="-8.01447">
        <ele>456.6</ele>
        <time>2016-07-17T09:35:07Z</time>
      </trkpt>
      <trkpt lat="42.91871" lon="-8.01452">
        <ele>456.7</ele>
        <time>2016-07-17T09:35:15Z</time>
      </trkpt>
      <trkpt lat="42.91862" lon="-8.01457">
        <ele>456.2</ele>
        <time>2016-07-17T09:35:28Z</time>
      </trkpt>
      <trkpt lat="42.91853" lon="-8.0146">
        <ele>456</ele>
        <time>2016-07-17T09:35:40Z</time>
      </trkpt>
      <trkpt lat="42.91843" lon="-8.01465">
        <ele>456.1</ele>
        <time>2016-07-17T09:35:49Z</time>
      </trkpt>
      <trkpt lat="42.91835" lon="-8.01469">
        <ele>456.1</ele>
        <time>2016-07-17T09:35:56Z</time>
      </trkpt>
      <trkpt lat="42.91826" lon="-8.01476">
        <ele>455.9</ele>
        <time>2016-07-17T09:36:03Z</time>
      </trkpt>
      <trkpt lat="42.91818" lon="-8.01483">
        <ele>455.5</ele>
        <time>2016-07-17T09:36:10Z</time>
      </trkpt>
      <trkpt lat="42.91811" lon="-8.01491">
        <ele>455.3</ele>
        <time>2016-07-17T09:36:19Z</time>
      </trkpt>
      <trkpt lat="42.91805" lon="-8.015">
        <ele>455.6</ele>
        <time>2016-07-17T09:36:29Z</time>
      </trkpt>
      <trkpt lat="42.91797" lon="-8.01508">
        <ele>455.7</ele>
        <time>2016-07-17T09:36:38Z</time>
      </trkpt>
      <trkpt lat="42.91789" lon="-8.01516">
        <ele>455.5</ele>
        <time>2016-07-17T09:36:48Z</time>
      </trkpt>
      <trkpt lat="42.91781" lon="-8.01524">
        <ele>455.3</ele>
        <time>2016-07-17T09:36:59Z</time>
      </trkpt>
      <trkpt lat="42.91773" lon="-8.01531">
        <ele>455.1</ele>
        <time>2016-07-17T09:37:10Z</time>
      </trkpt>
      <trkpt lat="42.91764" lon="-8.01536">
        <ele>455.1</ele>
        <time>2016-07-17T09:37:19Z</time>
      </trkpt>
      <trkpt lat="42.91762" lon="-8.01548">
        <ele>454.7</ele>
        <time>2016-07-17T09:37:58Z</time>
      </trkpt>
      <trkpt lat="42.91754" lon="-8.01554">
        <ele>454.7</ele>
        <time>2016-07-17T09:38:32Z</time>
      </trkpt>
      <trkpt lat="42.91747" lon="-8.01563">
        <ele>454.6</ele>
        <time>2016-07-17T09:38:41Z</time>
      </trkpt>
      <trkpt lat="42.9174" lon="-8.01571">
        <ele>454.8</ele>
        <time>2016-07-17T09:38:49Z</time>
      </trkpt>
      <trkpt lat="42.91733" lon="-8.01582">
        <ele>454.9</ele>
        <time>2016-07-17T09:38:58Z</time>
      </trkpt>
      <trkpt lat="42.91726" lon="-8.01591">
        <ele>455.2</ele>
        <time>2016-07-17T09:39:06Z</time>
      </trkpt>
      <trkpt lat="42.91718" lon="-8.01594">
        <ele>455.3</ele>
        <time>2016-07-17T09:39:22Z</time>
      </trkpt>
      <trkpt lat="42.9171" lon="-8.01601">
        <ele>455.1</ele>
        <time>2016-07-17T09:39:43Z</time>
      </trkpt>
      <trkpt lat="42.91702" lon="-8.01609">
        <ele>455.2</ele>
        <time>2016-07-17T09:39:52Z</time>
      </trkpt>
      <trkpt lat="42.91694" lon="-8.01617">
        <ele>455.2</ele>
        <time>2016-07-17T09:40:00Z</time>
      </trkpt>
      <trkpt lat="42.91687" lon="-8.01626">
        <ele>454.9</ele>
        <time>2016-07-17T09:40:10Z</time>
      </trkpt>
      <trkpt lat="42.91678" lon="-8.01632">
        <ele>455</ele>
        <time>2016-07-17T09:40:20Z</time>
      </trkpt>
      <trkpt lat="42.9167" lon="-8.0164">
        <ele>454.9</ele>
        <time>2016-07-17T09:40:32Z</time>
      </trkpt>
      <trkpt lat="42.91663" lon="-8.01649">
        <ele>454.7</ele>
        <time>2016-07-17T09:40:43Z</time>
      </trkpt>
      <trkpt lat="42.91659" lon="-8.0166">
        <ele>454.8</ele>
        <time>2016-07-17T09:40:52Z</time>
      </trkpt>
      <trkpt lat="42.91652" lon="-8.01669">
        <ele>454.9</ele>
        <time>2016-07-17T09:41:02Z</time>
      </trkpt>
      <trkpt lat="42.91643" lon="-8.01672">
        <ele>454.6</ele>
        <time>2016-07-17T09:41:09Z</time>
      </trkpt>
      <trkpt lat="42.91634" lon="-8.01669">
        <ele>454.5</ele>
        <time>2016-07-17T09:41:20Z</time>
      </trkpt>
      <trkpt lat="42.91626" lon="-8.01674">
        <ele>454.4</ele>
        <time>2016-07-17T09:41:32Z</time>
      </trkpt>
      <trkpt lat="42.91619" lon="-8.01681">
        <ele>454.2</ele>
        <time>2016-07-17T09:41:44Z</time>
      </trkpt>
      <trkpt lat="42.9161" lon="-8.01678">
        <ele>454.1</ele>
        <time>2016-07-17T09:41:55Z</time>
      </trkpt>
      <trkpt lat="42.91601" lon="-8.01679">
        <ele>454.3</ele>
        <time>2016-07-17T09:42:06Z</time>
      </trkpt>
      <trkpt lat="42.91591" lon="-8.01682">
        <ele>454.1</ele>
        <time>2016-07-17T09:42:18Z</time>
      </trkpt>
      <trkpt lat="42.91582" lon="-8.01686">
        <ele>453.8</ele>
        <time>2016-07-17T09:42:28Z</time>
      </trkpt>
      <trkpt lat="42.91572" lon="-8.01681">
        <ele>453</ele>
        <time>2016-07-17T09:42:41Z</time>
      </trkpt>
      <trkpt lat="42.91566" lon="-8.01671">
        <ele>453.9</ele>
        <time>2016-07-17T09:43:06Z</time>
      </trkpt>
      <trkpt lat="42.91557" lon="-8.01665">
        <ele>453.7</ele>
        <time>2016-07-17T09:43:14Z</time>
      </trkpt>
      <trkpt lat="42.91548" lon="-8.01658">
        <ele>453.6</ele>
        <time>2016-07-17T09:43:24Z</time>
      </trkpt>
      <trkpt lat="42.91539" lon="-8.01655">
        <ele>453.8</ele>
        <time>2016-07-17T09:43:32Z</time>
      </trkpt>
      <trkpt lat="42.9153" lon="-8.01651">
        <ele>454</ele>
        <time>2016-07-17T09:43:44Z</time>
      </trkpt>
      <trkpt lat="42.91521" lon="-8.01651">
        <ele>453.9</ele>
        <time>2016-07-17T09:44:00Z</time>
      </trkpt>
      <trkpt lat="42.91512" lon="-8.01653">
        <ele>453.9</ele>
        <time>2016-07-17T09:44:12Z</time>
      </trkpt>
      <trkpt lat="42.91503" lon="-8.01658">
        <ele>453.4</ele>
        <time>2016-07-17T09:44:22Z</time>
      </trkpt>
      <trkpt lat="42.91495" lon="-8.0166">
        <ele>453.2</ele>
        <time>2016-07-17T09:44:36Z</time>
      </trkpt>
      <trkpt lat="42.91486" lon="-8.01666">
        <ele>453.2</ele>
        <time>2016-07-17T09:44:48Z</time>
      </trkpt>
      <trkpt lat="42.9148" lon="-8.01676">
        <ele>453.1</ele>
        <time>2016-07-17T09:44:58Z</time>
      </trkpt>
      <trkpt lat="42.91475" lon="-8.01687">
        <ele>453.4</ele>
        <time>2016-07-17T09:45:07Z</time>
      </trkpt>
      <trkpt lat="42.91472" lon="-8.017">
        <ele>453.3</ele>
        <time>2016-07-17T09:45:17Z</time>
      </trkpt>
      <trkpt lat="42.91466" lon="-8.0171">
        <ele>453.9</ele>
        <time>2016-07-17T09:45:28Z</time>
      </trkpt>
      <trkpt lat="42.91506" lon="-8.01723">
        <ele>454</ele>
        <time>2016-07-17T09:55:48Z</time>
      </trkpt>
      <trkpt lat="42.91497" lon="-8.01724">
        <ele>453</ele>
        <time>2016-07-17T09:56:39Z</time>
      </trkpt>
      <trkpt lat="42.91478" lon="-8.01714">
        <ele>453</ele>
        <time>2016-07-17T09:57:34Z</time>
      </trkpt>
      <trkpt lat="42.91472" lon="-8.01705">
        <ele>453</ele>
        <time>2016-07-17T09:58:04Z</time>
      </trkpt>
      <trkpt lat="42.91477" lon="-8.01695">
        <ele>454.2</ele>
        <time>2016-07-17T09:58:24Z</time>
      </trkpt>
      <trkpt lat="42.91478" lon="-8.01683">
        <ele>454.2</ele>
        <time>2016-07-17T09:58:55Z</time>
      </trkpt>
      <trkpt lat="42.91487" lon="-8.01684">
        <ele>453.7</ele>
        <time>2016-07-17T09:59:27Z</time>
      </trkpt>
      <trkpt lat="42.91496" lon="-8.01686">
        <ele>453.9</ele>
        <time>2016-07-17T09:59:38Z</time>
      </trkpt>
      <trkpt lat="42.91488" lon="-8.01691">
        <ele>454</ele>
        <time>2016-07-17T10:00:25Z</time>
      </trkpt>
      <trkpt lat="42.91478" lon="-8.01686">
        <ele>454.1</ele>
        <time>2016-07-17T10:00:52Z</time>
      </trkpt>
      <trkpt lat="42.91471" lon="-8.01679">
        <ele>453.7</ele>
        <time>2016-07-17T10:01:12Z</time>
      </trkpt>
      <trkpt lat="42.91481" lon="-8.01684">
        <ele>454</ele>
        <time>2016-07-17T10:01:38Z</time>
      </trkpt>
      <trkpt lat="42.91489" lon="-8.01691">
        <ele>454.2</ele>
        <time>2016-07-17T10:01:42Z</time>
      </trkpt>
      <trkpt lat="42.91481" lon="-8.01685">
        <ele>453.8</ele>
        <time>2016-07-17T10:02:52Z</time>
      </trkpt>
      <trkpt lat="42.91487" lon="-8.01676">
        <ele>453.8</ele>
        <time>2016-07-17T10:04:29Z</time>
      </trkpt>
      <trkpt lat="42.9149" lon="-8.01664">
        <ele>453.6</ele>
        <time>2016-07-17T10:05:00Z</time>
      </trkpt>
      <trkpt lat="42.91499" lon="-8.0166">
        <ele>453.7</ele>
        <time>2016-07-17T10:05:20Z</time>
      </trkpt>
      <trkpt lat="42.91506" lon="-8.01651">
        <ele>454.1</ele>
        <time>2016-07-17T10:06:18Z</time>
      </trkpt>
      <trkpt lat="42.91512" lon="-8.01641">
        <ele>454</ele>
        <time>2016-07-17T10:06:33Z</time>
      </trkpt>
      <trkpt lat="42.91508" lon="-8.0163">
        <ele>453.4</ele>
        <time>2016-07-17T10:06:45Z</time>
      </trkpt>
      <trkpt lat="42.91504" lon="-8.01619">
        <ele>453.5</ele>
        <time>2016-07-17T10:06:58Z</time>
      </trkpt>
      <trkpt lat="42.915" lon="-8.01606">
        <ele>453.5</ele>
        <time>2016-07-17T10:07:08Z</time>
      </trkpt>
      <trkpt lat="42.91496" lon="-8.01593">
        <ele>454</ele>
        <time>2016-07-17T10:07:20Z</time>
      </trkpt>
      <trkpt lat="42.91494" lon="-8.01581">
        <ele>454</ele>
        <time>2016-07-17T10:07:41Z</time>
      </trkpt>
      <trkpt lat="42.91499" lon="-8.0157">
        <ele>453.2</ele>
        <time>2016-07-17T10:07:57Z</time>
      </trkpt>
      <trkpt lat="42.91507" lon="-8.01564">
        <ele>453.2</ele>
        <time>2016-07-17T10:08:07Z</time>
      </trkpt>
      <trkpt lat="42.91513" lon="-8.01555">
        <ele>453.3</ele>
        <time>2016-07-17T10:08:27Z</time>
      </trkpt>
      <trkpt lat="42.91504" lon="-8.01557">
        <ele>453</ele>
        <time>2016-07-17T10:09:05Z</time>
      </trkpt>
      <trkpt lat="42.91498" lon="-8.01566">
        <ele>452.7</ele>
        <time>2016-07-17T10:09:17Z</time>
      </trkpt>
      <trkpt lat="42.915" lon="-8.0158">
        <ele>452.7</ele>
        <time>2016-07-17T10:09:32Z</time>
      </trkpt>
      <trkpt lat="42.91505" lon="-8.0159">
        <ele>452.9</ele>
        <time>2016-07-17T10:09:39Z</time>
      </trkpt>
      <trkpt lat="42.91511" lon="-8.016">
        <ele>453.4</ele>
        <time>2016-07-17T10:09:47Z</time>
      </trkpt>
      <trkpt lat="42.91518" lon="-8.01609">
        <ele>453.6</ele>
        <time>2016-07-17T10:09:54Z</time>
      </trkpt>
      <trkpt lat="42.91524" lon="-8.01619">
        <ele>453.6</ele>
        <time>2016-07-17T10:10:03Z</time>
      </trkpt>
      <trkpt lat="42.91525" lon="-8.01632">
        <ele>453.6</ele>
        <time>2016-07-17T10:10:15Z</time>
      </trkpt>
      <trkpt lat="42.9152" lon="-8.01642">
        <ele>453.6</ele>
        <time>2016-07-17T10:10:28Z</time>
      </trkpt>
      <trkpt lat="42.91512" lon="-8.01649">
        <ele>453.4</ele>
        <time>2016-07-17T10:10:43Z</time>
      </trkpt>
      <trkpt lat="42.91498" lon="-8.01655">
        <ele>453</ele>
        <time>2016-07-17T10:14:08Z</time>
      </trkpt>
      <trkpt lat="42.91568" lon="-8.01672">
        <ele>453</ele>
        <time>2016-07-17T10:17:15Z</time>
      </trkpt>
      <trkpt lat="42.91528" lon="-8.01677">
        <ele>453.5</ele>
        <time>2016-07-17T10:19:03Z</time>
      </trkpt>
      <trkpt lat="42.9152" lon="-8.01668">
        <ele>453.4</ele>
        <time>2016-07-17T10:19:08Z</time>
      </trkpt>
      <trkpt lat="42.91512" lon="-8.01659">
        <ele>453</ele>
        <time>2016-07-17T10:19:13Z</time>
      </trkpt>
      <trkpt lat="42.91505" lon="-8.0165">
        <ele>453.7</ele>
        <time>2016-07-17T10:19:28Z</time>
      </trkpt>
      <trkpt lat="42.91498" lon="-8.01641">
        <ele>453.8</ele>
        <time>2016-07-17T10:19:43Z</time>
      </trkpt>
      <trkpt lat="42.91507" lon="-8.0164">
        <ele>453</ele>
        <time>2016-07-17T10:21:21Z</time>
      </trkpt>
      <trkpt lat="42.91506" lon="-8.01627">
        <ele>452.9</ele>
        <time>2016-07-17T10:21:40Z</time>
      </trkpt>
      <trkpt lat="42.91501" lon="-8.01616">
        <ele>453.6</ele>
        <time>2016-07-17T10:21:52Z</time>
      </trkpt>
      <trkpt lat="42.91499" lon="-8.01604">
        <ele>454</ele>
        <time>2016-07-17T10:22:07Z</time>
      </trkpt>
      <trkpt lat="42.91498" lon="-8.01591">
        <ele>454</ele>
        <time>2016-07-17T10:22:21Z</time>
      </trkpt>
      <trkpt lat="42.91493" lon="-8.0158">
        <ele>453.3</ele>
        <time>2016-07-17T10:22:38Z</time>
      </trkpt>
      <trkpt lat="42.91485" lon="-8.01573">
        <ele>453.5</ele>
        <time>2016-07-17T10:22:51Z</time>
      </trkpt>
      <trkpt lat="42.91478" lon="-8.01564">
        <ele>453.1</ele>
        <time>2016-07-17T10:22:59Z</time>
      </trkpt>
      <trkpt lat="42.91471" lon="-8.01554">
        <ele>452.8</ele>
        <time>2016-07-17T10:23:09Z</time>
      </trkpt>
      <trkpt lat="42.91467" lon="-8.01544">
        <ele>452.9</ele>
        <time>2016-07-17T10:23:18Z</time>
      </trkpt>
      <trkpt lat="42.9146" lon="-8.01535">
        <ele>453</ele>
        <time>2016-07-17T10:23:40Z</time>
      </trkpt>
      <trkpt lat="42.91451" lon="-8.01528">
        <ele>452.7</ele>
        <time>2016-07-17T10:23:52Z</time>
      </trkpt>
      <trkpt lat="42.91442" lon="-8.01525">
        <ele>453.3</ele>
        <time>2016-07-17T10:24:36Z</time>
      </trkpt>
      <trkpt lat="42.91439" lon="-8.01544">
        <ele>453</ele>
        <time>2016-07-17T10:25:03Z</time>
      </trkpt>
      <trkpt lat="42.91438" lon="-8.01517">
        <ele>453</ele>
        <time>2016-07-17T10:25:42Z</time>
      </trkpt>
      <trkpt lat="42.91446" lon="-8.01488">
        <ele>453</ele>
        <time>2016-07-17T10:47:35Z</time>
      </trkpt>
      <trkpt lat="42.91427" lon="-8.01499">
        <ele>453</ele>
        <time>2016-07-17T10:51:57Z</time>
      </trkpt>
      <trkpt lat="42.91448" lon="-8.01524">
        <ele>454</ele>
        <time>2016-07-17T10:52:53Z</time>
      </trkpt>
      <trkpt lat="42.91459" lon="-8.01535">
        <ele>454.2</ele>
        <time>2016-07-17T10:52:59Z</time>
      </trkpt>
      <trkpt lat="42.91463" lon="-8.01547">
        <ele>453.9</ele>
        <time>2016-07-17T10:53:11Z</time>
      </trkpt>
      <trkpt lat="42.91454" lon="-8.01549">
        <ele>454.4</ele>
        <time>2016-07-17T10:54:12Z</time>
      </trkpt>
      <trkpt lat="42.9145" lon="-8.01537">
        <ele>454</ele>
        <time>2016-07-17T10:55:18Z</time>
      </trkpt>
      <trkpt lat="42.91443" lon="-8.01528">
        <ele>454.1</ele>
        <time>2016-07-17T10:55:27Z</time>
      </trkpt>
      <trkpt lat="42.91462" lon="-8.01548">
        <ele>454</ele>
        <time>2016-07-17T10:57:53Z</time>
      </trkpt>
      <trkpt lat="42.9147" lon="-8.01558">
        <ele>454</ele>
        <time>2016-07-17T10:58:01Z</time>
      </trkpt>
      <trkpt lat="42.91479" lon="-8.01569">
        <ele>455</ele>
        <time>2016-07-17T10:58:05Z</time>
      </trkpt>
      <trkpt lat="42.91465" lon="-8.01554">
        <ele>455</ele>
        <time>2016-07-17T10:58:17Z</time>
      </trkpt>
      <trkpt lat="42.91462" lon="-8.01527">
        <ele>455</ele>
        <time>2016-07-17T10:58:24Z</time>
      </trkpt>
      <trkpt lat="42.91456" lon="-8.01511">
        <ele>455</ele>
        <time>2016-07-17T10:58:32Z</time>
      </trkpt>
      <trkpt lat="42.91447" lon="-8.01505">
        <ele>454</ele>
        <time>2016-07-17T10:59:29Z</time>
      </trkpt>
      <trkpt lat="42.91456" lon="-8.01504">
        <ele>454</ele>
        <time>2016-07-17T10:59:40Z</time>
      </trkpt>
      <trkpt lat="42.91433" lon="-8.01502">
        <ele>454</ele>
        <time>2016-07-17T11:00:34Z</time>
      </trkpt>
      <trkpt lat="42.91425" lon="-8.01514">
        <ele>454</ele>
        <time>2016-07-17T11:00:56Z</time>
      </trkpt>
      <trkpt lat="42.91437" lon="-8.01525">
        <ele>454</ele>
        <time>2016-07-17T11:01:04Z</time>
      </trkpt>
      <trkpt lat="42.9147" lon="-8.01649">
        <ele>455</ele>
        <time>2016-07-17T11:01:19Z</time>
      </trkpt>
      <trkpt lat="42.91493" lon="-8.01745">
        <ele>455</ele>
        <time>2016-07-17T11:01:43Z</time>
      </trkpt>
      <trkpt lat="42.91446" lon="-8.01526">
        <ele>455</ele>
        <time>2016-07-17T11:01:54Z</time>
      </trkpt>
      <trkpt lat="42.91435" lon="-8.01527">
        <ele>454</ele>
        <time>2016-07-17T11:02:02Z</time>
      </trkpt>
      <trkpt lat="42.91443" lon="-8.01512">
        <ele>455</ele>
        <time>2016-07-17T11:02:22Z</time>
      </trkpt>
      <trkpt lat="42.91452" lon="-8.01528">
        <ele>454</ele>
        <time>2016-07-17T11:02:36Z</time>
      </trkpt>
      <trkpt lat="42.91463" lon="-8.01525">
        <ele>454</ele>
        <time>2016-07-17T11:02:51Z</time>
      </trkpt>
      <trkpt lat="42.91472" lon="-8.0153">
        <ele>455</ele>
        <time>2016-07-17T11:02:56Z</time>
      </trkpt>
      <trkpt lat="42.91475" lon="-8.01545">
        <ele>455</ele>
        <time>2016-07-17T11:03:04Z</time>
      </trkpt>
      <trkpt lat="42.91461" lon="-8.01549">
        <ele>455</ele>
        <time>2016-07-17T11:03:12Z</time>
      </trkpt>
      <trkpt lat="42.91445" lon="-8.0154">
        <ele>455</ele>
        <time>2016-07-17T11:03:24Z</time>
      </trkpt>
      <trkpt lat="42.91469" lon="-8.01558">
        <ele>455</ele>
        <time>2016-07-17T11:03:58Z</time>
      </trkpt>
      <trkpt lat="42.91446" lon="-8.01529">
        <ele>455</ele>
        <time>2016-07-17T11:04:14Z</time>
      </trkpt>
      <trkpt lat="42.91484" lon="-8.01588">
        <ele>455</ele>
        <time>2016-07-17T11:04:48Z</time>
      </trkpt>
      <trkpt lat="42.91491" lon="-8.016">
        <ele>455</ele>
        <time>2016-07-17T11:04:59Z</time>
      </trkpt>
      <trkpt lat="42.91483" lon="-8.01587">
        <ele>455</ele>
        <time>2016-07-17T11:05:03Z</time>
      </trkpt>
      <trkpt lat="42.91473" lon="-8.01571">
        <ele>455</ele>
        <time>2016-07-17T11:05:07Z</time>
      </trkpt>
      <trkpt lat="42.91473" lon="-8.01571">
        <ele>455</ele>
        <time>2016-07-17T11:05:07Z</time>
      </trkpt>
      <trkpt lat="42.91473" lon="-8.01571">
        <ele>455</ele>
        <time>2016-07-17T11:05:07Z</time>
      </trkpt>
    </trkseg>
  </trk>
</gpx>